     2              OBSERVATION DATA    GPS                 RINEX VERSION / TYPE
teqc 2000Jul20 Karen Wendt 20040301 20:58:41UTC             PGM / RUN BY / DATE
                                                            COMMENT
L2: 1 -> 1; 150 -> 5; 250 -> 9                              COMMENT
L2: 1 -> 1; 150 -> 5; 250 -> 9                              COMMENT
L2: 1 -> 1; 150 -> 5; 250 -> 9                              COMMENT
L2: 1 -> 1; 150 -> 5; 250 -> 9                              COMMENT
L2: 1 -> 1; 150 -> 5; 250 -> 9                              COMMENT
L2: 1 -> 1; 150 -> 5; 250 -> 9                              COMMENT
L2: 1 -> 1; 150 -> 5; 250 -> 9                              COMMENT
L2: 1 -> 1; 150 -> 5; 250 -> 9                              COMMENT
L2: 1 -> 1; 150 -> 5; 250 -> 9                              COMMENT
L2: 1 -> 1; 150 -> 5; 250 -> 9                              COMMENT
L2: 1 -> 1; 150 -> 5; 250 -> 9                              COMMENT
L2: 1 -> 1; 150 -> 5; 250 -> 9                              COMMENT
L2: 1 -> 1; 150 -> 5; 250 -> 9                              COMMENT
L2: 1 -> 1; 150 -> 5; 250 -> 9                              COMMENT
Original Marker Name: 2076 2076_stmpd_SLO-01_PM53.8_GPS-7_19COMMENT
Campaign Name: USGS San Simeon 2003-2004                    COMMENT
4-Character Station Name: 2076                              COMMENT
6-Character Antenna Code: DMRCHT                            COMMENT
Vertical Measurement Point: BCR                             COMMENT
Vertical Offset to Rinex Ref. Point: 0.0348                 COMMENT
Radial Measurement Point: ECF                               COMMENT
Radial Offset to Rinex Ref. Point: 0.1897                   COMMENT
Antenna Height from Field Measurement: 0.5240 m             COMMENT
Additional Antenna Identification Info.:                    COMMENT
Turborogue and Ashtech Choke Ring                           COMMENT
Original XYZ: -2684303.4565 -4443829.7074 3692662.1465      COMMENT
New XYZ position is based on association with SCEC monument COMMENT
E1F0L6J2+0011. Position of that monument is believed to be  COMMENT
valid to within 1 m horizontally; vertical accuracy         COMMENT
should be no worse than 3-times this value.                 COMMENT
                                                            COMMENT
Revised Rinex header created by UCSD GPS archive for        COMMENT
GSAC on 20-Apr-2005 (2005:110) 16:28:55 GMT                 COMMENT
For assistance contact dagnew@ucsd.edu                      COMMENT
or anderson@python.ucsd.edu                                 COMMENT
                                                            COMMENT
SLO 01 PM53.8 GPS7 1986                                     MARKER NAME
CHS US GEOLOGICAL SURVEY                                    OBSERVER / AGENCY
ZE120023204 ASHTECH UZ-12 ZE00                              REC # / TYPE / VERS
CR14329 DORNE-MARGOL. TYPE T                                ANT # / TYPE
 -2684321.0000 -4443797.0000  3692656.0000                  APPROX POSITION XYZ
        0.4537        0.0000        0.0000                  ANTENNA: DELTA H/E/N
     1     1     0                                          WAVELENGTH FACT L1/2
     5    C1    L1    L2    P1    P2                        # / TYPES OF OBSERV
    30                                                      INTERVAL
  2004     2    27     0     0    0.000000                  TIME OF FIRST OBS
  2004     2    27    19    33   30.000000                  TIME OF LAST OBS
                                                            END OF HEADER
 04  2 27  0  0  0.0000000  0  9G26G29G22G 3G15G 6G21G18G16
  22134192.672   -20175467.10343 -14793157.54442  22134195.214    22134192.746
  23647929.389    -9624263.99843  -7485548.66342  23647931.729    23647929.389
  22065633.958   -15769105.17243 -12263721.97342  22065635.000    22065630.816
  24316122.999    -5580683.11043  -4335317.60442  24316125.467    24316125.385
  22165881.491   -19737688.30543 -15331149.87542  22165883.556    22165881.938
  21764096.743   -20393810.99443 -15874947.06542  21764098.872    21764096.439
  20557392.152   -30216008.28944 -23483346.37842  20557394.237    20557389.880
  20409075.210   -28995284.26643 -22569962.37042  20409077.430    20409073.383
  23125624.570   -13485643.70843 -10446768.41842  23125626.627    23125624.178
 04  2 27  0  0 30.0000000  0  9G26G29G22G 3G15G 6G21G18G16
  22141322.701   -20137998.58043 -14763961.30842  22141325.241    22141322.785
  23659503.884    -9563440.05343  -7438153.41742  23659506.166    23659503.855
  22051751.179   -15842059.80343 -12320569.67942  22051752.177    22051747.885
  24297240.275    -5679912.10743  -4412638.78742  24297242.858    24297242.666
  22153483.182   -19802841.73943 -15381918.74442  22153485.215    22153483.590
  21779390.480   -20313441.94043 -15812321.86942  21779392.616    21779390.212
  20557068.365   -30217709.68444 -23484672.13442  20557070.457    20557066.122
  20405822.230   -29012378.67543 -22583282.67842  20405824.455    20405820.402
  23129448.998   -13465546.42143 -10431108.22642  23129451.052    23129448.577
 04  2 27  0  1  0.0000000  0  9G26G29G22G 3G15G 6G21G18G16
  22148572.505   -20099900.72843 -14734274.68242  22148575.037    22148572.582
  23671162.993    -9502170.96743  -7390411.30942  23671165.256    23671163.046
  22037932.019   -15914679.42743 -12377156.33942  22037933.043    22037928.776
  24278384.880    -5778996.91043  -4489847.61542  24278387.521    24278387.313
  22141103.994   -19867894.44543 -15432609.12242  22141106.040    22141104.434
  21794752.447   -20232714.29443 -15749417.24342  21794754.601    21794752.216
  20556786.434   -30219191.27144 -23485826.61642  20556788.532    20556784.164
  20402653.206   -29029032.05743 -22596259.32642  20402655.421    20402651.352
  23133368.361   -13444950.16343 -10415059.22942  23133370.451    23133367.962
 04  2 27  0  1 30.0000000  0  9G26G29G22G 3G15G 6G21G18G16
  22155942.535   -20061170.87643 -14704095.59342  22155945.083    22155942.658
  23682907.142    -9440454.90143  -7342320.91842  23682909.367    23682907.338
  22024177.577   -15986959.66843 -12433478.54942  22024178.585    22024174.253
  24259558.178    -5877931.52343  -4566939.38942  24259560.820    24259560.524
  22128744.796   -19932842.22743 -15483217.74642  22128746.832    22128745.235
  21810183.053   -20151626.05743 -15686231.64342  21810185.192    21810182.815
  20556547.060   -30220449.16344 -23486806.78842  20556549.170    20556544.802
  20399568.681   -29045241.38443 -22608889.95942  20399570.886    20399566.812
  23137383.134   -13423852.85743 -10398619.79742  23137385.228    23137382.645
 04  2 27  0  2  0.0000000  0  9G26G29G22G 3G15G 6G21G18G16
  22163433.280   -20021806.92143 -14673422.39742  22163435.796    22163433.383
  23694736.715    -9378290.12343  -7293880.86642  23694738.881    23694736.928
  22010488.458   -16058895.91343 -12489532.71342  22010489.489    22010485.079
  24240761.200    -5976710.08143  -4643909.56942  24240763.722    24240763.427
  22116406.345   -19997680.98343 -15533741.41642  22116408.398    22116406.799
  21825682.616   -20070175.41043 -15622763.64842  21825684.754    21825682.416
  20556351.041   -30221479.27744 -23487609.47142  20556353.148    20556348.771
  20396569.234   -29061003.55543 -22621172.16042  20396571.426    20396567.354
  23141493.588   -13402252.25743 -10381788.17942  23141495.680    23141493.101
 04  2 27  0  2 30.0000000  0  9G26G29G22G 3G15G 6G21G18G16
  22171043.103   -19981817.09243 -14642261.50242  22171045.624    22171043.208
  23706649.893    -9315685.75043  -7245098.28142  23706652.149    23706650.152
  21996863.725   -16130494.62343 -12545323.86242  21996864.733    21996860.342
  24221993.021    -6075337.23543  -4720761.77342  24221995.520    24221995.159
  22104087.349   -20062417.44343 -15584185.36742  22104089.400    22104087.800
  21841249.642   -19988370.41043 -15559019.52542  21841251.802    21841249.421
  20556197.135   -30222288.03444 -23488239.66842  20556199.251    20556194.862
  20393653.416   -29076326.18243 -22633111.85442  20393655.620    20393651.540
  23145698.170   -13380157.07143 -10364571.18342  23145700.233    23145697.689
 04  2 27  0  3  0.0000000  0  9G26G29G22G 3G15G 6G21G18G16
  22178772.555   -19941198.70543 -14610610.82442  22178775.087    22178772.655
  23718647.204    -9252639.57043  -7195971.42042  23718649.449    23718647.521
  21983304.095   -16201750.70843 -12600848.04042  21983305.096    21983300.604
  24203254.941    -6173806.60143  -4797491.03942  24203257.364    24203257.023
  22091788.774   -20127046.78543 -15634545.86342  22091790.804    22091789.188
  21856884.317   -19906209.77243 -15494998.28342  21856886.481    21856884.096
  20556086.218   -30222870.89144 -23488693.84442  20556088.328    20556083.942
  20390821.913   -29091205.74743 -22644706.31242  20390824.117    20390820.055
  23149997.416   -13357564.92743 -10346966.95142  23149999.408    23149996.939
 04  2 27  0  3 30.0000000  0  9G26G29G22G 3G15G 6G21G18G16
  22186621.191   -19899953.94643 -14578472.06142  22186623.691    22186621.291
  23730728.039    -9189154.58143  -7146502.62242  23730730.283    23730728.427
  21969809.716   -16272664.13043 -12656105.20342  21969810.706    21969806.288
  24184547.094    -6272116.43943  -4874095.99042  24184549.488    24184549.159
  22079510.448   -20191569.63143 -15684823.36842  22079512.504    22079510.828
  21872586.326   -19823695.36243 -15430701.38342  21872588.469    21872586.068
  20556018.227   -30223228.27144 -23488972.31742  20556020.319    20556015.916
  20388074.460   -29105643.61143 -22655956.58542  20388076.674    20388072.612
  23154390.702   -13334478.15243 -10328977.28542  23154392.723    23154390.239
 04  2 27  0  4  0.0000000  0  9G26G29G22G 3G15G 6G21G18G16
  22194588.661   -19858084.43643 -14545846.47742  22194591.205    22194588.815
  23742891.919    -9125232.81343  -7096693.49942  23742894.155    23742892.310
  21956380.611   -16343234.41843 -12711094.99342  21956381.607    21956377.096
  24165869.941    -6370264.98343  -4950575.26842  24165872.338    24165872.101
  22067252.467   -20255985.68643 -15735017.65242  22067254.520    22067252.838
  21888355.194   -19740829.60343 -15366130.68942  21888357.332    21888354.933
  20555993.186   -30223359.79144 -23489074.79742  20555995.285    20555990.882
  20385410.863   -29119640.91843 -22666863.56842  20385413.058    20385409.020
  23158877.689   -13310898.64143 -10310603.67942  23158879.679    23158877.279
 04  2 27  0  4 30.0000000  0  9G26G29G22G 3G15G 6G21G18G16
  22202674.926   -19815591.09543 -14512734.79942  22202677.442    22202675.018
  23755138.738    -9060875.56643  -7046545.02742  23755140.996    23755139.116
  21943016.986   -16413460.29843 -12765816.40342  21943017.994    21943013.559
  24147224.093    -6468249.07743  -5026926.42042  24147226.446    24147226.182
  22055015.001   -20320293.95943 -15785127.95942  22055017.020    22055015.347
  21904190.822   -19657613.06243 -15301286.67042  21904192.946    21904190.561
  20556011.319   -30223264.61044 -23489000.62942  20556013.400    20556009.022
  20382831.106   -29133197.77543 -22677427.34142  20382833.282    20382829.219
  23163458.345   -13286827.16843 -10291846.71442  23163460.342    23163457.801
 04  2 27  0  5  0.0000000  0  9G26G29G22G 3G15G 6G21G18G16
  22210879.529   -19772475.79743 -14479138.47842  22210882.037    22210879.592
  23767467.877    -8996085.33043  -6996059.16442  23767470.141    23767468.334
  21929719.108   -16483341.33943 -12820269.11342  21929720.090    21929715.577
  24128609.891    -6566067.04743  -5103148.12242  24128612.217    24128611.866
  22042798.056   -20384494.32943 -15835154.18042  22042800.063    22042798.395
  21920092.742   -19574047.96243 -15236171.04442  21920094.881    21920092.481
  20556072.563   -30222942.69444 -23488749.78042  20556074.656    20556070.275
  20380334.946   -29146314.91043 -22687648.47442  20380337.157    20380333.111
  23168132.180   -13262266.12643 -10272708.26442  23168134.197    23168131.679
 04  2 27  0  5 30.0000000  0  9G26G29G22G 3G15G 6G21G18G16
  22219202.302   -19728739.46643 -14445058.23842  22219204.810    22219202.365
  23779879.138    -8930863.75443  -6945237.17542  23779881.463    23779879.682
  21916486.883   -16552876.52843 -12874452.32342  21916487.879    21916483.394
  24110027.898    -6663715.97143  -5179238.10342  24110030.181    24110029.879
  22030601.806   -20448585.99443 -15885095.69842  22030603.800    22030602.153
  21936060.729   -19490135.89943 -15170785.05542  21936062.871    21936060.445
  20556177.110   -30222393.13144 -23488321.54542  20556179.229    20556174.852
  20377922.398   -29158992.84343 -22697527.37142  20377924.614    20377920.568
  23172899.012   -13237216.53243 -10253189.15042  23172900.993    23172898.579
 04  2 27  0  6  0.0000000  0  9G26G29G22G 3G15G 6G21G18G16
  22227642.243   -19684387.25343 -14410498.09242  22227644.777    22227642.318
  23792371.400    -8865216.58443  -6894083.58142  23792373.698    23792371.902
  21903320.095   -16622068.58943 -12928368.16742  21903321.065    21903316.566
  24091477.740    -6761197.17043  -5255197.39242  24091480.108    24091479.723
  22018425.631   -20512572.15443 -15934954.99842  22018427.622    22018425.988
  21952093.764   -19405882.02143 -15105132.71642  21952095.917    21952093.464
  20556324.425   -30221619.00444 -23487718.32142  20556326.529    20556322.168
  20375592.644   -29171235.63943 -22707067.19842  20375594.873    20375590.829
  23177757.716   -13211683.72043 -10233293.48742  23177759.733    23177757.435
 04  2 27  0  6 30.0000000  0  9G26G29G22G 3G15G 6G21G18G16
  22236200.509   -19639413.37943 -14375453.52542  22236203.028    22236200.599
  23804945.694    -8799138.32243  -6842594.05842  23804948.019    23804946.220
  21890220.013   -16690909.40443 -12982010.30842  21890220.999    21890216.445
  24072961.418    -6858500.69043  -5331018.23242  24072963.760    24072963.414
  22006271.042   -20576444.69543 -15984725.75942  22006273.077    22006271.430
  21968192.946   -19321280.69343 -15039209.64242  21968195.070    21968192.592
  20556516.014   -30220612.18444 -23486933.77842  20556518.127    20556513.743
  20373346.976   -29183036.66143 -22716262.78542  20373349.203    20373345.151
  23182709.444   -13185662.11243 -10213016.94242  23182711.473    23182709.119
 04  2 27  0  7  0.0000000  0  9G26G29G22G 3G15G 6G21G18G16
  22244875.444   -19593826.33743 -14339931.17142  22244877.979    22244875.564
  23817600.348    -8732638.01543  -6790775.67942  23817602.612    23817600.842
  21877185.692   -16759405.13243 -13035383.54542  21877186.692    21877182.143
  24054478.060    -6955631.17043  -5406704.23842  24054480.416    24054480.035
  21994136.800   -20640210.31343 -16034413.21042  21994138.861    21994137.179
  21984356.626   -19236340.34143 -14973022.39442  21984358.709    21984356.208
  20556750.610   -30219379.36244 -23485973.12842  20556752.716    20556748.335
  20371183.925   -29194403.54343 -22725120.08042  20371186.142    20371182.086
  23187752.642   -13159160.18743 -10192366.10642  23187754.661    23187752.240
 04  2 27  0  7 30.0000000  0  9G26G29G22G 3G15G 6G21G18G16
  22253667.718   -19547622.72943 -14303928.38142  22253670.239    22253667.841
  23830335.841    -8665712.86343  -6738626.23442  23830338.029    23830336.388
  21864218.093   -16827550.28043 -13088483.61542  21864219.082    21864214.415
  24036029.001    -7052581.09243  -5482249.54242  24036031.490    24036030.994
  21982023.999   -20703863.44843 -16084013.00842  21982026.020    21982024.343
  22000585.280   -19151058.08643 -14906568.72442  22000587.448    22000584.917
  20557029.176   -30217915.36444 -23484832.33842  20557031.295    20557026.932
  20369104.330   -29205331.89143 -22733635.65842  20369106.549    20369102.481
  23192887.730   -13132174.95143 -10171338.68142  23192889.778    23192887.379
 04  2 27  0  8  0.0000000  0  9G26G29G22G 3G15G 6G21G18G16
  22262576.615   -19500806.19343 -14267447.98842  22262579.139    22262576.749
  23843151.355    -8598366.90743  -6686148.90542  23843153.561    23843151.944
  21851316.841   -16895346.23743 -13141311.56242  21851317.851    21851313.297
  24017614.344    -7149350.16343  -5557653.91842  24017616.749    24017616.300
  21969932.282   -20767405.61943 -16133526.34242  21969934.312    21969932.659
  22016878.221   -19065438.14943 -14839851.92242  22016880.390    22016877.902
  20557351.512   -30216221.38744 -23483512.34342  20557353.641    20557349.265
  20367107.612   -29215824.68443 -22741811.84542  20367109.831    20367105.766
  23198114.155   -13104709.94443 -10149937.41542  23198116.136    23198113.951
 04  2 27  0  8 30.0000000  0  9G26G29G22G 3G15G 6G21G18G16
  22271601.632   -19453379.38643 -14230492.05242  22271604.180    22271601.800
  23856046.391    -8530603.13343  -6633345.98442  23856048.620    23856046.957
  21838482.137   -16962793.41643 -13193867.77042  21838483.099    21838478.397
  23999234.359    -7245937.13243  -5632916.40242  23999236.728    23999236.298
  21957861.576   -20830837.58343 -16182953.80042  21957863.627    21957861.917
  22033234.947   -18979482.99343 -14772873.91742  22033237.111    22033234.693
  20557717.477   -30214298.15644 -23482013.71042  20557719.600    20557715.262
  20365193.391   -29225883.81143 -22749650.10742  20365195.635    20365191.560
  23203431.319   -13076768.23243 -10128164.69042  23203433.261    23203431.113
 04  2 27  0  9  0.0000000  0  9G26G29G22G 3G15G 6G21G18G16
  22280742.316   -19405344.91443 -14193062.61642  22280744.868    22280742.413
  23869020.262    -8462425.05043  -6580220.23642  23869022.470    23869020.791
  21825713.571   -17029892.05143 -13246152.34942  21825714.579    21825709.975
  23980889.317    -7342340.72943  -5708035.98642  23980891.674    23980891.251
  21945811.775   -20894159.67143 -16232295.63842  21945813.802    21945812.099
  22049654.911   -18893195.55443 -14705637.00042  22049657.075    22049654.684
  20558126.983   -30212146.05144 -23480336.73242  20558129.128    20558124.783
  20363361.313   -29235511.26843 -22757152.00542  20363363.568    20363359.522
  23208838.717   -13048352.55443 -10106022.61942  23208840.677    23208838.392
 04  2 27  0  9 30.0000000  0  9G26G29G22G 3G15G 6G21G18G16
  22289999.179   -19356699.86043 -14155157.39942  22290001.730    22289999.277
  23882073.603    -8393829.58943  -6526769.26342  23882075.811    23882074.143
  21813012.505   -17096636.51543 -13298160.98142  21813013.507    21813008.823
  23962580.556    -7438553.82743  -5783007.12942  23962582.896    23962582.390
  21933783.854   -20957366.56443 -16281547.71542  21933785.908    21933784.198
  22066138.674   -18806572.94843 -14638138.90842  22066140.801    22066138.493
  20558581.090   -30209759.75444 -23478477.26942  20558583.232    20558578.878
  20361612.227   -29244702.74243 -22764314.17542  20361614.466    20361610.428
  23214336.800   -13019460.02043 -10083508.98742  23214338.767    23214336.417
 04  2 27  0 10  0.0000000  0  9G26G29G22G 3G15G 6G21G18G16
  22299371.224   -19307449.54543 -14116780.55742  22299373.796    22299371.320
  23895205.141    -8324822.76743  -6472997.74142  23895207.406    23895205.724
  21800378.174   -17163030.01843 -13349896.12542  21800379.197    21800374.579
  23944307.726    -7534577.71843  -5857830.83342  23944310.051    23944309.539
  21921777.277   -21020461.29943 -16330712.39842  21921779.349    21921777.633
  22082685.261   -18719620.10943 -14570383.48442  22082687.395    22082685.124
  20559079.148   -30207142.39344 -23476437.75842  20559081.275    20559076.923
  20359945.210   -29253463.06943 -22771140.38842  20359947.408    20359943.370
  23219924.543   -12990096.28143 -10060628.19242  23219926.488    23219924.148
 04  2 27  0 10 30.0000000  0  9G26G29G22G 3G15G 6G21G18G16
  22308858.378   -19257594.27043 -14077932.31842  22308860.937    22308858.489
  23908414.871    -8255405.17743  -6418906.14442  23908417.186    23908415.521
  21787810.954   -17229070.71443 -13401356.35942  21787811.967    21787807.382
  23926071.658    -7630408.37043  -5932503.95942  23926074.091    23926073.466
  21909792.351   -21083442.20043 -16379788.37942  21909794.433    21909792.706
  22099294.482   -18632338.10543 -14502371.58242  22099296.624    22099294.385
  20559621.508   -30204292.27044 -23474216.87442  20559623.632    20559619.273
  20358360.407   -29261791.26943 -22777629.88042  20358362.579    20358358.554
  23225601.965   -12960261.58143 -10037380.41142  23225603.940    23225601.636
 04  2 27  0 11  0.0000000  0  9G26G29G22G 3G15G 6G21G18G16
  22318460.426   -19207135.14743 -14038613.54842  22318462.972    22318460.537
  23921702.447    -8185578.43043  -6364495.70942  23921704.796    23921703.183
  21775311.217   -17294757.22343 -13452540.61142  21775312.216    21775307.611
  23907873.011    -7726042.67343  -6007024.09842  23907875.401    23907874.744
  21897829.388   -21146307.95243 -16428774.63442  21897831.423    21897829.715
  22115966.202   -18544727.63943 -14434103.72742  22115968.356    22115966.139
  20560208.385   -30201208.23044 -23471813.72042  20560210.496    20560206.135
  20356857.751   -29269687.56843 -22783782.82542  20356859.943    20356855.921
  23231368.717   -12929957.14943 -10013766.60442  23231370.756    23231368.423
 04  2 27  0 11 30.0000000  0  9G26G29G22G 3G15G 6G21G18G16
  22328176.261   -19156078.28243 -13998829.00942  22328178.772    22328176.355
  23935066.697    -8115348.98443  -6309771.49642  23935069.034    23935067.398
  21762878.098   -17360093.21743 -13503451.71842  21762879.102    21762874.549
  23889711.288    -7821482.64943  -6081392.79742  23889713.729    23889712.999
  21885887.607   -21209062.31343 -16477674.08442  21885889.629    21885887.880
  22132699.218   -18456795.11543 -14365584.91942  22132701.381    22132699.141
  20560839.046   -30197893.89144 -23469231.11242  20560841.200    20560836.811
  20355436.388   -29277156.85543 -22789603.03542  20355438.572    20355434.554
  23237223.667   -12899189.18843  -9989791.61042  23237225.684    23237223.340
 04  2 27  0 12  0.0000000  0  9G26G29G22G 3G15G 6G21G18G16
  22338006.180   -19104421.74143 -13958577.18742  22338008.689    22338006.313
  23948507.833    -8044715.40743  -6254732.37342  23948510.112    23948508.533
  21750512.585   -17425074.48043 -13554086.43642  21750513.566    21750508.953
  23871587.699    -7916722.24643  -6155605.36742  23871590.122    23871589.410
  21873967.823   -21271701.04243 -16526483.43542  21873969.816    21873968.076
  22149493.856   -18368538.96143 -14296813.92542  22149495.978    22149493.778
  20561514.376   -30194344.98844 -23466465.72942  20561516.525    20561512.136
  20354096.793   -29284196.37443 -22795088.35942  20354098.985    20354094.962
  23243167.109   -12867956.07343  -9965454.14642  23243169.126    23243166.723
 04  2 27  0 12 30.0000000  0  9G26G29G22G 3G15G 6G21G18G16
  22347949.601   -19052168.90243 -13917860.70542  22347952.128    22347949.724
  23962025.205    -7973681.20443  -6199381.09142  23962027.483    23962025.907
  21738214.355   -17489701.94643 -13604445.45042  21738215.360    21738210.753
  23853502.432    -8011760.50543  -6229661.04442  23853504.855    23853504.113
  21862069.804   -21334225.31243 -16575203.59342  21862071.812    21862070.039
  22166349.473   -18279962.43343 -14227793.30042  22166351.566    22166349.381
  20562234.125   -30190562.74444 -23463518.52342  20562236.248    20562231.889
  20352838.453   -29290808.86843 -22800240.94342  20352840.642    20352836.623
  23249198.555   -12836260.97943  -9940756.69642  23249200.552    23249198.181
 04  2 27  0 13  0.0000000  0  9G26G29G22G 3G15G 6G21G18G16
  22358006.890   -18999317.54043 -13876677.84942  22358009.413    22358007.011
  23975619.093    -7902244.67943  -6143716.30442  23975621.437    23975619.835
  21725984.362   -17553970.61643 -13654524.89442  21725985.368    21725980.778
  23835456.763    -8106590.71843  -6303554.61242  23835459.148    23835458.452
  21850194.544   -21396630.19343 -16623830.72242  21850196.520    21850194.727
  22183266.533   -18191062.85343 -14158520.93942  22183268.597    22183266.426
  20562999.167   -30186542.35044 -23460385.74542  20563001.290    20562996.915
  20351662.071   -29296990.76543 -22805057.99142  20351664.253    20351660.228
  23255318.296   -12804102.00243  -9915697.80042  23255320.257    23255317.989
 04  2 27  0 13 30.0000000  0  9G26G29G22G 3G15G 6G21G18G16
  22368176.933   -18945873.80443 -13835033.39742  22368179.447    22368177.015
  23989288.414    -7830412.15243  -6087742.93342  23989290.782    23989289.112
  21713821.988   -17617884.49243 -13704327.87142  21713822.982    21713818.366
  23817450.274    -8201214.88043  -6377287.61942  23817452.632    23817452.013
  21838341.231   -21458919.56843 -16672367.84742  21838343.208    21838341.406
  22200243.802   -18101846.65543 -14089001.87042  22200245.924    22200243.759
  20563808.798   -30182287.87044 -23457070.56642  20563810.876    20563806.508
  20350566.585   -29302747.48143 -22809543.73342  20350568.779    20350564.758
  23261525.015   -12771485.30443  -9890282.22842  23261526.980    23261524.836
 04  2 27  0 14  0.0000000  0  9G26G29G22G 3G15G 6G21G18G16
  22378459.227   -18891840.11043 -13792929.22842  22378461.737    22378459.324
  24003032.598    -7758186.39743  -6031463.16742  24003034.992    24003033.232
  21701727.022   -17681443.73543 -13753854.51542  21701727.989    21701723.378
  23799483.375    -8295631.18943  -6450858.67342  23799485.767    23799485.130
  21826509.979   -21521093.08543 -16720814.69342  21826511.923    21826510.147
  22217280.817   -18012316.84643 -14019238.42742  22217282.913    22217280.745
  20564662.973   -30177799.07444 -23453572.80242  20564665.075    20564660.689
  20349551.708   -29308080.66143 -22813699.44642  20349553.913    20349549.860
  23267818.455   -12738413.39643  -9864511.93442  23267820.403    23267818.117
 04  2 27  0 14 30.0000000  0  9G26G29G22G 3G15G 6G21G18G16
  22388854.250   -18837213.84543 -13750363.31742  22388856.742    22388854.413
  24016851.978    -7685565.21043  -5974875.26642  24016854.339    24016852.684
  21689700.553   -17744643.12743 -13803100.74942  21689701.513    21689696.923
  23781557.384    -8389832.66243  -6524262.30742  23781559.755    23781559.019
  21814701.666   -21583145.91243 -16769167.48942  21814703.633    21814701.863
  22234378.080   -17922470.34743 -13949228.20442  22234380.186    22234377.986
  20565562.653   -30173071.27344 -23449888.79942  20565564.736    20565560.354
  20348618.174   -29312986.48443 -22817522.15342  20348620.360    20348616.307
  23274199.020   -12704883.80043  -9838384.99742  23274200.972    23274198.559
 04  2 27  0 15  0.0000000  0  9G26G29G22G 3G15G 6G21G18G16
  22399361.116   -18781999.90843 -13707339.47242  22399363.627    22399361.273
  24030745.591    -7612553.57443  -5917983.10842  24030748.081    24030746.299
  21677742.144   -17807484.98143 -13852068.39242  21677743.097    21677738.416
  23763672.200    -8483819.46943  -6597498.68142  23763674.539    23763673.858
  21802915.912   -21645080.08543 -16817427.83442  21802917.895    21802916.114
  22251534.590   -17832312.36743 -13878975.27642  22251536.731    22251534.555
  20566507.428   -30168106.44544 -23446020.10142  20566509.504    20566505.123
  20347765.283   -29317468.41843 -22821014.55442  20347767.477    20347763.423
  23280665.639   -12670901.43643  -9811905.26242  23280667.582    23280665.302
 04  2 27  0 15 30.0000000  0  9G26G29G22G 3G15G 6G21G18G16
  22409978.693   -18726204.25043 -13663862.34642  22409981.199    22409978.831
  24044712.368    -7539157.92143  -5860791.73142  24044714.830    24044713.050
  21665850.971   -17869973.03143 -13900760.33042  21665851.946    21665847.356
  23745827.447    -8577593.58643  -6670569.30942  23745829.806    23745829.121
  21791152.040   -21706899.32243 -16865598.61342  21791154.033    21791152.253
  22268749.387   -17741848.21843 -13808483.76142  22268751.508    22268749.357
  20567496.675   -30162907.95244 -23441969.32642  20567498.762    20567494.355
  20346992.023   -29321531.82743 -22824180.83542  20346994.224    20346990.160
  23287217.200   -12636472.53143  -9785077.59142  23287219.106    23287217.090
 04  2 27  0 16  0.0000000  0  9G26G29G22G 3G15G 6G21G18G16
  22420707.904   -18669821.99043 -13619928.12342  22420710.382    22420708.024
  24058753.075    -7465373.41443  -5803297.34542  24058755.628    24058753.865
  21654028.679   -17932099.78143 -13949170.75742  21654029.609    21654024.940
  23728025.028    -8671145.54643  -6743466.82742  23728027.322    23728026.681
  21779411.484   -21768596.03343 -16913673.92542  21779413.508    21779411.701
  22286023.274   -17651073.49643 -13737750.26142  22286025.413    22286023.208
  20568531.732   -30157468.76844 -23437731.00042  20568533.817    20568529.416
  20346299.630   -29325170.33543 -22827016.02142  20346301.831    20346297.748
  23293854.726   -12601592.17343  -9757898.10842  23293856.638    23293854.672
 04  2 27  0 16 30.0000000  0  9G26G29G22G 3G15G 6G21G18G16
  22431547.601   -18612858.96243 -13575541.35942  22431550.123    22431547.707
  24072866.571    -7391206.33543  -5745504.83642  24072869.138    24072867.457
  21642274.404   -17993868.64543 -13997302.29242  21642275.359    21642270.712
  23710264.560    -8764476.90743  -6816192.47042  23710266.873    23710266.214
  21767693.609   -21830173.52643 -16961656.33942  21767695.663    21767693.833
  22303355.188   -17559993.79143 -13666779.10042  22303357.335    22303355.109
  20569612.006   -30151791.78544 -23433307.37042  20569614.092    20569609.719
  20345687.152   -29328388.85443 -22829523.94442  20345689.338    20345685.255
  23300577.141   -12566266.12243  -9730371.32842  23300579.090    23300576.983
 04  2 27  0 17  0.0000000  0  9G26G29G22G 3G15G 6G21G18G16
  22442497.939   -18555314.65443 -13530701.64942  22442500.445    22442498.037
  24087053.028    -7316656.14543  -5687413.81242  24087055.482    24087053.909
  21630588.827   -18055276.57543 -14045152.59042  21630589.782    21630585.091
  23692547.027    -8857582.50243  -6888742.16942  23692549.377    23692548.693
  21755999.047   -21891628.51243 -17009543.28842  21756001.121    21755999.280
  22320745.212   -17468608.71943 -13595569.99142  22320747.378    22320745.168
  20570738.084   -30145874.28044 -23428696.32142  20570740.160    20570735.767
  20345154.933   -29331185.68243 -22831703.27342  20345157.111    20345153.022
  23307384.342   -12530493.85643  -9702496.86342  23307386.352    23307384.161
 04  2 27  0 17 30.0000000  0  9G26G29G22G 3G15G 6G21G18G16
  22453557.842   -18497194.42643 -13485413.16942  22453560.356    22453557.997
  24101311.335    -7241728.58843  -5629028.72942  24101313.757    24101312.138
  21618971.426   -18116326.46244 -14092723.89042  21618972.389    21618967.692
  23674872.302    -8950463.34343  -6961116.75642  23674874.647    23674873.987
  21744327.298   -21952963.79243 -17057336.97242  21744329.351    21744327.522
  22338192.374   -17376923.40843 -13524126.93942  22338194.542    22338192.338
  20571909.412   -30139719.01144 -23423900.00242  20571911.469    20571907.068
  20344702.090   -29333565.35743 -22833557.55142  20344704.259    20344700.158
  23314275.348   -12494281.11443  -9674279.18042  23314277.358    23314275.272
 04  2 27  0 18  0.0000000  0  9G26G29G22G 3G15G 6G21G18G16
  22464727.212   -18438498.96243 -13439676.44842  22464729.717    22464727.365
  24115641.249    -7166424.47343  -5570350.23142  24115643.649    24115642.118
  21607422.459   -18177016.32644 -14140014.65442  21607423.445    21607418.719
  23657241.092    -9043115.41743  -7033313.08942  23657243.504    23657242.785
  21732678.809   -22014176.98643 -17105035.51742  21732680.834    21732679.001
  22355696.708   -17284937.65543 -13452449.77242  22355698.858    22355696.663
  20573126.389   -30133323.71044 -23418916.64742  20573128.440    20573124.044
  20344328.743   -29335527.22343 -22835086.26542  20344330.922    20344326.797
  23321250.192   -12457628.37843  -9645718.63242  23321252.220    23321250.182
 04  2 27  0 18 30.0000000  0  9G26G29G22G 3G15G 6G21G18G16
  22476006.424   -18379226.46643 -13393490.11242  22476008.861    22476006.523
  24130043.070    -7090742.29143  -5511377.12442  24130045.455    24130044.089
  21595942.881   -18237341.84144 -14187021.50842  21595943.838    21595939.157
  23639654.699    -9135532.30243  -7105326.15342  23639657.046    23639656.344
  21721054.339   -22075263.82443 -17152635.61042  21721056.367    21721054.499
  22373258.349   -17192650.52943 -13380537.76242  22373260.501    22373258.391
  20574389.866   -30126683.99144 -23413742.83442  20574391.951    20574387.544
  20344035.433   -29337068.54043 -22836287.27642  20344037.615    20344033.483
  23328309.100   -12420534.00443  -9616813.95142  23328311.128    23328309.020
 04  2 27  0 19  0.0000000  0  9G26G29G22G 3G15G 6G21G18G16
  22487393.551   -18319386.72943 -13346861.75442  22487396.002    22487393.659
  24144514.974    -7014691.95943  -5452117.14542  24144517.328    24144516.021
  21584531.282   -18297310.18343 -14233750.04742  21584532.228    21584527.488
  23622112.055    -9227719.05843  -7177159.91242  23622114.446    23622113.658
  21709452.595   -22136231.19543 -17200142.60242  21709454.625    21709452.770
  22390875.612   -17100071.25643 -13308398.10142  22390877.761    22390875.649
  20575698.506   -30119807.02244 -23408384.15042  20575700.603    20575696.185
  20343820.530   -29338197.90343 -22837167.28542  20343822.713    20343818.566
  23335450.032   -12383007.67343  -9587572.66542  23335452.079    23335450.020
 04  2 27  0 19 30.0000000  0  9G26G29G22G 3G15G 6G21G18G16
  22498889.421   -18258975.76243 -13299788.29442  22498891.874    22498889.471
  24159057.580    -6938269.73543  -5392567.38642  24159059.901    24159058.789
  21573188.787   -18356915.02044 -14280195.32742  21573189.748    21573185.060
  23604614.754    -9319667.48243  -7248807.93242  23604617.165    23604616.328
  21697874.844   -22197072.30343 -17247551.21442  21697876.894    21697875.031
  22408549.208   -17007196.15443 -13236027.93842  22408551.360    22408549.218
  20577053.578   -30112686.10744 -23402835.37842  20577055.677    20577051.232
  20343684.974   -29338910.34143 -22837722.41942  20343687.136    20343682.997
  23342673.923   -12345045.65943  -9557991.91942  23342675.984    23342674.016
 04  2 27  0 20  0.0000000  0  9G26G29G22G 3G15G 6G21G18G16
  22510493.136   -18197998.02943 -13252273.19742  22510495.597    22510493.195
  24173670.150    -6861480.20743  -5332731.40842  24173672.525    24173671.399
  21561915.157   -18416158.23443 -14326358.83042  21561916.099    21561911.371
  23587162.947    -9411377.39343  -7320270.13442  23587165.314    23587164.403
  21686320.829   -22257788.88243 -17294862.78642  21686322.887    21686320.996
  22426278.277   -16914029.36843 -13163430.49242  22426280.388    22426278.301
  20578454.641   -30105323.34044 -23397098.14942  20578456.756    20578452.314
  20343628.139   -29339208.92343 -22837955.06742  20343630.322    20343626.168
  23349980.024   -12306652.32143  -9528075.05142  23349982.114    23349980.099
 04  2 27  0 20 30.0000000  0  9G26G29G22G 3G15G 6G21G18G16
  22522204.403   -18136454.99443 -13204317.59342  22522206.859    22522204.448
  24188352.400    -6784324.99143  -5272610.47642  24188354.714    24188353.497
  21550710.519   -18475038.77744 -14372239.72342  21550711.461    21550706.763
  23569757.117    -9502845.49943  -7391543.88942  23569759.487    23569758.523
  21674790.801   -22318379.57643 -17342076.27042  21674792.834    21674790.923
  22444062.606   -16820572.19843 -13090606.77242  22444064.734    22444062.695
  20579902.110   -30097717.01444 -23391171.13642  20579904.182    20579899.743
  20343650.036   -29339093.83343 -22837865.37442  20343652.228    20343648.051
  23357367.887   -12267829.07243  -9497823.18742  23357369.967    23357367.932
 04  2 27  0 21  0.0000000  0  9G26G29G22G 3G15G 6G21G18G16
  22534022.342   -18074351.13643 -13155924.99342  22534024.877    22534022.401
  24203103.362    -6706808.57343  -5212208.09342  24203105.690    24203104.379
  21539574.572   -18533558.33644 -14417839.33242  21539575.526    21539570.781
  23552397.387    -9594071.50743  -7462629.00942  23552399.701    23552398.742
  21663284.421   -22378845.94743 -17389192.87542  21663286.449    21663284.514
  22461901.452   -16726828.51543 -13017559.78442  22461903.607    22461901.569
  20581395.543   -30089868.85744 -23385055.68142  20581397.620    20581393.178
  20343749.993   -29338568.44843 -22837455.97242  20343752.209    20343748.023
  23364836.601   -12228580.40943  -9467239.84842  23364838.634    23364836.729
 04  2 27  0 21 30.0000000  0  9G26G29G22G 3G15G 6G21G18G16
  22545947.504   -18011683.90143 -13107093.40242  22545950.031    22545947.565
  24217923.440    -6628928.71043  -5151522.50542  24217925.771    24217924.446
  21528508.282   -18591711.96744 -14463153.79742  21528509.237    21528504.454
  23535084.999    -9685048.26143  -7533519.89742  23535087.314    23535086.407
  21651802.724   -22439182.56243 -17436208.37542  21651804.763    21651802.814
  22479795.310   -16632795.93243 -12944287.69242  22479797.461    22479795.432
  20582935.955   -30081773.93544 -23378747.94642  20582938.033    20582933.574
  20343928.714   -29337629.32543 -22836724.17642  20343930.905    20343926.732
  23372386.728   -12188904.05743  -9436323.22442  23372388.801    23372386.827
 04  2 27  0 22  0.0000000  0  9G26G29G22G 3G15G 6G21G18G16
  22557978.487   -17948460.80143 -13057828.67542  22557981.029    22557978.537
  24232811.290    -6550692.90443  -5090559.55342  24232813.632    24232812.229
  21517510.660   -18649504.66244 -14508187.01442  21517511.611    21517506.793
  23517819.519    -9775778.73643  -7604218.88042  23517821.830    23517820.851
  21640344.822   -22499394.08543 -17483126.39642  21640346.864    21640344.901
  22497742.660   -16538482.34143 -12870796.63642  22497744.777    22497742.767
  20584522.484   -30073436.57744 -23372251.30042  20584524.579    20584520.120
  20344184.938   -29336282.89943 -22835675.00142  20344187.121    20344182.927
  23380016.922   -12148807.43143  -9405079.11142  23380019.006    23380017.034
 04  2 27  0 22 30.0000000  0  9G26G29G22G 3G15G 6G21G18G16
  22570115.321   -17884681.24843 -13008130.32642  22570117.875    22570115.398
  24247766.925    -6472100.61543  -5029318.81942  24247769.328    24247767.846
  21506582.324   -18706933.04744 -14552936.35042  21506583.311    21506578.501
  23500601.907    -9866257.47843  -7674721.70542  23500604.263    23500603.238
  21628911.443   -22559476.76743 -17529944.02542  21628913.471    21628911.483
  22515743.721   -16443886.09943 -12797085.32842  22515745.876    22515743.891
  20586155.776   -30064853.50444 -23365563.18842  20586157.847    20586153.419
  20344519.030   -29334527.20143 -22834306.91142  20344521.202    20344517.003
  23387727.178   -12108289.79143  -9373506.94842  23387729.271    23387727.412
 04  2 27  0 23  0.0000000  0  9G26G29G22G 3G15G 6G21G18G16
  22582357.880   -17820346.31843 -12957999.23242  22582360.407    22582357.950
  24262790.157    -6393153.06043  -4967801.26442  24262792.569    24262791.031
  21495723.611   -18763995.80243 -14597400.78542  21495724.578    21495719.769
  23483432.923    -9956480.92443  -7745025.58842  23483435.230    23483434.166
  21617502.884   -22619428.91443 -17576659.93342  21617504.920    21617502.919
  22533798.344   -16349008.54143 -12723154.81442  22533800.530    22533798.539
  20587836.140   -30056023.03544 -23358682.30442  20587838.215    20587833.803
  20344931.011   -29332362.15743 -22832619.85142  20344933.171    20344928.981
  23395517.207   -12067352.46943  -9341607.76242  23395519.339    23395517.531
 04  2 27  0 23 30.0000000  0  9G26G29G22G 3G15G 6G21G18G16
  22594704.934   -17755462.10343 -12907440.13342  22594707.488    22594704.978
  24277879.831    -6313856.54643  -4906011.78842  24277882.218    24277880.674
  21484933.848   -18820696.08844 -14641582.77042  21484934.838    21484930.027
  23466312.239   -10046450.09343  -7815131.35442  23466314.627    23466313.523
  21606118.577   -22679253.67043 -17623276.57542  21606120.601    21606118.608
  22551905.568   -16253854.64043 -12649008.97842  22551907.739    22551905.797
  20589563.126   -30046947.67744 -23351610.59542  20589565.178    20589560.784
  20345419.996   -29329792.35243 -22830617.38942  20345422.190    20345417.991
  23403386.094   -12026001.36543  -9309386.14642  23403388.198    23403386.325
 04  2 27  0 24  0.0000000  0  9G26G29G22G 3G15G 6G21G18G16
  22607156.436   -17690029.29343 -12856453.55442  22607158.978    22607156.402
  24293035.853    -6234211.55443  -4843950.78342  24293038.170    24293036.637
  21474213.397   -18877032.16744 -14685480.96242  21474214.395    21474209.577
  23449240.790   -10136160.97043  -7885035.84042  23449243.128    23449242.000
  21594759.014   -22738948.51243 -17669791.98942  21594761.042    21594759.003
  22570065.114   -16158425.86743 -12574648.94142  22570067.273    22570065.313
  20591336.918   -30037626.16344 -23344347.07442  20591338.981    20591334.589
  20345986.049   -29326817.67143 -22828299.44342  20345988.235    20345984.026
  23411333.610   -11984237.31943  -9276842.73142  23411335.639    23411333.715
 04  2 27  0 24 30.0000000  0  9G26G29G22G 3G15G 6G21G18G16
  22619712.216   -17624048.13743 -12805039.68642  22619714.784    22619712.228
  24308258.024    -6154218.77843  -4781618.74942  24308260.299    24308258.860
  21463562.711   -18933001.67644 -14729093.51242  21463563.712    21463558.873
  23432219.286   -10225609.44543  -7954735.85942  23432221.579    23432220.453
  21583424.682   -22798510.67743 -17716204.01642  21583426.716    21583424.660
  22588277.028   -16062722.04143 -12500074.59442  22588279.145    22588277.205
  20593158.161   -30028055.56844 -23336889.46442  20593160.201    20593155.802
  20346629.354   -29323437.05143 -22825665.18142  20346631.537    20346627.327
  23419359.612   -11942060.58843  -9243977.77442  23419361.659    23419359.699
 04  2 27  0 25  0.0000000  0  9G26G29G22G 3G15G 6G21G18G16
  22632371.840   -17557521.20943 -12753200.52742  22632374.455    22632371.935
  24323545.924    -6073880.51943  -4719017.52342  24323548.272    24323546.744
  21452981.789   -18988604.69044 -14772420.48642  21452982.766    21452977.917
  23415248.139   -10314792.95643  -8024229.39342  23415250.448    23415249.281
  21572115.730   -22857939.45343 -17762512.10342  21572117.781    21572115.695
  22606540.843   -15966745.40843 -12425287.65442  22606542.954    22606540.989
  20595026.814   -30018235.57944 -23329237.52242  20595028.865    20595024.479
  20347349.668   -29319651.66443 -22822715.51542  20347351.867    20347347.643
  23427463.617   -11899473.49943  -9210793.06942  23427465.684    23427463.859
 04  2 27  0 25 30.0000000  0  9G26G29G22G 3G15G 6G21G18G16
  22645134.128   -17490455.44343 -12700941.52042  22645136.676    22645134.129
  24338898.283    -5993203.64643  -4656152.44042  24338900.571    24338899.169
  21442469.787   -19043845.47844 -14815465.20542  21442470.775    21442465.891
  23398327.054   -10403713.48343  -8093518.02342  23398329.376    23398328.184
  21560831.425   -22917238.81843 -17808719.35242  21560833.449    21560831.373
  22624855.355   -15870502.31443 -12350293.09142  22624857.463    22624855.511
  20596942.214   -30008170.05344 -23321394.25542  20596944.266    20596939.882
  20348145.865   -29315467.57943 -22819455.17742  20348148.041    20348143.837
  23435644.414   -11856483.22843  -9177294.17542  23435646.464    23435644.655
 04  2 27  0 26  0.0000000  0  9G26G29G22G 3G15G 6G21G18G16
  22657999.213   -17422848.95643 -12648261.14442  22658001.779    22657999.219
  24354315.300    -5912186.57543  -4593022.29042  24354317.587    24354316.223
  21432027.584   -19098719.45544 -14858224.09942  21432028.582    21432023.674
  23381457.253   -10492364.43243  -8162596.58742  23381459.609    23381458.363
  21549572.670   -22976403.77043 -17854821.86742  21549574.699    21549572.601
  22643220.888   -15773991.06843 -12275089.57242  22643223.010    22643221.037
  20598905.318   -29997853.78544 -23313355.60042  20598907.365    20598903.002
  20349018.606   -29310881.26443 -22815881.40842  20349020.790    20349016.572
  23443902.412   -11813087.58143  -9143479.40442  23443904.486    23443902.560
 04  2 27  0 26 30.0000000  0  9G26G29G22G 3G15G 6G21G18G16
  22670966.512   -17354705.35343 -12595162.24342  22670969.003    22670966.490
  24369796.445    -5830832.57643  -4529629.57442  24369798.726    24369797.343
  21421655.013   -19153227.43844 -14900697.80442  21421656.028    21421651.094
  23364639.070   -10580744.43543  -8231464.04042  23364641.375    23364640.110
  21538339.429   -23035434.76043 -17900819.99642  21538341.429    21538339.323
  22661636.850   -15677214.90643 -12199679.62942  22661638.951    22661637.001
  20600915.998   -29987287.52244 -23305122.14842  20600918.083    20600913.682
  20349967.456   -29305894.83543 -22811995.86342  20349969.651    20349965.435
  23452236.683   -11769290.26443  -9109351.63942  23452238.770    23452236.902
 04  2 27  0 27  0.0000000  0  9G26G29G22G 3G15G 6G21G18G16
  22684035.604   -17286026.88043 -12541646.57242  22684038.096    22684035.608
  24385341.250    -5749144.09143  -4465976.22042  24385343.626    24385342.139
  21411352.121   -19207369.23044 -14942886.16742  21411353.141    21411348.206
  23347872.879   -10668850.93243  -8300118.35342  23347875.178    23347873.862
  21527131.833   -23094330.83143 -17946712.99042  21527133.827    21527131.726
  22680102.876   -15580175.61443 -12124064.65242  22680104.963    22680103.034
  20602974.386   -29976470.82744 -23296693.55242  20602976.414    20602972.025
  20350992.197   -29300509.81243 -22807799.72442  20350994.367    20350990.171
  23460647.034   -11725093.51043  -9074912.64042  23460649.083    23460647.294
 04  2 27  0 27 30.0000000  0  9G26G29G22G 3G15G 6G21G18G16
  22697206.195   -17216815.01243 -12487715.25442  22697208.739    22697206.172
  24400949.412    -5667122.67743  -4402063.44042  24400951.721    24400950.214
  21401119.130   -19261143.73344 -14984788.33142  21401120.142    21401115.210
  23331159.424   -10756680.40043  -8368556.80342  23331161.722    23331160.384
  21515950.296   -23153090.08143 -17992499.36942  21515952.279    21515950.183
  22698618.775   -15482874.08343 -12048245.31442  22698620.897    22698618.931
  20605080.590   -29965402.52844 -23288068.89742  20605082.673    20605078.247
  20352092.724   -29294726.42843 -22803293.17542  20352094.912    20352090.685
  23469133.208   -11680499.06143  -9040163.74542  23469135.202    23469133.356
 04  2 27  0 28  0.0000000  0  9G26G29G22G 3G15G 6G21G18G16
  22710477.449   -17147074.27043 -12433371.83442  22710479.948    22710477.414
  24416620.099    -5584772.67443  -4337894.61242  24416622.349    24416620.823
  21390955.749   -19314552.42944 -15026405.44742  21390956.782    21390951.819
  23314498.752   -10844232.34043  -8436779.01742  23314501.112    23314499.699
  21504794.494   -23211713.89143 -18038180.21442  21504796.481    21504794.400
  22717183.711   -15385314.96943 -11972225.28742  22717185.821    22717183.855
  20607234.585   -29954083.15644 -23279248.60142  20607236.665    20607232.234
  20353268.529   -29288547.51043 -22798478.42042  20353270.712    20353266.479
  23477694.170   -11635511.13443  -9005108.22142  23477696.182    23477694.324
 04  2 27  0 28 30.0000000  0  9G26G29G22G 3G15G 6G21G18G16
  22723848.995   -17076806.23143 -12378617.54242  22723851.581    22723848.988
  24432353.050    -5502095.66543  -4273470.97942  24432355.305    24432353.713
  21380862.134   -19367594.59744 -15067736.95942  21380863.138    21380858.185
  23297891.537   -10931503.54543  -8504782.46842  23297893.877    23297892.461
  21493664.699   -23270201.07243 -18083754.59542  21493666.672    21493664.597
  22735797.475   -15287499.18543 -11896005.23742  22735799.587    22735797.636
  20609436.545   -29942511.84844 -23270231.99342  20609438.609    20609434.185
  20354519.546   -29281973.43543 -22793355.74842  20354521.704    20354517.481
  23486329.691   -11590131.26243  -8969747.30742  23486331.629    23486329.838
 04  2 27  0 29  0.0000000  0  9G26G29G22G 3G15G 6G21G18G16
  22737320.973   -17006010.28243 -12323451.86442  22737323.587    22737321.125
  24448148.357    -5419090.85143  -4208791.90642  24448150.645    24448149.048
  21370838.920   -19420266.79744 -15108780.18442  21370839.916    21370834.949
  23281338.855   -11018488.16443  -8572562.61042  23281341.215    23281339.721
  21482561.744   -23328547.38943 -18129219.21442  21482563.695    21482561.599
  22754460.154   -15189426.34543 -11819584.89742  22754462.259    22754460.308
  20611687.153   -29930684.70744 -23261016.03242  20611689.243    20611684.815
  20355846.135   -29275002.05643 -22787923.49242  20355848.311    20355844.080
  23495039.865   -11544358.79643  -8934080.48342  23495041.791    23495039.980
 04  2 27  0 29 30.0000000  0  9G26G29G22G 3G15G 6G21G18G16
  22750891.642   -16934696.01643 -12267882.31742  22750894.262    22750891.735
  24464004.224    -5335767.88343  -4143864.92442  24464006.514    24464004.833
  21360884.776   -19472575.97844 -15149540.53442  21360885.763    21360880.785
  23264839.746   -11105191.29943  -8640123.40842  23264842.119    23264840.596
  21471484.351   -23386759.21143 -18174579.02942  21471486.321    21471484.197
  22773170.120   -15091104.85043 -11742970.80142  22773172.252    22773170.322
  20613985.169   -29918608.54744 -23251606.03042  20613987.281    20613982.822
  20357246.678   -29267642.05843 -22782188.41942  20357248.850    20357244.631
  23503822.982   -11498203.40243  -8898115.26142  23503824.854    23503823.123
 04  2 27  0 30  0.0000000  0  9G26G29G22G 3G15G 6G21G18G16
  22764561.842   -16862858.63643 -12211905.14242  22764564.461    22764561.955
  24479921.557    -5252121.79543  -4078686.14442  24479923.862    24479922.086
  21351001.164   -19524514.51744 -15190012.07642  21351002.168    21350997.153
  23248396.138   -11191602.75343  -8707456.93742  23248398.489    23248396.959
  21460434.160   -23444828.04243 -18219827.41842  21460436.129    21460434.008
  22791928.390   -14992529.84743 -11666159.16542  22791930.504    22791928.578
  20616332.232   -29906274.75544 -23241995.27342  20616334.297    20616329.865
  20358722.366   -29259887.10543 -22776145.58642  20358724.553    20358720.322
  23512679.911   -11451660.01743  -8861847.70342  23512681.830    23512680.097
 04  2 27  0 30 30.0000000  0  9G26G29G22G 3G15G 6G21G18G16
  22778329.828   -16790507.36543 -12155527.54342  22778332.494    22778329.984
  24495898.616    -5168161.84443  -4013262.78342  24495900.928    24495899.210
  21341186.755   -19576089.43844 -15230200.27742  21341187.751    21341182.725
  23232007.135   -11277727.16643  -8774566.79242  23232009.494    23232007.964
  21449410.012   -23502760.19943 -18264969.31742  21449411.981    21449409.827
  22810733.122   -14893710.63643 -11589157.23042  22810735.253    22810733.323
  20618726.990   -29893690.07044 -23232189.01542  20618729.094    20618724.643
  20360271.710   -29251745.19943 -22769801.23542  20360273.896    20360269.677
  23521608.867   -11404738.06043  -8825285.18542  23521610.855    23521609.034
 04  2 27  0 31  0.0000000  0  9G26G29G22G 3G15G 6G21G18G16
  22792196.091   -16717639.59143 -12098747.47942  22792198.804    22792196.267
  24511935.906    -5083885.17443  -3947592.64042  24511938.137    24511936.518
  21331442.632   -19627294.96144 -15270100.63542  21331443.639    21331438.570
  23215674.282   -11363556.59243  -8841446.79542  23215676.602    23215675.118
  21438413.048   -23560549.45643 -18309999.85542  21438415.024    21438412.851
  22829584.974   -14794643.68243 -11511962.25242  22829587.140    22829585.209
  20621170.620   -29880848.51144 -23222182.59742  20621172.737    20621168.285
  20361895.482   -29243212.32743 -22763152.23342  20361897.655    20361893.416
  23530610.399   -11357434.63843  -8788425.39742  23530612.480    23530610.591
 04  2 27  0 31 30.0000000  0  9G26G29G22G 3G15G 6G21G18G16
  22806159.700   -16644260.54043 -12041569.00742  22806162.319    22806159.839
  24528032.456    -4999297.08343  -3881679.80042  24528034.710    24528033.138
  21321768.303   -19678133.83144 -15309715.28842  21321769.294    21321764.204
  23199397.571   -11449091.20743  -8908097.07942  23199399.852    23199398.293
  21427442.913   -23618197.82743 -18354920.62042  21427444.894    21427442.668
  22848483.005   -14695333.99343 -11434578.14142  22848485.212    22848483.293
  20623662.734   -29867752.21344 -23211977.67742  20623664.891    20623660.434
  20363592.858   -29234292.55043 -22756201.74842  20363595.024    20363590.774
  23539683.551   -11309755.10143  -8751272.52842  23539685.612    23539683.654
 04  2 27  0 32  0.0000000  0  9G26G29G22G 3G15G 6G21G18G16
  22820220.427   -16570370.74743 -11983992.55042  22820223.123    22820220.670
  24544188.285    -4914397.84643  -3815524.53042  24544190.610    24544189.059
  21312164.133   -19728603.73044 -15349042.42842  21312165.124    21312160.014
  23183177.719   -11534326.53943  -8974514.14342  23183180.057    23183178.488
  21416500.172   -23675702.28343 -18399729.24342  21416502.138    21416499.892
  22867427.296   -14595781.46943 -11357004.80842  22867429.414    22867427.582
  20626203.899   -29854398.37044 -23201572.07742  20626206.040    20626201.569
  20365364.013   -29224985.02743 -22748949.12342  20365366.180    20365361.928
  23548828.197   -11261699.91643  -8713826.96042  23548830.231    23548828.269
 04  2 27  0 32 30.0000000  0  9G26G29G22G 3G15G 6G21G18G16
  22834377.619   -16495974.30543 -11926021.31242  22834380.288    22834377.885
  24560402.499    -4829191.54243  -3749130.00342  24560404.821    24560403.198
  21302629.893   -19778706.18544 -15388083.24842  21302630.894    21302625.762
  23167015.097   -11619261.45943  -9040697.13442  23167017.388    23167015.830
  21405584.647   -23733063.41343 -18444426.18342  21405586.648    21405584.376
  22886417.024   -14495990.16243 -11279245.40042  22886419.094    22886417.308
  20628793.850   -29840787.89044 -23190966.50142  20628796.017    20628791.551
  20367208.484   -29215292.30443 -22741396.34442  20367210.639    20367206.390
  23558043.581   -11213273.07343  -8676091.79142  23558045.592    23558043.619
 04  2 27  0 33  0.0000000  0  9G26G29G22G 3G15G 6G21G18G16
  22848630.877   -16421072.99543 -11867656.66642  22848633.540    22848631.122
  24576674.817    -4743679.70043  -3682497.38142  24576677.158    24576675.607
  21293165.782   -19828440.18144 -15426836.95742  21293166.771    21293161.644
  23150910.226   -11703892.81843  -9106643.57942  23150912.483    23150910.931
  21394696.747   -23790279.55543 -18489010.14442  21394698.746    21394696.444
  22905451.971   -14395961.00343 -11201300.66242  22905454.070    22905452.323
  20631432.901   -29826919.53044 -23180159.98042  20631435.078    20631430.607
  20369126.189   -29205214.62843 -22733543.60042  20369128.343    20369124.104
  23567329.368   -11164476.13443  -8638068.23642  23567331.344    23567329.479
 04  2 27  0 33 30.0000000  0  9G26G29G22G 3G15G 6G21G18G16
  22862979.542   -16345670.57743 -11808901.54342  22862982.100    22862979.771
  24593004.612    -4657865.90743  -3615629.45342  24593006.916    24593005.397
  21283771.557   -19877806.96244 -15465304.52642  21283772.543    21283767.393
  23134863.382   -11788219.36443  -9172352.51042  23134865.639    23134864.050
  21383836.340   -23847351.17343 -18533481.49142  21383838.348    21383836.027
  22924531.532   -14295697.53743 -11123173.33242  22924533.632    22924531.913
  20634120.951   -29812793.62444 -23169152.77642  20634123.128    20634118.654
  20371116.678   -29194754.46543 -22725392.81542  20371118.843    20371114.582
  23576684.798   -11115313.08343  -8599759.38942  23576686.817    23576684.867
 04  2 27  0 34  0.0000000  0  9G26G29G22G 3G15G 6G21G18G16
  22877423.296   -16269768.24843 -11749756.89842  22877425.845    22877423.531
  24609391.723    -4571751.17043  -3548527.07742  24609394.011    24609392.432
  21274447.551   -19926804.80544 -15503484.60742  21274448.528    21274443.370
  23118875.318   -11872237.05343  -9237820.77042  23118877.515    23118875.922
  21373003.953   -23904275.67143 -18577838.19842  21373005.942    21373003.610
  22943655.510   -14195200.72643 -11044864.19742  22943657.642    22943655.874
  20636858.475   -29798408.00944 -23157943.20042  20636860.611    20636856.138
  20373179.941   -29183911.86943 -22716944.02842  20373182.119    20373177.861
  23586109.713   -11065784.92143  -8561166.03542  23586111.797    23586109.703
 04  2 27  0 34 30.0000000  0  9G26G29G22G 3G15G 6G21G18G16
  22891961.336   -16193370.25843 -11690226.01642  22891963.907    22891961.639
  24625835.197    -4485339.68543  -3481193.38842  24625837.651    24625835.976
  21265193.384   -19975435.53044 -15541378.62542  21265194.374    21265189.196
  23102946.125   -11955945.09043  -9303047.73642  23102948.354    23102946.712
  21362199.379   -23961053.91043 -18622080.93942  21362201.351    21362199.019
  22962823.089   -14094474.70043 -10966376.45142  22962825.202    22962823.431
  20639645.248   -29783763.49244 -23146531.88242  20639647.368    20639642.879
  20375315.386   -29172689.94243 -22708199.65642  20375317.571    20375313.310
  23595603.309   -11015895.71643  -8522291.34742  23595605.324    23595603.322
 04  2 27  0 35  0.0000000  0  9G26G29G22G 3G15G 6G21G18G16
  22906593.551   -16116477.55143 -11630309.62442  22906596.103    22906593.847
  24642335.099    -4398632.05343  -3413628.98142  24642337.650    24642335.819
  21256009.450   -20023697.24844 -15578985.10742  21256010.420    21256005.265
  23087076.663   -12039339.40943  -9368030.24942  23087078.880    23087077.234
  21351423.074   -24017683.48743 -18666207.84342  21351425.080    21351422.709
  22982034.308   -13993519.17743 -10887709.86742  22982036.439    22982034.657
  20642481.623   -29768858.19744 -23134917.36542  20642483.726    20642479.276
  20377523.194   -29161087.78343 -22699158.99942  20377525.379    20377521.135
  23605165.435   -10965646.57443  -8483136.21842  23605167.469    23605165.494
 04  2 27  0 35 30.0000000  0  9G26G29G22G 3G15G 6G21G18G16
  22921319.125   -16039093.98943 -11570010.77042  22921321.706    22921319.465
  24658890.592    -4311632.39643  -3345837.03742  24658893.055    24658891.109
  21246895.483   -20071591.22544 -15616305.04042  21246896.469    21246891.291
  23071267.081   -12122418.71343  -9432767.29742  23071269.301    23071267.673
  21340675.036   -24074164.68043 -18710219.12342  21340677.021    21340674.646
  23001288.468   -13892337.79643 -10808867.29342  23001290.617    23001288.817
  20645367.470   -29753692.90544 -23123100.25642  20645369.588    20645365.145
  20379802.806   -29149108.24943 -22689824.28542  20379805.001    20379800.746
  23614795.383   -10915041.27743  -8443703.55542  23614797.413    23614795.390
 04  2 27  0 36  0.0000000  0  9G26G29G22G 3G15G 6G21G18G16
  22936137.632   -15961221.99243 -11509331.30142  22936140.236    22936138.019
  24675501.314    -4224342.28143  -3277818.75942  24675503.823    24675501.966
  21237851.603   -20119116.86944 -15653337.95642  21237852.584    21237847.430
  23055518.031   -12205180.07543  -9497256.58242  23055520.263    23055518.631
  21329955.546   -24130495.84943 -18754113.50142  21329957.514    21329955.133
  23020585.181   -13790932.80343 -10729850.47742  23020587.404    23020585.599
  20648303.022   -29738266.49944 -23111079.68042  20648305.137    20648300.696
  20382154.101   -29136752.09443 -22680196.09942  20382156.299    20382152.043
  23624492.683   -10864081.85343  -8403994.94342  23624494.729    23624492.681
 04  2 27  0 36 30.0000000  0  9G26G29G22G 3G15G 6G21G18G16
  22951047.987   -15882867.81343 -11448276.13042  22951050.586    22951048.322
  24692166.110    -4136768.23843  -3209579.21342  24692168.646    24692166.853
  21228877.105   -20166277.87144 -15690086.74142  21228878.086    21228872.934
  23039829.296   -12287624.61243  -9561499.00242  23039831.576    23039829.892
  21319264.091   -24186679.74443 -18797893.12642  21319266.060    21319263.662
  23039923.437   -13689309.92743 -10650663.88242  23039925.608    23039923.828
  20651287.749   -29722581.69044 -23098857.75142  20651289.856    20651285.402
  20384576.120   -29124024.36344 -22670278.37842  20384578.278    20384574.036
  23634256.143   -10812774.64143  -8364015.34242  23634258.128    23634256.029
 04  2 27  0 37  0.0000000  0  9G26G29G22G 3G15G 6G21G18G16
  22966050.986   -15804026.49443 -11386841.34042  22966053.618    22966051.340
  24708885.948    -4048904.94743  -3141114.31142  24708888.400    24708886.824
  21219973.446   -20213066.61444 -15726545.45442  21219974.437    21219969.290
  23024202.794   -12369742.14643  -9625486.60742  23024205.105    23024203.381
  21308602.196   -24242708.06643 -18841551.52342  21308604.208    21308601.787
  23059304.275   -13587463.20243 -10571302.86742  23059306.421    23059304.651
  20654323.185   -29706630.34844 -23086428.13442  20654325.297    20654320.845
  20387070.118   -29110918.21343 -22660065.77842  20387072.275    20387068.046
  23644086.638   -10761114.84243  -8323760.96942  23644088.665    23644086.544
 04  2 27  0 37 30.0000000  0  9G26G29G22G 3G15G 6G21G18G16
  22981145.512   -15724704.18943 -11325031.77242  22981148.157    22981145.915
  24725659.619    -3960758.03643  -3072428.39742  24725661.987    24725660.559
  21211140.023   -20259486.39844 -15762716.67442  21211141.017    21211135.861
  23008638.325   -12451533.65743  -9689220.18642  23008640.619    23008638.909
  21297969.455   -24298583.36443 -18885090.68942  21297971.465    21297969.043
  23078726.576   -13485398.53743 -10491772.02842  23078728.717    23078726.984
  20657408.790   -29690415.23844 -23073792.98442  20657410.926    20657406.459
  20389635.273   -29097438.22344 -22649561.88142  20389637.423    20389633.184
  23653983.175   -10709108.26343  -8283236.41942  23653985.199    23653983.101
 04  2 27  0 38  0.0000000  0  9G26G29G22G 3G15G 6G21G18G16
  22996330.328   -15644907.37743 -11262852.45142  22996333.005    22996330.761
  24742486.122    -3872334.02543  -3003526.58542  24742488.547    24742486.987
  21202376.082   -20305541.05044 -15798603.36942  21202377.060    21202371.913
  22993135.586   -12533000.73243  -9752700.94642  22993137.878    22993136.173
  21287365.285   -24354308.50543 -18928512.84542  21287367.288    21287364.872
  23098189.366   -13383121.24243 -10412075.49642  23098191.494    23098189.788
  20660543.958   -29673939.80044 -23060954.97742  20660546.085    20660541.629
  20392270.467   -29083590.11843 -22638771.13842  20392272.613    20392268.374
  23663944.499   -10656761.27843  -8242446.60642  23663946.462    23663944.475
 04  2 27  0 38 30.0000000  0  9G26G29G22G 3G15G 6G21G18G16
  23011605.614   -15564635.54943 -11200302.99542  23011608.229    23011606.030
  24759365.547    -3783632.11943  -2934408.21542  24759367.847    24759366.227
  21193682.181   -20351227.62944 -15834203.26042  21193683.152    21193678.006
  22977695.657   -12614137.80643  -9815924.56442  22977697.956    22977696.196
  21276790.496   -24409879.25943 -18971814.70842  21276792.504    21276790.089
  23117692.563   -13280631.71643 -10332213.59842  23117694.668    23117692.999
  20663729.412   -29657200.02244 -23047910.99342  20663731.576    20663727.090
  20394976.065   -29069372.01243 -22627692.08142  20394978.209    20394973.962
  23673970.668   -10604073.52043  -8201391.26442  23673972.668    23673970.679
 04  2 27  0 39  0.0000000  0  9G26G29G22G 3G15G 6G21G18G16
  23026970.532   -15483892.61643 -11137386.44142  23026973.100    23026970.887
  24776297.060    -3694656.00443  -2865076.20042  24776299.427    24776297.626
  21185058.172   -20396547.06444 -15869517.06842  21185059.111    21185053.959
  22962318.850   -12694943.14443  -9878889.69742  22962321.145    22962319.376
  21266245.080   -24465295.65843 -19014996.29642  21266247.073    21266244.660
  23137235.659   -13177932.48843 -10252188.30142  23137237.738    23137236.040
  20666965.150   -29640196.18244 -23034661.24642  20666967.302    20666962.825
  20397751.718   -29054785.79243 -22616326.18542  20397753.859    20397749.605
  23684061.083   -10551048.39243  -8160073.01642  23684063.114    23684061.098
 04  2 27  0 39 30.0000000  0  9G26G29G22G 3G15G 6G21G18G16
  23042424.933   -15402679.13343 -11074103.22642  23042427.548    23042425.221
  24793280.759    -3605405.88043  -2795530.63642  24793283.176    24793281.676
  21176504.424   -20441497.10844 -15904543.03642  21176505.389    21176500.223
  22947006.069   -12775412.15143  -9941592.76042  22947008.324    22947006.554
  21255729.632   -24520554.67643 -19058055.24842  21255731.610    21255729.178
  23156818.610   -13075023.61743 -10171999.65042  23156820.682    23156818.988
  20670251.684   -29622925.50244 -23021203.57342  20670253.812    20670249.303
  20400597.552   -29039830.67543 -22604672.83442  20400599.717    20400595.438
  23694215.563   -10497686.71943  -8118492.53742  23694217.577    23694215.579
 04  2 27  0 40  0.0000000  0  9G26G29G22G 3G15G 6G21G18G16
  23057967.932   -15321000.15843 -11010457.26542  23057970.520    23057968.257
  24810315.801    -3515886.61143  -2725775.39142  24810318.115    24810316.571
  21168020.477   -20486080.36344 -15939283.19642  21168021.447    21168016.262
  22931757.260   -12855544.72643 -10004033.65742  22931759.589    22931757.751
  21245243.879   -24575657.62843 -19100992.59242  21245245.825    21245243.413
  23176440.498   -12971910.25743 -10091651.64042  23176442.580    23176440.812
  20673588.607   -29605389.86644 -23007539.43942  20673590.739    20673586.219
  20403512.856   -29024510.73244 -22592735.20642  20403514.999    20403510.706
  23704433.047   -10443993.53043  -8076653.73942  23704435.029    23704433.102
 04  2 27  0 40 30.0000000  0  9G26G29G22G 3G15G 6G21G18G16
  23073599.154   -15238857.52843 -10946450.04442  23073601.776    23073599.424
  24827401.724    -3426099.72043  -2655811.59242  24827403.809    24827402.477
  21159606.483   -20530295.96444 -15973736.87142  21159607.468    21159602.291
  22916573.150   -12935337.65343 -10066209.90042  22916575.428    22916573.578
  21234788.193   -24630602.46443 -19143806.71842  21234790.139    21234787.729
  23196101.216   -12868592.71343 -10011144.53642  23196103.293    23196101.568
  20676976.262   -29587587.61044 -22993667.53942  20676978.394    20676973.883
  20406497.580   -29008825.85943 -22580513.21142  20406499.730    20406495.431
  23714713.339   -10389970.37743  -8034557.83542  23714715.287    23714713.434
 04  2 27  0 41  0.0000000  0  9G26G29G22G 3G15G 6G21G18G16
  23089318.164   -15156253.51443 -10882083.27742  23089320.757    23089318.491
  24844538.064    -3336046.98243  -2585640.61842  24844540.151    24844539.171
  21151262.641   -20574143.15244 -16007903.47442  21151263.621    21151258.412
  22901454.296   -13014787.66343 -10128118.93642  22901456.558    22901454.658
  21224362.904   -24685387.62443 -19186496.42542  21224364.863    21224362.411
  23215800.288   -12765073.51443  -9930480.27642  23215802.344    23215800.747
  20680414.862   -29569517.62744 -22979587.02142  20680416.982    20680412.477
  20409551.576   -28992776.99443 -22568007.58442  20409553.727    20409549.398
  23725056.099   -10335619.38343  -7992206.46442  23725058.015    23725056.163
 04  2 27  0 41 30.0000000  0  9G26G22G 3G14G15G 6G21G18G16
  23105124.193   -15073191.99943 -10817360.02642  23105126.766    23105124.610
  21142988.627   -20617623.26844 -16041784.04342  21142989.584    21142984.378
  22886400.952   -13093893.36543 -10189759.67642  22886403.183    22886401.287
  24661115.823    -6864240.78753  -5146561.03552  24661118.587    24661119.013
  21213967.965   -24740013.24543 -19229061.81142  21213969.909    21213967.472
  23235537.056   -12661356.12343  -9849661.60942  23235539.159    23235537.569
  20683904.348   -29551180.30944 -22965298.18942  20683906.446    20683901.955
  20412674.328   -28976366.53844 -22555220.19942  20412676.516    20412672.193
  23735460.387   -10280944.52043  -7949602.71042  23735462.297    23735460.475
 04  2 27  0 42  0.0000000  0  9G26G22G 3G14G15G 6G21G18G16
  23121017.222   -14989673.32543 -10752280.53642  23121019.808    23121017.663
  21134784.865   -20660734.09544 -16075376.85842  21134785.837    21134780.638
  22871414.026   -13172650.05743 -10251128.46042  22871416.206    22871414.328
  24639496.453    -6977849.98243  -5235087.36642  24639499.267    24639499.965
  21203604.049   -24794475.84043 -19271500.16242  21203605.990    21203603.542
  23255311.748   -12557439.50343  -9768687.68342  23255313.866    23255312.256
  20687445.250   -29532572.61244 -22950798.66942  20687447.351    20687442.889
  20415866.073   -28959593.73443 -22542150.46542  20415868.256    20415863.919
  23745926.257   -10225945.90343  -7906746.67842  23745928.144    23745926.417
 04  2 27  0 42 30.0000000  0  9G26G22G 3G14G15G 6G21G18G16
  23136996.079   -14905703.57143 -10686849.55542  23136998.728    23136996.570
  21126650.803   -20703478.81544 -16108684.39442  21126651.742    21126646.547
  22856493.374   -13251058.35443 -10312225.77242  22856495.572    22856493.645
  24617876.128    -7091464.60443  -5323617.93742  24617879.113    24617879.558
  21193270.739   -24848777.54843 -19313813.14342  21193272.697    21193270.250
  23275123.280   -12453329.22343  -9687562.87042  23275125.429    23275123.841
  20691037.169   -29513696.85944 -22936090.27242  20691039.271    20691034.817
  20419125.971   -28942462.82443 -22528801.68642  20419128.153    20419123.794
  23756452.634   -10170629.46843  -7863643.00342  23756454.523    23756452.864
 04  2 27  0 43  0.0000000  0  9G26G22G 3G14G15G 6G21G18G16
  23153060.047   -14821286.56943 -10621070.05742  23153062.757    23153060.633
  21118586.210   -20745858.45044 -16141707.44942  21118587.152    21118581.935
  22841639.262   -13329116.87343 -10373050.52542  22841641.437    22841639.572
  24596255.129    -7205083.28943  -5412151.82742  24596258.203    24596258.066
  21182968.021   -24902918.56543 -19356000.90242  21182969.967    21182967.508
  23294971.073   -12349028.73743  -9606289.82342  23294973.271    23294971.628
  20694680.051   -29494553.34244 -22921173.22742  20694682.141    20694677.689
  20422453.576   -28924976.11043 -22515175.65642  20422455.753    20422451.379
  23767038.754   -10114999.08743  -7820294.68442  23767040.597    23767039.096
 04  2 27  0 43 30.0000000  0  9G26G22G 3G14G15G 6G21G18G16
  23169209.438   -14736421.47843 -10554941.43042  23169212.135    23169209.905
  21110591.692   -20787869.82344 -16174443.54642  21110592.608    21110587.408
  22826852.846   -13406820.00643 -10433598.35942  22826854.999    22826853.091
  24574634.319    -7318699.92343  -5500684.02442  24574637.555    24574637.224
  21172696.715   -24956894.31043 -19398059.88142  21172698.674    21172696.233
  23314855.246   -12244537.13643  -9524867.86842  23314857.432    23314855.759
  20698374.534   -29475138.51844 -22906044.77342  20698376.640    20698372.180
  20425849.319   -28907131.17143 -22501270.49242  20425851.501    20425847.139
  23777684.776   -10059053.74843  -7776700.95442  23777686.703    23777685.228
 04  2 27  0 44  0.0000000  0  9G26G22G 3G14G15G 6G21G18G16
  23185443.253   -14651111.92743 -10488466.46442  23185445.942    23185443.758
  21102667.146   -20829513.47944 -16206893.10842  21102668.052    21102662.854
  22812134.400   -13484165.65543 -10493867.63642  22812136.555    22812134.632
  24553014.540    -7432312.15943  -5589212.86642  24553017.672    24553017.201
  21162456.990   -25010704.38343 -19439989.76442  21162458.933    21162456.495
  23334775.363   -12139856.64343  -9443298.71142  23334777.474    23334775.864
  20702120.748   -29455452.04044 -22890704.64342  20702122.833    20702118.388
  20429312.826   -28888930.17743 -22487087.88442  20429315.006    20429310.659
  23788390.054   -10002796.79343  -7732864.39642  23788392.092    23788390.580
 04  2 27  0 44 30.0000000  0  9G26G22G 3G14G15G 6G21G18G16
  23201760.238   -14565365.48943 -10421651.04742  23201762.847    23201760.771
  21094811.587   -20870794.46144 -16239060.07142  21094812.523    21094807.269
  22797483.524   -13561156.22443 -10553860.21942  22797485.689    22797483.730
  24531394.913    -7545922.37243  -5677740.13542  24531398.321    24531397.773
  21152248.104   -25064352.40143 -19481793.36842  21152250.046    21152247.568
  23354729.906   -12034994.93643  -9361588.36542  23354732.045    23354730.394
  20705917.816   -29435498.33544 -22875156.28442  20705919.883    20705915.454
  20432842.838   -28870379.72643 -22472632.97342  20432845.012    20432840.673
  23799153.224    -9946235.91143  -7688791.00742  23799155.259    23799153.750
 04  2 27  0 45  0.0000000  0  9G26G22G 3G14G15G 6G21G18G16
  23218160.935   -14479179.26043 -10354492.94842  23218163.454    23218161.440
  21087026.101   -20911707.29444 -16270940.15942  21087027.046    21087021.778
  22782901.778   -13637783.40243 -10613569.64142  22782904.001    22782901.967
  24509777.594    -7659521.78643  -5766258.96242  24509780.938    24509780.464
  21142071.312   -25117831.58543 -19523465.41542  21142073.274    21142070.762
  23374719.734   -11929948.01943  -9279733.69042  23374721.881    23374720.160
  20709767.019   -29415270.51944 -22859394.33442  20709769.108    20709764.631
  20436440.255   -28851475.09843 -22457902.08342  20436442.419    20436438.088
  23809974.816    -9889368.04043  -7644478.42242  23809976.842    23809975.352
 04  2 27  0 45 30.0000000  0  9G26G22G 3G14G15G 6G21G18G16
  23234644.520   -14392557.55743 -10286995.52042  23234647.018    23234645.025
  21079310.434   -20952253.29644 -16302534.40542  21079311.398    21079306.074
  22768389.385   -13714046.19943 -10672995.13342  22768391.626    22768389.562
  24488162.440    -7773109.53843  -5854768.78542  24488165.780    24488165.090
  21131926.578   -25171142.32043 -19565006.20242  21131928.568    21131926.013
  23394744.039   -11824719.99443  -9197737.90342  23394746.144    23394744.477
  20713668.216   -29394769.52244 -22843419.51442  20713670.315    20713665.809
  20440104.561   -28832219.00843 -22442897.32842  20440106.712    20440102.378
  23820854.050    -9832197.24943  -7599929.77242  23820856.002    23820854.681
 04  2 27  0 46  0.0000000  0  9G26G22G 3G14G15G 6G21G18G16
  23251210.194   -14305504.12743 -10219161.69542  23251212.754    23251210.749
  21071664.323   -20992433.83944 -16333843.88042  21071665.278    21071659.923
  22753946.582   -13789943.44643 -10732135.79142  22753948.837    22753946.719
  24466549.847    -7886684.01243  -5943268.25842  24466553.099    24466552.326
  21121813.881   -25224284.72843 -19606415.83342  21121815.871    21121813.302
  23414802.144   -11719314.42843  -9115603.76042  23414804.253    23414802.571
  20717621.330   -29373995.81044 -22827232.19042  20717623.407    20717618.907
  20443835.286   -28812613.82743 -22427620.55442  20443837.434    20443833.096
  23831790.235    -9774727.58343  -7555148.24842  23831792.116    23831790.898
 04  2 27  0 46 30.0000000  0  9G26G22G 3G14G15G 6G21G18G16
  23267857.180   -14218023.60443 -10150995.06142  23267859.752    23267857.725
  21064087.465   -21032250.40644 -16364869.73542  21064088.432    21064083.017
  22739573.511   -13865474.21243 -10790990.87342  22739575.749    22739573.604
  24444939.974    -8000243.86943  -6031756.28842  24444943.020    24444942.670
  21111733.208   -25277258.90043 -19647694.37142  21111735.188    21111732.606
  23434893.402   -11613734.59343  -9033333.85442  23434895.444    23434893.759
  20721626.168   -29352950.19444 -22810832.99642  20721628.241    20721623.727
  20447631.931   -28792662.24943 -22412073.85842  20447634.086    20447629.741
  23842782.473    -9716963.13743  -7510137.02542  23842784.349    23842783.096
 04  2 27  0 47  0.0000000  0  9G26G22G 3G14G15G 6G21G18G16
  23284585.260   -14130116.71043 -10082496.17542  23284587.856    23284585.828
  21056580.165   -21071701.40044 -16395610.72842  21056581.134    21056575.688
  22725271.069   -13940634.01843 -10849556.88942  22725273.255    22725271.100
  24423333.979    -8113784.33243  -6120229.28242  24423336.931    24423336.401
  21101685.079   -25330062.03143 -19688839.63242  21101687.042    21101684.444
  23455017.820   -11507980.59543  -8950928.21042  23455019.855    23455018.119
  20725683.194   -29331630.32644 -22794220.09942  20725685.264    20725680.726
  20451494.555   -28772364.03344 -22396257.05642  20451496.723    20451492.337
  23853830.639    -9658904.71743  -7464896.74442  23853832.491    23853831.187
 04  2 27  0 47 30.0000000  0  9G26G22G 3G14G15G 6G21G18G16
  23301394.292   -14041784.32543 -10013665.73042  23301396.904    23301394.846
  21049142.737   -21110785.11744 -16426065.53342  21049143.690    21049138.248
  22711040.021   -14015418.42743 -10907830.39442  22711042.171    22711040.055
  24401732.437    -8227300.79643  -6208683.47842  24401735.275    24401734.890
  21091670.096   -25382690.97343 -19729849.17042  21091672.051    21091669.440
  23475175.283   -11402052.63143  -8868387.02442  23475177.366    23475175.610
  20729792.941   -29310033.44444 -22777391.35542  20729794.995    20729790.466
  20455423.312   -28751718.32743 -22380169.48342  20455425.464    20455421.076
  23864934.596    -9600553.11643  -7419428.01642  23864936.407    23864935.145
 04  2 27  0 48  0.0000000  0  9G26G22G 3G14G15G 6G21G18G16
  23318282.894   -13953034.04343  -9944509.67442  23318285.480    23318283.460
  21041774.354   -21149506.06544 -16456237.65942  21041775.303    21041769.862
  22696880.058   -14089829.56243 -10965813.04242  22696882.169    22696880.018
  24380134.996    -8340795.25143  -6297120.56442  24380137.874    24380137.381
  21081687.611   -25435149.18243 -19770725.66942  21081689.575    21081686.936
  23495364.414   -11295958.10843  -8785716.04842  23495366.489    23495364.764
  20733954.665   -29288163.29044 -22760349.66842  20733956.746    20733952.204
  20459417.029   -28730731.17844 -22363815.85342  20459419.176    20459414.774
  23876092.948    -9541915.78943  -7373736.63442  23876094.824    23876093.414
 04  2 27  0 48 30.0000000  0  9G26G22G 3G14G15G 6G21G18G16
  23335251.157   -13863864.87343  -9875027.19442  23335253.881    23335251.769
  21034475.644   -21187860.90244 -16486124.50642  21034476.583    21034471.135
  22682792.287   -14163861.18943 -11023499.96442  22682794.412    22682792.219
  24358542.946    -8454261.13343  -6385535.33642  24358545.796    24358545.372
  21071738.576   -25487431.53743 -19811465.14242  21071740.553    21071737.895
  23515585.562   -11189695.53643  -8702914.12142  23515587.595    23515585.966
  20738169.242   -29266015.53944 -22743091.67542  20738171.326    20738166.774
  20463476.208   -28709400.05144 -22347194.18442  20463478.360    20463473.937
  23887305.871    -9482991.57843  -7327821.69342  23887307.752    23887306.375
 04  2 27  0 49  0.0000000  0  9G26G22G 3G14G15G 6G21G18G16
  23352297.705   -13774284.61443  -9805224.37942  23352300.417    23352298.345
  21027245.665   -21225854.48644 -16515729.85742  21027246.615    21027241.131
  22668776.154   -14237515.91843 -11080893.19842  22668778.312    22668776.115
  24336955.964    -8567700.53243  -6473929.48142  24336958.840    24336958.313
  21061822.272   -25539541.94144 -19852070.62942  21061824.245    21061821.570
  23535837.436   -11083271.40343  -8619986.30142  23535839.515    23535837.988
  20742435.864   -29243594.29644 -22725620.57442  20742437.924    20742433.376
  20467599.646   -28687731.25544 -22330309.40042  20467601.798    20467597.366
  23898571.895    -9423788.16243  -7281689.21042  23898573.764    23898572.425
 04  2 27  0 49 30.0000000  0  9G26G22G 3G14G15G 6G21G18G16
  23369423.122   -13684290.07243  -9735098.76542  23369425.839    23369423.786
  21020085.516   -21263481.11144 -16545049.26642  21020086.462    21020080.986
  22654833.409   -14310785.21843 -11137986.09942  22654835.563    22654833.358
  24315375.751    -8681104.87443  -6562296.29242  24315378.657    24315377.940
  21051940.082   -25591473.18944 -19892536.52142  21051942.035    21051939.360
  23556120.666   -10976682.52343  -8536930.11042  23556122.734    23556121.201
  20746755.665   -29220893.48744 -22707931.62842  20746757.740    20746753.169
  20471788.192   -28665720.21644 -22313157.93342  20471790.357    20471785.910
  23909891.736    -9364302.30543  -7235336.63942  23909893.638    23909892.217
 04  2 27  0 50  0.0000000  0  9G26G22G 3G14G15G 6G21G18G16
  23386626.019   -13593888.27043  -9664655.79742  23386628.669    23386626.645
  21012994.403   -21300745.08344 -16574086.09342  21012995.331    21012989.831
  22640963.652   -14383671.00443 -11194780.15442  22640965.841    22640963.596
  24293801.969    -8794475.34643  -6650636.71442  24293804.889    24293804.214
  21042091.373   -25643228.31444 -19932865.16842  21042093.344    21042090.672
  23576434.256   -10869934.56643  -8453749.97142  23576436.287    23576434.752
  20751128.233   -29197915.60244 -22690026.78042  20751130.293    20751125.697
  20476040.877   -28643372.13844 -22295743.83742  20476043.055    20476038.619
  23921263.972    -9304540.86643  -7188769.31842  23921265.900    23921264.505
 04  2 27  0 50 30.0000000  0  9G26G22G 3G14G15G 6G21G18G16
  23403905.788   -13503081.99643  -9593897.65842  23403908.505    23403906.597
  21005972.233   -21337646.58444 -16602840.47442  21005973.176    21005967.665
  22627167.387   -14456170.70943 -11251273.37542  22627169.536    22627167.323
  24272235.143    -8907809.13643  -6738948.54842  24272238.071    24272237.218
  21032276.485   -25694805.86044 -19973055.44642  21032278.455    21032275.772
  23596777.469   -10763030.17243  -8370447.92142  23596779.574    23596778.079
  20755553.589   -29174660.16844 -22671905.66342  20755555.641    20755551.053
  20480357.440   -28620688.37444 -22278068.17242  20480359.616    20480355.181
  23932688.226    -9244506.65443  -7141989.46242  23932690.120    23932688.666
 04  2 27  0 51  0.0000000  0  9G26G22G 3G14G15G 6G21G18G16
  23421262.020   -13411874.38343  -9522826.78042  23421264.680    23421262.895
  20999018.971   -21374186.12244 -16631312.80742  20999019.905    20999014.393
  22613445.017   -14528282.15343 -11307464.04842  22613447.121    22613444.905
  24250675.698    -9021103.70643  -6827229.80342  24250678.659    24250677.768
  21022495.555   -25746204.87644 -20013106.60242  21022497.534    21022494.849
  23617150.021   -10655971.81243  -8287025.91842  23617152.117    23617150.709
  20760031.803   -29151126.89344 -22653568.04042  20760033.898    20760029.286
  20484737.618   -28597670.45844 -22260132.12342  20484739.777    20484735.351
  23944163.763    -9184202.41343  -7094999.18942  23944165.679    23944164.392
 04  2 27  0 51 30.0000000  0  9G26G22G 3G14G15G 6G21G18G16
  23438695.023   -13320263.08043  -9451441.34942  23438697.699    23438695.994
  20992135.553   -21410358.55144 -16659499.08542  20992136.495    20992130.963
  22599797.985   -14599997.52143 -11363346.08942  22599800.114    22599797.891
  24229125.353    -9134351.11743  -6915474.27542  24229128.197    24229127.474
  21012749.784   -25797419.10044 -20053013.76942  21012751.763    21012749.075
  23637552.335   -10548756.95843  -8203481.96742  23637554.381    23637553.080
  20764564.023   -29127309.88144 -22635009.33142  20764566.116    20764561.512
  20489182.088   -28574314.57644 -22241932.72342  20489184.254    20489179.816
  23955691.130    -9123625.73543  -7047796.61442  23955693.089    23955691.803
 04  2 27  0 52  0.0000000  0  9G26G22G 3G14G15G 6G21G18G16
  23456203.093   -13228257.31543  -9379748.53842  23456205.738    23456204.132
  20985320.771   -21446170.42144 -16687404.40642  20985321.680    20985316.166
  22586225.580   -14671320.65643 -11418922.49842  22586227.738    22586225.497
  24207583.261    -9247554.90143  -7003684.78542  24207586.184    24207585.352
  21003038.200   -25848453.81244 -20092781.05342  21003040.164    21003037.472
  23657983.052   -10441392.95143  -8119821.77642  23657985.136    23657983.770
  20769149.172   -29103214.80944 -22616233.94842  20769151.264    20769146.652
  20493689.406   -28550628.51644 -22223476.03942  20493691.551    20493687.133
  23967268.544    -9062785.84843  -7000388.94242  23967270.554    23967269.357
 04  2 27  0 52 30.0000000  0  9G26G22G 3G14G15G 6G21G18G16
  23473785.387   -13135862.45143  -9307752.54942  23473787.884    23473786.246
  20978574.097   -21481624.35044 -16715030.81442  20978575.006    20978569.479
  22572727.788   -14742251.75343 -11474193.42342  22572729.941    22572727.694
  24186049.480    -9360714.77343  -7091861.09742  24186052.584    24186051.486
  20993360.546   -25899310.11544 -20132409.31042  20993362.513    20993359.832
  23678441.229   -10333884.79243  -8036049.25942  23678443.368    23678442.113
  20773786.920   -29078843.23144 -22597243.10542  20773789.012    20773784.425
  20498258.872   -28526615.71344 -22204764.75242  20498261.042    20498256.621
  23978895.131    -9001687.96143  -6952780.21842  23978897.154    23978895.878
 04  2 27  0 53  0.0000000  0  9G26G22G 3G14G15G 6G21G18G16
  23491442.369   -13043074.65843  -9235450.37142  23491444.847    23491443.134
  20971896.691   -21516714.18244 -16742373.51442  20971897.602    20971892.079
  22559306.316   -14812781.88643 -11529151.91042  22559308.458    22559306.180
  24164525.788    -9473821.17243  -7179995.70842  24164528.969    24164527.806
  20983718.392   -25949979.88944 -20171892.22142  20983720.358    20983717.674
  23698927.628   -10226228.15843  -7952161.05742  23698929.711    23698928.530
  20778478.652   -29054187.95744 -22578031.19942  20778480.747    20778476.175
  20502891.457   -28502271.26644 -22185795.03742  20502893.624    20502889.205
  23990571.516    -8940328.23943  -6904967.47942  23990573.501    23990572.247
 04  2 27  0 53 30.0000000  0  9G26G22G 3G14G15G 6G21G18G16
  23509172.789   -12949901.08743  -9162847.58642  23509175.241    23509173.463
  20965287.808   -21551444.03844 -16769435.71242  20965288.713    20965283.153
  22545960.848   -14882912.57843 -11583799.14342  22545963.023    22545960.674
  24143012.059    -9586875.70343  -7268089.90342  24143015.204    24143014.101
  20974111.127   -26000466.24144 -20211232.20042  20974113.108    20974110.420
  23719441.002   -10118429.84143  -7868162.43342  23719443.135    23719441.891
  20783223.699   -29029252.52244 -22558600.98442  20783225.814    20783221.235
  20507586.180   -28477600.14344 -22166570.76942  20507588.368    20507583.955
  24002296.315    -8878713.57843  -6856956.08142  24002298.335    24002297.238
 04  2 27  0 54  0.0000000  0  9G26G22G 3G14G15G 6G21G18G16
  23526976.361   -12856342.86143  -9089945.06642  23526978.908    23526976.924
  20958747.689   -21585812.45144 -16796216.27142  20958748.588    20958743.046
  22532692.148   -14952639.92843 -11638132.09242  22532694.334    22532691.929
  24121509.149    -9699873.60243  -7356139.98142  24121512.170    24121510.990
  20964539.408   -26050765.86944 -20250426.68442  20964541.383    20964538.683
  23739981.343   -10010489.93543  -7784053.49842  23739983.503    23739982.222
  20788022.583   -29004034.13544 -22538950.29042  20788024.702    20788020.132
  20512343.088   -28452602.36844 -22147091.96942  20512345.264    20512340.867
  24014069.459    -8816845.00043  -6808746.84642  24014071.671    24014070.407
 04  2 27  0 54 30.0000000  0  9G26G22G 3G14G15G 6G21G18G16
  23544852.527   -12762402.83643  -9016745.05342  23544855.144    23544853.164
  20952276.280   -21619819.85244 -16822715.52342  20952277.149    20952271.627
  22519500.704   -15021961.17843 -11692148.59742  22519502.872    22519500.452
  24100017.475    -9812812.26143  -7444143.92342  24100020.465    24100019.090
  20955003.492   -26100877.41744 -20289474.60642  20955005.452    20955002.745
  23760548.232    -9902410.72743  -7699835.99142  23760550.325    23760549.057
  20792875.425   -28978532.32544 -22519078.74042  20792877.545    20792872.952
  20517161.941   -28427279.06844 -22127359.50742  20517164.120    20517159.716
  24025890.591    -8754725.17043  -6760341.79842  24025892.748    24025891.473
 04  2 27  0 55  0.0000000  0  9G26G22G 3G14G15G 6G21G18G16
  23562800.763   -12668084.26443  -8943250.07242  23562803.416    23562801.373
  20945873.446   -21653466.78544 -16848933.88642  20945874.332    20945868.810
  22506386.824   -15090874.74343 -11745847.42542  22506389.004    22506386.574
  24078537.504    -9925689.08143  -7532099.63742  24078540.532    24078539.347
  20945503.454   -26150800.23444 -20328375.46542  20945505.461    20945502.729
  23781141.044    -9794194.94343  -7615512.08142  23781143.171    23781141.986
  20797782.258   -28952746.73044 -22498986.05542  20797784.364    20797779.782
  20522042.367   -28401632.06844 -22107374.81142  20522044.555    20522040.156
  24037758.959    -8692357.34243  -6711743.53042  24037761.060    24037759.679
 04  2 27  0 55 30.0000000  0  9G26G22G 3G14G15G 6G21G18G16
  23580820.137   -12573391.86543  -8869463.78942  23580822.768    23580820.749
  20939538.825   -21686755.22544 -16874872.90742  20939539.717    20939534.197
  22493350.707   -15159379.99843 -11799228.10442  22493352.868    22493350.432
  24057069.630   -10038502.99843  -7620006.41242  24057072.667    24057071.384
  20936039.220   -26200534.95644 -20367129.75842  20936041.237    20936038.512
  23801759.034    -9685847.05143  -7531085.21842  23801761.151    23801759.831
  20802742.868   -28926678.59844 -22478673.21242  20802744.973    20802740.394
  20526983.834   -28375664.33444 -22087140.19542  20526986.033    20526981.646
  24049673.548    -8629746.07843  -6662955.55242  24049675.636    24049674.237
 04  2 27  0 56  0.0000000  0  9G26G22G 3G14G15G 6G21G18G16
  23598910.486   -12478326.49443  -8795386.88742  23598913.164    23598911.090
  20933272.692   -21719683.75444 -16900531.47542  20933273.599    20933268.081
  22480393.094   -15227472.51743 -11852287.16142  22480395.283    22480392.793
  24035614.549   -10151249.37243  -7707860.49242  24035617.552    24035616.331
  20926611.474   -26250078.05644 -20405734.73442  20926613.484    20926610.726
  23822402.178    -9577366.68543  -7446555.11242  23822404.377    23822403.037
  20807757.777   -28900324.95544 -22458137.89042  20807759.886    20807755.314
  20531986.534   -28349375.00744 -22066654.98642  20531988.718    20531984.310
  24061634.278    -8566892.11043  -6613978.47442  24061636.332    24061634.894
 04  2 27  0 56 30.0000000  0  9G26G22G 3G14G15G 6G21G18G16
  23617071.012   -12382892.58243  -8721022.81542  23617073.622    23617071.604
  20927074.760   -21752254.00844 -16925910.86742  20927075.666    20927070.137
  22467514.170   -15295151.50543 -11905024.00042  22467516.389    22467513.876
  24014172.618   -10263926.66343  -7795660.77142  24014175.610    24014174.150
  20917220.076   -26299430.08144 -20444190.82142  20917222.063    20917219.328
  23843069.898    -9468757.22443  -7361924.43842  23843072.080    23843070.733
  20812826.838   -28873686.92044 -22437380.96342  20812828.924    20812824.332
  20537049.819   -28322767.33344 -22045921.71842  20537051.977    20537047.582
  24073640.400    -8503799.81043  -6564815.67542  24073642.504    24073640.959
 04  2 27  0 57  0.0000000  0  9G26G22G 3G14G15G 6G21G18G16
  23635301.144   -12287092.76143  -8646373.61442  23635303.821    23635301.715
  20920944.996   -21784466.08444 -16951011.15542  20920945.894    20920940.346
  22454714.419   -15362414.36143 -11957436.57642  22454716.623    22454714.155
  23992744.503   -10376531.82343  -7883404.84442  23992747.527    23992745.976
  20907865.383   -26348589.17344 -20482496.56942  20907867.380    20907864.647
  23863761.742    -9360020.99143  -7277194.97342  23863764.014    23863762.653
  20817950.179   -28846763.34944 -22416401.53842  20817952.290    20817947.695
  20542173.452   -28295842.48844 -22024941.30842  20542175.593    20542171.184
  24085691.412    -8440471.63043  -6515469.06742  24085693.479    24085692.000
 04  2 27  0 57 30.0000000  0  9G26G22G 3G14G15G 6G21G18G16
  23653600.258   -12190930.67843  -8571442.12642  23653602.885    23653600.802
  20914883.222   -21816320.76644 -16975832.95242  20914884.128    20914878.570
  22441994.295   -15429259.03243 -12009523.29542  22441996.458    22441994.010
  23971330.368   -10489062.95043  -7971091.23942  23971333.437    23971331.820
  20898547.610   -26397554.40044 -20520651.25642  20898549.564    20898546.853
  23884477.130    -9251161.43543  -7192369.40642  23884479.301    23884478.114
  20823127.896   -28819554.10544 -22395199.52442  20823130.034    20823125.420
  20547357.137   -28268601.97444 -22003714.92142  20547359.301    20547354.874
  24097786.725    -8376911.25143  -6465941.53742  24097788.713    24097787.140
 04  2 27  0 58  0.0000000  0  9G26G22G 3G14G15G 6G21G18G16
  23671967.693   -12094409.57443  -8496230.88342  23671970.308    23671968.187
  20908889.356   -21847818.65744 -17000376.72542  20908890.263    20908884.687
  22429354.094   -15495683.66243 -12061282.71242  22429356.243    22429353.774
  23949930.774   -10601517.10943  -8058717.65142  23949933.949    23949932.307
  20889266.828   -26446325.12644 -20558654.38442  20889268.761    20889266.041
  23905215.593    -9142180.17043  -7107448.99342  23905217.784    23905216.673
  20828360.008   -28792058.99544 -22373774.75142  20828362.168    20828357.557
  20552600.463   -28241048.03444 -21982244.30842  20552602.630    20552598.194
  24109925.556    -8313121.61943  -6416235.36942  24109927.518    24109925.887
 04  2 27  0 58 30.0000000  0  9G26G22G 3G14G15G 6G21G18G16
  23690403.086   -11997530.96243  -8420741.05542  23690405.686    23690403.561
  20902963.546   -21878958.82644 -17024641.75342  20902964.473    20902958.868
  22416794.485   -15561684.83743 -12112712.15942  22416796.628    22416794.124
  23928546.739   -10713890.15443  -8146280.86042  23928549.881    23928548.185
  20880023.575   -26494898.68044 -20596503.87542  20880025.479    20880022.770
  23925977.050    -9033078.25843  -7022434.60342  23925979.210    23925978.130
  20833646.959   -28764275.96044 -22352125.62042  20833649.065    20833644.505
  20557903.513   -28213180.22844 -21960529.12442  20557905.665    20557901.247
  24122107.702    -8249104.27643  -6366351.76242  24122109.675    24122108.107
 04  2 27  0 59  0.0000000  0  9G26G22G 3G14G15G 6G21G18G16
  23708905.658   -11900299.66943  -8344976.41742  23708908.195    23708906.067
  20897105.396   -21909743.48144 -17048629.75642  20897106.331    20897100.714
  22404315.515   -15627262.06743 -12163811.26242  22404317.662    22404315.168
  23907178.275   -10826181.37343  -8233780.30942  23907181.373    23907179.611
  20870817.734   -26543275.45444 -20634200.03242  20870819.646    20870816.944
  23946760.649    -8923860.24643  -6937329.71542  23946762.785    23946761.598
  20838988.461   -28736206.10944 -22330253.00142  20838990.560    20838986.002
  20563265.659   -28185001.81144 -21938571.91242  20563267.836    20563263.409
  24134332.270    -8184863.65143  -6316294.16042  24134334.227    24134332.722
 04  2 27  0 59 30.0000000  0  9G26G22G 3G14G15G 6G21G18G16
  23727474.879   -11802717.68743  -8268938.51942  23727477.428    23727475.351
  20891314.975   -21940172.19844 -17072340.40442  20891315.917    20891310.282
  22391917.848   -15692412.09943 -12214577.48242  22391919.965    22391917.493
  23885826.188   -10938387.03943  -8321213.11242  23885829.204    23885827.384
  20861649.703   -26591453.57744 -20671741.39542  20861651.615    20861648.911
  23967566.120    -8814526.84143  -6852134.92942  23967568.267    23967567.168
  20844384.798   -28707848.12144 -22308155.85742  20844386.890    20844382.349
  20568686.838   -28156513.12344 -21916372.93042  20568689.033    20568684.615
  24146598.915    -8120401.90543  -6266064.27542  24146600.852    24146599.412
 04  2 27  1  0  0.0000000  0  9G26G22G 3G14G15G 6G21G18G16
  23746110.464   -11704786.95843  -8192628.86142  23746113.104    23746110.927
  20885592.408   -21970244.28144 -17095773.15842  20885593.359    20885587.730
  22379602.147   -15757131.57243 -12265008.20342  22379604.244    22379601.767
  23864491.087   -11050503.29243  -8408576.27242  23864494.117    23864492.240
  20852520.021   -26639430.25044 -20709125.79242  20852521.924    20852519.239
  23988393.217    -8705079.71743  -6766851.51242  23988395.438    23988394.217
  20849836.317   -28679200.09944 -22285832.72142  20849838.417    20849833.860
  20574166.973   -28127714.79644 -21893932.67342  20574169.156    20574164.753
  24158907.329    -8055720.79843  -6215663.43742  24158909.367    24158907.741
 04  2 27  1  0 30.0000000  0  9G26G22G 3G14G15G 6G21G18G16
  23764811.306   -11606513.44843  -8116052.10042  23764813.942    23764811.766
  20879937.074   -21999963.15744 -17118930.68742  20879938.031    20879932.383
  22367368.241   -15821421.17643 -12315103.95842  22367370.305    22367367.816
  23843172.910   -11162530.12243  -8495869.74542  23843175.937    23843174.059
  20843428.328   -26687207.30644 -20746354.64042  20843430.247    20843427.540
  24009241.047    -8595524.16043  -6681483.62942  24009243.247    24009241.958
  20855342.660   -28650264.01144 -22263285.11642  20855344.762    20855340.226
  20579705.227   -28098611.06443 -21871254.43542  20579707.395    20579702.992
  24171256.402    -7990826.00543  -6165096.08542  24171258.489    24171256.781
 04  2 27  1  1  0.0000000  0  9G26G22G 3G14G15G 6G21G18G16
  23783577.359   -11507896.95443  -8039208.08742  23783579.956    23783577.852
  20874349.506   -22029325.89144 -17141810.70542  20874350.457    20874344.807
  22355217.122   -15885275.43243 -12364860.48342  22355219.216    22355216.722
  23821872.893   -11274461.71543  -8583089.03042  23821875.978    23821874.108
  20834375.469   -26734780.16444 -20783424.37342  20834377.412    20834374.723
  24030109.666    -8485859.24643  -6596030.53342  24030111.856    24030110.652
  20860904.487   -28621036.48644 -22240510.42042  20860906.552    20860902.046
  20585301.976   -28069199.98343 -21848336.70542  20585304.118    20585299.729
  24183646.195    -7925717.44543  -6114362.20642  24183648.250    24183646.544
 04  2 27  1  1 30.0000000  0  9G26G22G 3G14G15G 6G21G18G16
  23802407.229   -11408945.41443  -7962102.99042  23802409.805    23802407.676
  20868828.654   -22058338.03244 -17164417.53042  20868829.614    20868823.952
  22343148.284   -15948697.18443 -12414279.99342  22343150.396    22343147.941
  23800590.666   -11386300.30743  -8670235.87842  23800593.589    23800591.732
  20825360.818   -26782152.51144 -20820337.86642  20825362.723    20825360.032
  24050997.691    -8376092.10143  -6510497.76742  24050999.834    24050998.785
  20866520.903   -28591522.01944 -22217512.13042  20866522.969    20866518.451
  20590955.948   -28039488.06444 -21825184.55342  20590958.102    20590953.684
  24196075.201    -7860402.74843  -6063467.66342  24196077.215    24196075.607
 04  2 27  1  2  0.0000000  0  9G26G22G 3G14G15G 6G21G18G16
  23821301.136   -11309657.08843  -7884735.46942  23821303.751    23821301.584
  20863375.329   -22086995.25544 -17186747.80242  20863376.278    20863370.637
  22331163.064   -16011679.72243 -12463357.25942  22331165.135    22331162.728
  23779327.564   -11498038.29643  -8757304.32442  23779330.372    23779328.599
  20816385.422   -26829318.51344 -20857090.56642  20816387.305    20816384.600
  24071905.676    -8266220.19343  -6424883.36542  24071907.858    24071906.876
  20872192.943   -28561715.19344 -22194286.02942  20872195.018    20872190.508
  20596667.755   -28009472.13844 -21801795.50742  20596669.922    20596665.508
  24208543.731    -7794880.35243  -6012411.31842  24208545.727    24208544.104
 04  2 27  1  2 30.0000000  0  9G26G22G 3G14G15G 6G21G18G16
  23840258.930   -11210033.32743  -7807106.56442  23840261.565    23840259.381
  20857989.804   -22115296.19344 -17208800.45342  20857990.760    20857985.107
  22319262.207   -16074218.84543 -12512089.00142  22319264.304    22319261.912
  23758084.369   -11609671.18543  -8844290.90942  23758087.253    23758085.435
  20807449.871   -26876275.03444 -20893680.03942  20807451.775    20807449.024
  24092833.493    -8156243.78743  -6339187.54942  24092835.636    24092834.863
  20877921.099   -28531613.50844 -22170830.16842  20877923.183    20877918.677
  20602437.569   -27979151.55344 -21778169.06842  20602439.753    20602435.314
  24221051.601    -7729151.13143  -5961193.78142  24221053.596    24221051.946
 04  2 27  1  3  0.0000000  0  9G26G22G 3G14G15G 6G21G18G16
  23859278.429   -11110085.59143  -7729225.22242  23859280.940    23859278.735
  20852670.349   -22143250.02144 -17230582.62942  20852671.293    20852665.649
  22307444.517   -16136320.99743 -12560480.25742  22307446.624    22307444.193
  23736860.185   -11721204.75043  -8931200.12642  23736863.087    23736861.120
  20798552.836   -26923029.15744 -20930111.79742  20798554.727    20798551.970
  24113778.984    -8046174.31543  -6253419.20342  24113781.190    24113780.395
  20883703.883   -28501224.75344 -22147150.61642  20883705.978    20883701.462
  20608263.451   -27948536.23344 -21754312.96042  20608265.651    20608261.209
  24233596.586    -7663226.73243  -5909824.17942  24233598.574    24233596.982
 04  2 27  1  3 30.0000000  0  9G26G22G 3G14G15G 6G21G18G16
  23878360.048   -11009811.19043  -7651089.32842  23878362.521    23878360.362
  20847417.944   -22170851.55444 -17252090.29042  20847418.865    20847413.224
  22295711.455   -16197978.43743 -12608524.98642  22295713.564    22295711.122
  23715656.545   -11832630.41543  -9018025.24442  23715659.372    23715657.325
  20789695.682   -26969573.67444 -20966380.22742  20789697.563    20789694.800
  24134743.024    -7936008.01243  -6167575.41042  24134745.254    24134744.432
  20889542.431   -28470542.89744 -22123242.67542  20889544.535    20889540.037
  20614146.151   -27917622.40344 -21730224.24642  20614148.346    20614143.891
  24246179.290    -7597104.12943  -5858300.11142  24246181.274    24246179.723
 04  2 27  1  4  0.0000000  0  9G26G22G 3G14G15G 6G21G18G16
  23897503.472   -10909211.76143  -7572700.16042  23897506.054    23897503.717
  20842232.783   -22198099.69044 -17273322.57742  20842233.700    20842228.060
  22284063.673   -16259187.67843 -12656220.47442  22284065.791    22284063.328
  23694474.181   -11943943.92143  -9104762.98242  23694477.084    23694475.036
  20780878.915   -27015906.05944 -21002483.36042  20780880.759    20780878.011
  24155725.371    -7825745.53443  -6081656.66742  24155727.604    24155726.841
  20895437.132   -28439565.95044 -22099104.79042  20895439.244    20895434.736
  20620085.790   -27886409.42144 -21705902.42742  20620087.986    20620083.519
  24258799.425    -7530785.07943  -5806622.99142  24258801.238    24258799.897
 04  2 27  1  4 30.0000000  0  9G26G22G 3G14G15G 6G21G18G16
  23916707.030   -10808296.23943  -7494064.71342  23916709.757    23916707.342
  20837113.623   -22225000.96244 -17294284.58442  20837114.546    20837108.893
  22272500.509   -16319952.38943 -12703569.56242  22272502.613    22272500.173
  23673312.622   -12055148.57143  -9191415.90742  23673315.433    23673313.410
  20772101.604   -27062030.98644 -21038424.83642  20772103.457    20772100.701
  24176724.286    -7715395.76143  -5995669.91042  24176726.594    24176725.699
  20901386.980   -28408299.30644 -22074741.17042  20901389.076    20901384.576
  20626080.887   -27854904.97644 -21681353.49342  20626083.102    20626078.589
  24271455.305    -7464278.26043  -5754799.52342  24271456.973    24271455.612
 04  2 27  1  5  0.0000000  0  9G26G22G 3G14G15G 6G21G18G16
  23935971.121   -10707062.80243  -7415181.51742  23935973.832    23935971.443
  20832061.296   -22251551.03044 -17314972.92142  20832062.214    20832056.548
  22261023.295   -16380265.40643 -12750566.68642  22261025.389    22261022.936
  23652173.229   -12166236.48343  -9277977.85842  23652175.982    23652174.014
  20763365.009   -27107942.05344 -21074199.66742  20763366.866    20763364.090
  24197740.450    -7604955.49043  -5909612.62142  24197742.662    24197741.802
  20907392.967   -28376737.46643 -22050147.52042  20907395.082    20907390.597
  20632132.098   -27823105.62444 -21656574.76142  20632134.300    20632129.804
  24284147.297    -7397581.62443  -5702828.16842  24284148.998    24284147.561
 04  2 27  1  5 30.0000000  0  9G26G22G 3G14G15G 6G21G18G16
  23955295.206   -10605514.24543  -7336052.78542  23955297.916    23955295.449
  20827075.733   -22277750.25444 -17335387.87442  20827076.652    20827070.976
  22249632.413   -16440124.64743 -12797210.21242  22249634.528    22249632.044
  23631056.637   -12277204.85143  -9364446.65042  23631059.392    23631057.370
  20754669.364   -27153637.73944 -21109806.67042  20754671.247    20754668.471
  24218773.247    -7494427.33043  -5823486.84142  24218775.399    24218774.778
  20913455.266   -28344879.78344 -22025323.35042  20913457.382    20913452.908
  20638239.214   -27791012.42344 -21631567.05742  20638241.430    20638236.908
  24296874.866    -7330698.13443  -5650711.19442  24296876.490    24296875.190
 04  2 27  1  6  0.0000000  0  9G26G22G 3G14G15G 6G21G18G16
  23974677.892   -10503657.79643  -7256684.14042  23974680.527    23974678.084
  20822156.007   -22303603.46044 -17355533.20342  20822156.924    20822151.241
  22238327.457   -16499532.50743 -12843502.02842  22238329.592    22238327.057
  23609962.489   -12388055.13343  -9450823.44642  23609965.278    23609963.101
  20746014.187   -27199120.98644 -21145248.13342  20746016.068    20746013.273
  24239821.703    -7383817.87343  -5737297.73642  24239823.744    24239823.029
  20919573.291   -28312729.29843 -22000271.02242  20919575.415    20919570.927
  20644401.159   -27758631.18944 -21606334.91142  20644403.377    20644398.838
  24309636.580    -7263634.82343  -5598454.09142  24309638.259    24309636.894
 04  2 27  1  6 30.0000000  0  9G26G22G 3G14G15G 6G21G18G16
  23994118.810   -10401495.01443  -7177076.77842  23994121.402    23994118.969
  20817302.373   -22329109.29944 -17375407.85242  20817303.311    20817297.629
  22227109.100   -16558485.33043 -12889439.25042  22227111.237    22227108.656
  23588891.534   -12498782.90843  -9537104.74242  23588894.461    23588892.293
  20737399.954   -27244388.82844 -21180521.74742  20737401.848    20737399.066
  24260885.490    -7273127.31043  -5651045.41742  24260887.524    24260886.809
  20925747.332   -28280284.53844 -21974989.38442  20925749.453    20925744.946
  20650617.957   -27725961.70144 -21580878.15342  20650620.154    20650615.604
  24322432.298    -7196393.05943  -5546057.95542  24322434.051    24322432.703
 04  2 27  1  7  0.0000000  0  9G26G22G 3G14G15G 6G21G18G16
  24013617.854   -10299026.74343  -7097231.38842  24013620.557    24013618.036
  20812515.158   -22354266.16344 -17395010.57442  20812516.076    20812510.399
  22215978.143   -16616978.66643 -12935018.44142  22215980.329    22215977.679
  23567844.926   -12609383.33443  -9623286.80942  23567847.774    23567845.669
  20728827.396   -27289437.82744 -21215624.83242  20728829.292    20728826.525
  24281964.635    -7162355.79943  -5564730.01642  24281966.638    24281966.101
  20931977.949   -28247542.29644 -21949475.94442  20931980.079    20931975.578
  20656889.729   -27693003.16644 -21555196.16742  20656891.946    20656887.400
  24335261.896    -7128973.29843  -5493523.13342  24335263.557    24335262.353
 04  2 27  1  7 30.0000000  0  9G26G22G 3G14G15G 6G21G18G16
  24033174.670   -10196254.91743  -7017149.45542  24033177.324    24033174.830
  20807794.372   -22379073.83544 -17414341.19642  20807795.312    20807789.616
  22204935.255   -16675009.37443 -12980237.13142  22204937.431    22204934.758
  23546823.232   -12719852.64943  -9709366.70142  23546826.024    23546823.930
  20720296.954   -27334265.55844 -21250555.50142  20720298.842    20720296.056
  24303058.860    -7051504.98043  -5478352.81142  24303060.903    24303060.332
  20938265.367   -28214501.66144 -21923729.98842  20938267.505    20938262.996
  20663216.389   -27659756.34344 -21529289.54442  20663218.624    20663214.048
  24348124.882    -7061377.92343  -5440851.45342  24348126.644    24348125.436
 04  2 27  1  8  0.0000000  0  9G26G22G 3G14G15G 6G21G18G16
  24052787.460   -10093188.59743  -6936838.04342  24052790.185    24052787.729
  20803138.788   -22403538.92644 -17433404.87442  20803139.725    20803134.028
  22193979.633   -16732581.49443 -13025098.48542  22193981.793    22193979.115
  23525825.898   -12830193.95743  -9795346.82742  23525828.695    23525826.589
  20711807.662   -27378876.95244 -21285317.59742  20711809.570    20711806.756
  24324166.610    -6940583.54743  -5391920.59642  24324168.574    24324168.001
  20944608.582   -28181167.75744 -21897755.50842  20944610.735    20944606.225
  20669596.512   -27626228.51544 -21503163.95742  20669598.736    20669594.168
  24361019.567    -6993615.69443  -5388049.75342  24361021.397    24361020.191
 04  2 27  1  8 30.0000000  0  9G26G22G 3G14G15G 6G21G18G16
  24072456.529    -9989827.04843  -6856296.56542  24072459.270    24072456.750
  20798548.999   -22427658.18744 -17452199.07342  20798549.945    20798544.231
  22183112.332   -16789689.23343 -13069597.98542  22183114.534    22183111.838
  23504854.167   -12940400.78043  -9881222.15642  23504856.888    23504854.899
  20703360.565   -27423266.64944 -21319906.94342  20703362.467    20703359.644
  24345288.047    -6829589.62043  -5305431.88442  24345290.138    24345289.577
  20951008.479   -28147536.05744 -21871548.97942  20951010.639    20951006.116
  20676030.628   -27592416.89244 -21476817.23442  20676032.865    20676028.286
  24373946.264    -6925685.86543  -5335117.47942  24373948.236    24373946.864
 04  2 27  1  9  0.0000000  0  9G26G22G 3G14G15G 6G21G18G16
  24092181.271    -9886173.22343  -6775527.36442  24092183.948    24092181.458
  20794024.958   -22451432.02944 -17470724.11542  20794025.908    20794020.172
  22172333.866   -16846330.42543 -13113733.94142  22172336.072    22172333.332
  23483908.664   -13050470.07943  -9966990.32442  23483911.337    23483909.295
  20694955.920   -27467433.20344 -21354322.40642  20694957.839    20694955.005
  24366423.087    -6718524.65043  -5218887.80642  24366425.069    24366424.615
  20957465.093   -28113606.30044 -21845110.20442  20957467.247    20957462.748
  20682518.476   -27558323.15244 -21450250.67742  20682520.665    20682516.103
  24386904.259    -6857591.07143  -5282056.63042  24386906.276    24386904.855
 04  2 27  1  9 30.0000000  0  9G26G22G 3G14G15G 6G21G18G16
  24111960.861    -9782231.07443  -6694533.51042  24111963.408    24111960.890
  20789566.296   -22474862.28844 -17488981.43042  20789567.241    20789561.506
  22161644.332   -16902504.34543 -13157505.79042  22161646.522    22161643.775
  23462989.529   -13160400.22743 -10052650.05242  23462992.124    23462990.138
  20686593.801   -27511376.38144 -21388563.81842  20686595.711    20686592.862
  24387570.800    -6607392.87643  -5132291.68542  24387572.918    24387572.300
  20963978.381   -28079378.81744 -21818439.42942  20963980.522    20963976.026
  20689059.468   -27523949.89744 -21423466.31642  20689061.672    20689057.121
  24399892.974    -6789335.42343  -5228870.45142  24399894.898    24399893.482
 04  2 27  1 10  0.0000000  0  9G26G22G 3G14G15G 6G21G18G16
  24131794.835    -9678002.98543  -6613316.82842  24131797.345    24131794.738
  20785173.060   -22497948.81444 -17506970.90442  20785173.996    20785168.260
  22151044.262   -16958208.18943 -13200911.34742  22151046.432    22151043.644
  23442097.438   -13270188.00843 -10138198.83242  23442100.118    23442098.229
  20678274.643   -27555093.78244 -21422629.29642  20678276.546    20678273.703
  24408731.010    -6496195.47443  -5045644.41342  24408733.124    24408732.647
  20970548.553   -28044852.33143 -21791535.67042  20970550.668    20970546.170
  20695653.582   -27489297.56244 -21396464.49142  20695655.799    20695651.236
  24412911.821    -6720920.96643  -5175560.56442  24412913.901    24412912.297
 04  2 27  1 10 30.0000000  0  9G26G22G 3G14G15G 6G21G18G16
  24151682.229    -9573493.98643  -6531881.25442  24151684.696    24151682.217
  20780844.727   -22520694.13044 -17524694.49942  20780845.691    20780839.953
  22140533.564   -17013441.97443 -13243950.62242  22140535.748    22140532.961
  23421232.716   -13379832.22043 -10223635.73442  23421235.373    23421233.490
  20669998.267   -27598586.25844 -21456519.50942  20670000.173    20669997.328
  24429902.924    -6384936.71043  -4958949.33642  24429904.988    24429904.571
  20977175.340   -28010028.34443 -21764400.09042  20977177.438    20977172.940
  20702300.115   -27454369.77543 -21369248.02942  20702302.305    20702297.763
  24425959.868    -6652352.70943  -5122130.79242  24425961.975    24425960.293
 04  2 27  1 11  0.0000000  0  9G26G22G 3G14G15G 6G21G18G16
  24171623.000    -9468704.51843  -6450227.10942  24171625.594    24171622.933
  20776581.765   -22543096.10744 -17542150.55542  20776582.725    20776576.978
  22130113.192   -17068201.26243 -13286620.16642  22130115.384    22130112.601
  23400396.277   -13489327.67543 -10308956.73542  23400398.980    23400397.053
  20661765.413   -27641850.00044 -21490231.48842  20661767.328    20661764.474
  24451086.371    -6273617.05743  -4872206.78842  24451088.612    24451088.004
  20983859.301   -27974903.80043 -21737030.30142  20983861.399    20983856.914
  20708999.213   -27419165.53944 -21341816.15542  20709001.440    20708996.892
  24439037.159    -6583631.05043  -5068581.50542  24439039.338    24439037.760
 04  2 27  1 11 30.0000000  0  9G26G22G 3G14G15G 6G21G18G16
  24191616.331    -9363638.71543  -6368357.67042  24191618.809    24191616.380
  20772383.793   -22565156.57544 -17559340.50342  20772384.717    20772378.966
  22119783.326   -17122485.09443 -13328919.23142  22119785.467    22119782.684
  23379588.417   -13598672.84743 -10394160.61142  23379591.255    23379589.316
  20653576.252   -27684884.20044 -21523764.60342  20653578.164    20653575.303
  24472280.863    -6162239.29243  -4785418.97242  24472283.071    24472282.600
  20990600.330   -27939479.44343 -21709426.90342  20990602.423    20990597.933
  20715750.540   -27383686.91944 -21314170.46942  20715752.785    20715748.260
  24452142.946    -6514760.09143  -5014915.84642  24452145.056    24452143.772
 04  2 27  1 12  0.0000000  0  9G26G22G 3G14G15G 6G21G18G16
  24211661.547    -9258300.53043  -6286275.95842  24211663.883    24211661.486
  20768250.474   -22586877.10044 -17576265.56042  20768251.411    20768245.673
  22109544.101   -17176292.37943 -13370846.95342  22109546.264    22109543.457
  23358809.642   -13707865.52743 -10479245.69342  23358812.454    23358810.526
  20645430.824   -27727688.64044 -21557118.68742  20645432.735    20645429.854
  24493485.827    -6050806.80343  -4698588.50942  24493487.880    24493487.682
  20997398.345   -27903755.66343 -21681590.18942  20997400.411    20997395.940
  20722553.653   -27347936.37844 -21286312.89842  20722555.873    20722551.372
  24465276.369    -6445743.42043  -4961136.65242  24465278.329    24465277.376
 04  2 27  1 12 30.0000000  0  9G26G22G 3G14G15G 6G21G18G16
  24231757.959    -9152693.10843  -6203984.46442  24231760.368    24231757.900
  20764181.705   -22608258.50444 -17592926.36642  20764182.642    20764176.897
  22099395.868   -17229621.52643 -13412402.10742  22099398.027    22099395.200
  23338060.252   -13816903.45643 -10564210.16942  23338063.064    23338061.145
  20637329.305   -27770262.30744 -21590292.94542  20637331.215    20637328.318
  24514700.858    -5939321.41543  -4611716.82942  24514702.975    24514702.597
  21004253.425   -27867731.98043 -21653519.78942  21004255.489    21004251.022
  20729408.152   -27311915.57344 -21258244.72742  20729410.391    20729405.912
  24478436.896    -6376584.43043  -4907246.59542  24478438.824    24478437.873
 04  2 27  1 13  0.0000000  0  9G26G22G 3G14G15G 6G21G18G16
  24251905.380    -9046817.30843  -6121483.84242  24251907.817    24251905.492
  20760177.789   -22629299.23744 -17609321.71042  20760178.703    20760172.936
  22089339.407   -17282468.57043 -13453581.59442  22089341.535    22089338.730
  23317341.318   -13925781.58643 -10649050.14142  23317344.093    23317342.163
  20629272.446   -27812601.30244 -21623284.34242  20629274.348    20629271.450
  24535925.800    -5827783.84343  -4524804.49242  24535927.981    24535927.465
  21011166.135   -27831405.42843 -21625213.38042  21011168.204    21011163.721
  20736314.258   -27275623.63344 -21229965.28142  20736316.505    20736312.053
  24491624.389    -6307283.73843  -4853246.12042  24491626.317    24491625.386
 04  2 27  1 13 30.0000000  0  8G26G22G 3G14G15G21G18G16
  24272104.884    -8940668.30343  -6038770.33542  24272107.303    24272105.154
  20756240.016   -22649992.22544 -17625446.08342  20756240.932    20756235.158
  22079376.490   -17334823.80543 -13494377.85342  22079378.664    22079375.839
  23296654.855   -14034489.23343 -10733757.28842  23296657.627    23296655.636
  20621261.982   -27854696.40344 -21656085.69242  20621263.908    20621260.990
  21018138.003   -27794768.00143 -21596664.73142  21018140.088    21018135.578
  20743273.153   -27239054.30944 -21201469.69142  20743275.389    20743270.942
  24504839.757    -6237836.51243  -4799131.43442  24504841.530    24504840.607
 04  2 27  1 14  0.0000000  0  8G26G22G 3G14G15G21G18G16
  24292351.817    -8834269.37443  -5955862.04742  24292354.321    24292352.145
  20752364.445   -22670358.31944 -17641315.73742  20752365.375    20752359.581
  22069503.708   -17386705.48343 -13534805.11042  22069505.882    22069503.071
  23275997.566   -14143043.85043 -10818345.16942  23276000.230    23275998.286
  20613294.351   -27896566.51344 -21688711.72742  20613296.254    20613293.349
  21025165.302   -27757839.41243 -21567889.20642  21025167.375    21025162.830
  20750280.703   -27202229.30344 -21172774.87242  20750282.963    20750278.502
  24518078.593    -6168265.89543  -4744920.63042  24518080.426    24518079.564
 04  2 27  1 14 30.0000000  0  8G26G22G 3G14G15G21G18G16
  24312648.100    -8727611.69543  -5872752.16142  24312650.714    24312648.212
  20748553.201   -22690386.42244 -17656922.02042  20748554.136    20748548.328
  22059723.668   -17438100.01543 -13574852.77242  22059725.831    22059722.998
  23255372.137   -14251430.92343 -10902802.52142  23255374.717    23255372.755
  20605372.044   -27938198.30144 -21721152.05642  20605373.951    20605371.043
  21032250.348   -27720607.30643 -21538877.16942  21032252.439    21032247.873
  20757338.974   -27165137.83944 -21143872.41742  20757341.209    20757336.782
  24531342.630    -6098562.84343  -4690606.57442  24531344.675    24531343.790
 04  2 27  1 15  0.0000000  0  8G26G22G 3G14G15G21G18G16
  24332992.782    -8620699.47043  -5789443.93942  24332995.243    24332992.883
  20744805.960   -22710078.29344 -17672266.30542  20744806.889    20744801.070
  22050036.364   -17489006.84943 -13614520.40342  22050038.529    22050035.724
  23234778.759   -14359648.97143 -10987128.15642  23234781.458    23234779.389
  20597495.177   -27979591.50244 -21753406.47142  20597497.059    20597494.153
  21039392.938   -27683072.51544 -21509629.27442  21039395.071    21039390.480
  20764447.415   -27127782.73944 -21114764.53542  20764449.655    20764445.220
  24544631.119    -6028731.57443  -4636192.66742  24544633.316    24544632.133
 04  2 27  1 15 30.0000000  0  8G26G22G 3G14G15G21G18G16
  24353385.036    -8513537.25243  -5705940.88142  24353387.580    24353385.361
  20741122.279   -22729436.11444 -17687350.29142  20741123.197    20741117.380
  22040441.921   -17539425.69743 -13653807.78342  22040444.114    22040441.320
  23214217.848   -14467696.74943 -11071321.10142  23214220.507    23214218.493
  20589663.611   -28020746.54944 -21785475.30942  20589665.480    20589662.571
  21046592.962   -27645236.09044 -21480146.33642  21046595.109    21046590.499
  20771605.432   -27090167.08544 -21085453.62242  20771607.651    20771603.217
  24557943.126    -5958776.67243  -4581682.37042  24557945.125    24557944.016
 04  2 27  1 16  0.0000000  0  8G26G22G 3G14G15G21G18G16
  24373825.011    -8406124.70843  -5622242.79842  24373827.541    24373825.251
  20737502.651   -22748457.24044 -17702171.91742  20737503.569    20737497.751
  22030941.387   -17589351.19343 -13692710.73442  22030943.567    22030940.798
  23193690.520   -14575567.90643 -11155376.44342  23193693.218    23193691.136
  20581878.291   -28061658.55044 -21817354.76642  20581880.162    20581877.253
  21053851.124   -27607094.05943 -21450425.27042  21053853.286    21053848.677
  20778813.440   -27052288.66144 -21055937.95342  20778815.671    20778811.236
  24571278.854    -5888697.48343  -4527075.27142  24571280.857    24571279.609
 04  2 27  1 16 30.0000000  0  7G22G 3G14G15G21G18G16
  20733950.272   -22767124.92944 -17716718.14242  20733951.199    20733945.390
  22021538.420   -17638764.05443 -13731214.23542  22021540.581    22021537.798
  23173200.615   -14683242.25943 -11239278.40542  23173203.354    23173201.353
  20574142.851   -28102308.43644 -21849029.97342  20574144.744    20574141.799
  21061170.842   -27568628.74343 -21420452.29742  21061172.995    21061168.398
  20786074.467   -27014131.60844 -21026205.17242  20786076.699    20786072.271
  24584640.856    -5818479.52243  -4472360.03642  24584642.878    24584641.799
 04  2 27  1 17  0.0000000  0  8G22G 3G14G15G 9G21G18G16
  20730454.604   -22785494.68144 -17731032.20942  20730455.539    20730449.725
  22012222.856   -17687717.37643 -13769359.64542  22012225.057    22012222.258
  23152738.301   -14790771.89443 -11323067.60342  23152741.101    23152738.940
  20566447.145   -28142749.58544 -21880542.52842  20566449.039    20566446.059
  24343694.872     -738920.25753   -559781.10552  24343694.187    24343693.697
  21068541.757   -27529894.33143 -21390269.63842  21068543.890    21068539.293
  20793377.831   -26975751.98944 -20996298.96142  20793380.063    20793375.655
  24598018.447    -5748180.66443  -4417581.73842  24598020.484    24598019.502
 04  2 27  1 17 30.0000000  0  8G22G 3G14G15G 9G21G18G16
  20727024.332   -22803520.78644 -17745078.49942  20727025.262    20727019.439
  22003003.932   -17736163.17743 -13807109.58842  22003006.077    22003003.301
  23132312.973   -14898107.46343 -11406705.60442  23132315.765    23132313.559
  20558800.279   -28182934.06044 -21911855.07842  20558802.177    20558799.179
  24332455.202     -797975.19143   -605797.77542  24332457.298    24332456.613
  21075972.800   -27490843.77643 -21359840.62742  21075974.971    21075970.363
  20800732.101   -26937104.90444 -20966184.33742  20800734.329    20800729.928
  24611419.508    -5677757.33943  -4362706.44842  24611421.557    24611420.761
 04  2 27  1 18  0.0000000  0  8G22G 3G14G15G 9G21G18G16
  20723658.429   -22821208.64044 -17758861.22142  20723659.341    20723653.530
  21993881.021   -17784104.05343 -13844466.08142  21993883.195    21993880.403
  23111924.013   -15005251.26843 -11490194.14342  23111926.861    23111924.705
  20551201.644   -28222865.10744 -21942970.15142  20551203.535    20551200.511
  24321278.795     -856708.41643   -651563.80642  24321281.093    24321279.937
  21083463.198   -27451481.49943 -21329168.71642  21083465.352    21083460.748
  20808136.092   -26898196.55944 -20935866.13742  20808138.320    20808133.930
  24624842.820    -5607217.19143  -4307740.13942  24624844.865    24624844.152
 04  2 27  1 18 30.0000000  0  8G22G 3G14G15G 9G21G18G16
  20720354.709   -22838569.62644 -17772389.24042  20720355.635    20720349.808
  21984852.394   -17831549.50243 -13881436.52642  21984854.566    21984851.807
  23091570.165   -15112211.03343 -11573539.29842  23091572.988    23091570.779
  20543649.471   -28262551.94544 -21973894.93042  20543651.364    20543648.334
  24310161.901     -915127.24143   -697084.84442  24310164.112    24310163.166
  21091010.927   -27411817.84243 -21298261.96642  21091013.096    21091008.491
  20815587.551   -26859038.72844 -20905353.53342  20815589.801    20815585.399
  24638285.767    -5536573.95643  -4252693.49742  24638287.714    24638287.241
 04  2 27  1 19  0.0000000  0  8G22G 3G14G15G 9G21G18G16
  20717114.018   -22855599.57144 -17785659.30642  20717114.930    20717109.078
  21975919.477   -17878492.27643 -13918015.28042  21975921.602    21975918.877
  23071252.807   -15218978.96043 -11656734.93642  23071255.619    23071253.490
  20536144.996   -28301988.16744 -22004624.42242  20536146.875    20536143.845
  24299106.529     -973223.54543   -742354.65042  24299109.265    24299107.251
  21098617.046   -27371847.34743 -21267116.11942  21098619.233    21098614.634
  20823087.127   -26819627.98344 -20874643.85442  20823089.395    20823084.987
  24651748.784    -5465825.22543  -4197564.64742  24651750.818    24651750.293
 04  2 27  1 19 30.0000000  0  8G22G 3G14G15G 9G21G18G16
  20713935.646   -22872302.05844 -17798674.20742  20713936.546    20713930.663
  21967081.833   -17924934.02043 -13954203.62242  21967083.981    21967081.280
  23050971.905   -15325555.45943 -11739781.42442  23050974.641    23050972.454
  20528687.847   -28341175.57644 -22035160.03542  20528689.746    20528686.702
  24288112.681    -1030997.31843   -787373.15542  24288114.812    24288113.372
  21106281.099   -27331572.65443 -21235733.23042  21106283.246    21106278.641
  20830634.025   -26779968.74444 -20843740.54242  20830636.281    20830631.869
  24665230.757    -5394976.98443  -4142358.28642  24665232.623    24665232.248
 04  2 27  1 20  0.0000000  0  8G22G 3G14G15G 9G21G18G16
  20710820.141   -22888674.10244 -17811431.62542  20710821.037    20710815.136
  21958340.676   -17970869.00143 -13989997.08442  21958342.797    21958340.109
  23030728.710   -15431933.70943 -11822673.43642  23030731.461    23030729.232
  20521279.115   -28380108.57744 -22065497.41242  20521281.013    20521277.983
  24277181.396    -1088441.38143   -832134.65442  24277183.631    24277182.433
  21114003.881   -27290989.18043 -21204109.73742  21114006.019    21114001.403
  20838228.748   -26740058.31644 -20812641.50142  20838230.998    20838226.555
  24678731.763    -5324028.54043  -4087073.81742  24678733.751    24678733.283
 04  2 27  1 20 30.0000000  0  8G22G 3G14G15G 9G21G18G16
  20707767.243   -22904717.09044 -17823932.63442  20707768.149    20707762.225
  21949696.055   -18016296.55443 -14025395.14842  21949698.191    21949695.518
  23010523.605   -15538111.86243 -11905409.52142  23010526.341    23010524.109
  20513918.896   -28418786.56344 -22095636.07442  20513920.814    20513917.775
  24266313.085    -1145553.44043   -876637.38642  24266315.718    24266314.922
  21121785.309   -27250097.43143 -21172246.03242  21121787.463    21121782.836
  20845870.841   -26699898.95644 -20781348.48442  20845873.072    20845868.605
  24692251.166    -5252983.41443  -4031714.01942  24692253.245    24692252.887
 04  2 27  1 21  0.0000000  0  7G22G 3G14G15G 9G21G18
  20704779.163   -22920419.38744 -17836168.16942  20704780.087    20704774.149
  21941150.699   -18061202.56443 -14060386.81042  21941152.833    21941150.154
  22990359.483   -15644074.82343 -11987977.94642  22990362.203    22990359.844
  20506609.917   -28457195.38444 -22125564.99742  20506611.810    20506608.805
  24255510.930    -1202318.05143   -920869.35742  24255513.661    24255512.918
  21129627.883   -27208884.58643 -21140132.12242  21129629.992    21129625.367
  20853562.311   -26659480.14044 -20749853.29542  20853564.513    20853560.043
 04  2 27  1 21 30.0000000  0  7G22G 3G14G15G 9G21G18
  20701849.845   -22935812.88944 -17848163.08242  20701850.765    20701844.834
  21932699.010   -18105616.29143 -14094994.87642  21932701.161    21932698.452
  22970230.911   -15749850.65743 -12070400.53142  22970233.679    22970231.278
  20499346.510   -28495364.86544 -22155307.42342  20499348.371    20499345.374
  24244769.914    -1258762.90343   -964852.28242  24244772.516    24244771.105
  21137525.693   -27167381.29843 -21107791.89642  21137527.798    21137523.176
  20861297.101   -26618833.59144 -20718180.65142  20861299.321    20861294.815
 04  2 27  1 22  0.0000000  0  7G22G 3G14G15G 9G21G18
  20698982.687   -22950879.82044 -17859903.52542  20698983.602    20698977.667
  21924344.883   -18149517.65343 -14129203.69942  21924347.003    21924344.265
  22950141.991   -15855418.39843 -12152661.00142  22950144.753    22950142.218
  20492132.426   -28533275.01344 -22184847.77142  20492134.286    20492131.295
  24234093.890    -1314866.47843  -1008569.51442  24234096.305    24234094.021
  21145482.420   -27125568.45943 -21075210.45842  21145484.527    21145479.893
  20869078.451   -26577942.28544 -20686317.28242  20869080.672    20869076.155
 04  2 27  1 22 30.0000000  0  7G22G 3G14G15G 9G21G18
  20696177.408   -22965621.54644 -17871390.56042  20696178.315    20696172.377
  21916088.282   -18192906.21643 -14163012.93742  21916090.401    21916087.679
  22930093.090   -15960775.88543 -12234757.61842  22930095.807    22930093.339
  20484967.859   -28570924.97744 -22214185.38342  20484969.717    20484966.708
  24223482.974    -1370626.43543  -1052018.79342  24223485.279    24223483.604
  21153497.987   -27083446.45243 -21042388.11242  21153500.070    21153495.438
  20876905.921   -26536808.53044 -20654264.99442  20876908.167    20876903.648
 04  2 27  1 23  0.0000000  0  7G22G 3G14G15G 9G21G18
  20693433.847   -22980039.03844 -17882624.94242  20693434.744    20693428.787
  21907929.619   -18235780.32643 -14196421.30342  21907931.718    21907928.979
  22910084.663   -16065920.41943 -12316688.31442  22910087.453    22910084.882
  20477853.073   -28608313.27144 -22243319.09942  20477854.927    20477851.932
  24212937.646    -1426040.10953  -1095198.00252  24212939.943    24212939.098
  21161572.319   -27041015.44443 -21009324.98242  21161574.418    21161569.790
  20884779.294   -26495433.61944 -20622024.78842  20884781.547    20884777.002
 04  2 27  1 23 30.0000000  0  7G22G 3G14G15G 9G21G18
  20690751.259   -22994135.88644 -17893609.47242  20690752.174    20690746.216
  21899868.594   -18278141.12943 -14229429.68742  21899870.703    21899867.971
  22890116.709   -16170852.13743 -12398453.18742  22890119.532    22890116.867
  20470787.821   -28645441.18644 -22272249.92142  20470789.698    20470786.693
  24202458.987    -1481106.94343  -1138107.03742  24202461.237    24202460.058
  21169705.064   -26998277.55543 -20976022.71942  21169707.172    21169702.550
  20892697.725   -26453821.91944 -20589600.06842  20892699.984    20892695.431
 04  2 27  1 24  0.0000000  0  7G22G 3G14G15G 9G21G18
  20688129.881   -23007911.19744 -17904343.45142  20688130.796    20688124.840
  21891905.820   -18319985.61143 -14262035.74242  21891907.954    21891905.194
  22870190.128   -16275566.87643 -12480048.97342  22870192.951    22870190.211
  20463772.748   -28682305.73744 -22300975.52442  20463774.614    20463771.575
  24192047.121    -1535822.37443  -1180742.35742  24192049.338    24192048.082
  21177896.561   -26955230.88143 -20942479.85142  21177898.679    21177894.039
  20900661.252   -26411973.27444 -20556990.72042  20900663.508    20900658.939
 04  2 27  1 24 30.0000000  0  7G22G 3G14G15G 9G21G18
  20685569.631   -23021365.32744 -17914827.15942  20685570.546    20685564.576
  21884041.725   -18361311.51543 -14294237.71742  21884043.852    21884041.096
  22850305.507   -16380060.98443 -12561472.86242  22850308.337    22850305.477
  20456808.124   -28718905.03244 -22329494.43342  20456809.978    20456806.941
  24181702.752    -1590182.62243  -1223101.01542  24181705.034    24181702.788
  21186147.051   -26911874.38643 -20908695.56442  21186149.127    21186144.502
  20908669.800   -26369888.11644 -20524197.07542  20908672.030    20908667.473
 04  2 27  1 25  0.0000000  0  7G22G 3G14G15G 9G21G18
  20683071.583   -23034492.44144 -17925056.05042  20683072.534    20683066.535
  21876277.854   -18402110.80543 -14326029.33842  21876279.979    21876277.215
  22830464.552   -16484325.45843 -12642717.79442  22830467.390    22830464.551
  20449895.519   -28755230.90444 -22357800.28742  20449897.371    20449894.331
  24171427.260    -1644178.42253  -1265175.68152  24171429.515    24171427.594
  21194457.820   -26868201.02243 -20874664.36942  21194459.885    21194455.271
  20916724.295   -26327561.51944 -20491215.29442  20916726.516    20916721.940
 04  2 27  1 25 30.0000000  0  7G22G 3G14G15G 9G21G18
  20680632.647   -23047309.09344 -17935043.02442  20680633.577    20680627.575
  21868611.435   -18442397.95443 -14357421.89242  21868613.562    21868610.804
  22810664.896   -16588373.15943 -12723793.85242  22810667.692    22810664.741
  20443032.240   -28791297.47844 -22385904.09442  20443034.106    20443031.077
  24161218.625    -1697822.32843  -1306975.81542  24161221.352    24161219.904
  21202825.908   -26824226.27643 -20840398.32742  21202827.986    21202823.387
  20924821.509   -26285010.38544 -20458058.55142  20924823.724    20924819.144
 04  2 27  1 26  0.0000000  0  8G22G 3G14G15G 9G21G31G18
  20678252.710   -23059815.70544 -17944788.40942  20678253.642    20678247.605
  21861042.857   -18482170.90443 -14388413.76742  21861045.005    21861042.234
  22790906.987   -16692201.11943 -12804698.64542  22790909.777    22790906.920
  20436218.694   -28827102.98344 -22413804.46942  20436220.528    20436217.477
  24151078.258    -1751110.96743  -1348499.30742  24151081.023    24151079.392
  21211251.528   -26779949.48443 -20805896.92442  21211253.557    21211248.973
  24393624.145    -4922050.27553  -3772084.39452  24393626.675    24393625.070
  20932961.243   -26242235.80044 -20424727.69042  20932963.458    20932958.872
 04  2 27  1 26 30.0000000  0  8G22G 3G14G15G 9G21G31G18
  20675935.160   -23071994.48444 -17954278.34042  20675936.074    20675930.034
  21853575.962   -18521409.48743 -14418989.25442  21853578.107    21853575.339
  22771195.082   -16795787.79743 -12885415.45742  22771197.814    22771194.802
  20429458.644   -28862627.09144 -22441485.57242  20429460.508    20429457.456
  24141009.651    -1804022.34043  -1389728.83642  24141012.291    24141010.596
  21219738.199   -26735351.64943 -20771145.36342  21219740.260    21219735.668
  24376141.728    -5013920.88743  -3843671.76142  24376144.125    24376142.689
  20941146.769   -26199220.50244 -20391209.26442  20941148.978    20941144.405
 04  2 27  1 27  0.0000000  0  8G22G 3G14G15G 9G21G31G18
  20673677.230   -23083859.93244 -17963524.11742  20673678.154    20673672.084
  21846208.414   -18560126.05543 -14449157.97942  21846210.567    21846207.774
  22751526.792   -16899144.34543 -12965952.91742  22751529.594    22751526.660
  20422749.838   -28897882.03944 -22468956.94142  20422751.687    20422748.632
  24131010.740    -1856567.28443  -1430672.88842  24131013.205    24131011.220
  21228283.410   -26690446.16743 -20736154.07442  21228285.470    21228280.884
  24358715.088    -5105498.37143  -3915030.70642  24358717.179    24358716.085
  20949375.182   -26155979.80044 -20357515.19942  20949377.410    20949372.803
 04  2 27  1 27 30.0000000  0  8G22G 3G14G15G 9G21G31G18
  20671480.473   -23095403.91644 -17972519.40542  20671481.383    20671475.309
  21838942.153   -18598310.45943 -14478912.02942  21838944.281    21838941.502
  22731904.689   -17002259.26343 -13046302.11042  22731907.452    22731904.442
  20416094.191   -28932857.58744 -22496210.59442  20416096.049    20416092.990
  24121083.169    -1908734.41343  -1471322.48442  24121085.818    24121084.106
  21236888.890   -26645223.90343 -20700915.94942  21236890.998    21236886.392
  24341346.328    -5196771.46043  -3986152.49142  24341348.420    24341347.273
  20957647.985   -26112505.84044 -20323639.37342  20957650.206    20957645.590
 04  2 27  1 28  0.0000000  0  8G22G 3G14G15G 9G21G31G18
  20669342.689   -23106637.92044 -17981273.15542  20669343.619    20669337.528
  21831775.385   -18635972.02043 -14508258.66842  21831777.508    21831774.731
  22712326.983   -17105140.32843 -13126469.06942  22712329.708    22712326.736
  20409489.979   -28967562.87344 -22523253.65242  20409491.836    20409488.774
  24111226.658    -1960530.99743  -1511683.35842  24111229.414    24111227.460
  21245552.736   -26599695.17843 -20665439.02242  21245554.821    21245550.192
  24324033.908    -5287748.14743  -4057043.29742  24324036.141    24324034.944
  20965962.976   -26068810.34544 -20289590.92542  20965965.185    20965960.552
 04  2 27  1 28 30.0000000  0  8G22G 3G14G15G 9G21G31G18
  20667265.043   -23117556.01344 -17989780.74042  20667265.961    20667259.865
  21824709.627   -18673102.58443 -14537191.54042  21824711.761    21824708.964
  22692795.584   -17207778.12443 -13206446.47242  22692798.264    22692795.318
  20402938.783   -29001989.52844 -22550079.59642  20402940.630    20402937.577
  24101442.507    -2011947.35643  -1551747.97042  24101445.233    24101443.310
  21254276.263   -26553852.71543 -20629717.61842  21254278.366    21254273.711
  24306779.742    -5378418.80643  -4127695.64042  24306781.932    24306780.489
  20974321.083   -26024888.10344 -20255365.79242  20974323.326    20974318.658
 04  2 27  1 29  0.0000000  0  8G22G 3G14G15G 9G21G31G18
  20665247.073   -23128160.36444 -17998043.85142  20665247.993    20665241.907
  21817744.946   -18709702.16943 -14565710.66342  21817747.071    21817744.273
  22673310.801   -17310171.10743 -13286233.12242  22673313.451    22673310.432
  20396440.654   -29036137.34844 -22576688.26142  20396442.491    20396439.454
  24091730.770    -2062981.96143  -1591515.09242  24091733.583    24091731.757
  21263059.268   -26507697.67543 -20593752.65342  21263061.360    21263056.718
  24289584.091    -5468782.21743  -4198108.57842  24289586.263    24289584.621
  20982721.818   -25980741.93744 -20220966.17442  20982724.042    20982719.391
 04  2 27  1 29 30.0000000  0  8G22G 3G14G15G 9G21G31G18
  20663287.976   -23138455.36144 -18006065.90842  20663288.882    20663282.798
  21810880.867   -18745772.95843 -14593817.73542  21810883.025    21810880.194
  22653872.310   -17412320.32943 -13365829.80942  22653874.965    22653872.031
  20389995.197   -29070008.39044 -22603081.25642  20389997.038    20389993.998
  24082091.632    -2113635.23943  -1630985.08842  24082094.258    24082092.616
  21271901.164   -26461233.17343 -20557546.54442  21271903.258    21271898.609
  24272446.771    -5558839.13143  -4268282.67742  24272448.915    24272447.542
  20991164.241   -25936376.68444 -20186395.83642  20991166.458    20991161.805
 04  2 27  1 30  0.0000000  0  8G22G 3G14G15G 9G21G31G18
  20661388.602   -23148436.45344 -18013843.36142  20661389.539    20661383.445
  21804118.631   -18781308.66943 -14621507.86642  21804120.793    21804117.963
  22634481.765   -17514217.98043 -13445230.48742  22634484.430    22634481.431
  20383603.674   -29103595.97644 -22629253.37342  20383605.498    20383602.479
  24072526.546    -2163899.37743  -1670151.88342  24072529.324    24072527.467
  21280803.024   -26414453.72143 -20521095.02242  21280805.086    21280800.460
  24255369.205    -5648581.81243  -4338211.92242  24255371.491    24255370.083
  20999649.135   -25891788.16244 -20151651.52542  20999651.349    20999646.707
 04  2 27  1 30 30.0000000  0  8G22G 3G14G15G 9G21G31G18
  20659547.922   -23158109.19144 -18021380.53742  20659548.855    20659542.751
  21797457.656   -18816312.24043 -14648783.34242  21797459.817    21797456.964
  22615138.692   -17615865.77843 -13524436.45942  22615141.366    22615138.454
  20377265.549   -29136902.92644 -22655206.81242  20377267.366    20377264.333
  24063035.315    -2213775.98843  -1709016.71742  24063037.906    24063036.248
  21289763.992   -26367363.60443 -20484401.42642  21289766.028    21289761.416
  24238351.171    -5738011.97243  -4407897.64242  24238353.253    24238351.965
  21008175.389   -25846982.38844 -20116737.92242  21008177.600    21008172.966
 04  2 27  1 31  0.0000000  0  8G22G 3G14G15G 9G21G31G18
  20657766.004   -23167473.17444 -18028677.12642  20657766.915    20657760.818
  21790898.453   -18850780.95943 -14675642.04842  21790900.608    21790897.753
  22595843.989   -17717259.61243 -13603444.56042  22595846.695    22595843.682
  20370981.348   -29169926.41344 -22680939.37142  20370983.165    20370980.139
  24053618.823    -2263260.35243  -1747575.88842  24053621.359    24053619.613
  21298784.337   -26319961.28743 -20447464.55842  21298786.373    21298781.767
  24221393.335    -5827125.52243  -4477336.65042  24221395.424    24221394.151
  21016742.982   -25801959.33244 -20081655.01242  21016745.192    21016740.556
 04  2 27  1 31 30.0000000  0  8G22G 3G14G15G 9G21G31G18
  20656043.098   -23176526.98744 -18035732.02042  20656044.013    20656037.906
  21784441.598   -18884711.74343 -14702081.58642  21784443.754    21784440.883
  22576598.546   -17818394.85443 -13682251.15242  22576601.238    22576598.219
  20364751.785   -29202662.77544 -22706448.19242  20364753.612    20364750.580
  24044277.694    -2312347.55143  -1785825.55142  24044280.177    24044278.467
  21307864.567   -26272244.37743 -20410282.55442  21307866.592    21307861.984
  24204496.624    -5915917.74043  -4546525.27242  24204498.789    24204497.568
  21025352.041   -25756718.31044 -20046402.25342  21025354.274    21025349.637
 04  2 27  1 32  0.0000000  0  8G22G 3G14G15G 9G21G31G18
  20654378.469   -23185274.59644 -18042548.31442  20654379.375    20654373.269
  21778086.807   -18918106.20143 -14728103.20542  21778088.986    21778086.108
  22557402.135   -17919272.03543 -13760856.66442  22557404.870    22557401.791
  20358576.584   -29235113.50844 -22731734.44442  20358578.418    20358575.394
  24035012.234    -2361037.83543  -1823765.94242  24035014.730    24035012.719
  21317004.143   -26224215.65043 -20372857.56742  21317006.189    21317001.550
  24187661.063    -6004389.01843  -4615463.81542  24187663.316    24187661.817
  21034001.776   -25711263.56344 -20010982.95942  21034004.022    21033999.392
 04  2 27  1 32 30.0000000  0  8G22G 3G14G15G 9G21G31G18
  20652772.280   -23193714.96144 -18049125.20342  20652773.195    20652767.099
  21771834.661   -18950961.34643 -14753704.58742  21771836.806    21771833.960
  22538255.866   -18019886.53443 -13839257.50142  22538258.580    22538255.418
  20352456.369   -29267275.28444 -22756795.53942  20352458.193    20352455.182
  24025823.150    -2409326.44543  -1861393.33942  24025825.769    24025823.629
  21326203.437   -26175872.91243 -20335187.89842  21326205.488    21326200.838
  24170887.364    -6092534.90443  -4684148.82042  24170889.693    24170887.950
  21042692.290   -25665594.56844 -19975396.72142  21042694.515    21042689.913
 04  2 27  1 33  0.0000000  0  8G22G 3G14G15G 9G21G31G18
  20651224.050   -23201850.82144 -18055464.80842  20651224.961    20651218.871
  21765685.021   -18983277.86443 -14778886.25742  21765687.159    21765684.308
  22519159.660   -18120237.45743 -13917452.94842  22519162.350    22519159.134
  20346391.045   -29299148.46544 -22781631.75342  20346392.902    20346389.878
  24016710.648    -2457212.60343  -1898707.13042  24016713.283    24016711.196
  21335462.244   -26127217.61143 -20297274.66542  21335464.270    21335459.628
  24154175.711    -6180354.58743  -4752579.64542  24154177.966    24154176.319
  21051422.945   -25619714.62044 -19939646.09842  21051425.167    21051420.568
 04  2 27  1 33 30.0000000  0  8G22G 3G14G15G 9G21G31G18
  20649733.871   -23209681.55644 -18061566.65442  20649734.789    20649728.718
  21759638.351   -19015053.14043 -14803646.18042  21759640.490    21759637.673
  22500114.422   -18220320.63043 -13995439.75342  22500117.111    22500113.900
  20340381.299   -29330729.86044 -22806240.60442  20340383.129    20340380.120
  24007675.668    -2504691.63643  -1935703.68342  24007678.198    24007676.023
  21344780.833   -26078248.16943 -20259116.65542  21344782.854    21344778.233
  24137526.978    -6267843.84543  -4820753.00542  24137529.335    24137527.446
  21060193.767   -25573623.43044 -19903730.87442  21060196.007    21060191.422
 04  2 27  1 34  0.0000000  0  8G22G 3G14G15G 9G21G31G18
  20648301.365   -23217209.41144 -18067432.48842  20648302.281    20648296.182
  21753694.641   -19046287.42043 -14827984.55042  21753696.783    21753693.946
  22481120.432   -18320134.72043 -14073216.90442  22481123.130    22481119.730
  20334427.044   -29362019.53944 -22830622.14442  20334428.897    20334425.872
  23998718.405    -2551762.13143  -1972381.90842  23998720.896    23998718.784
  21354158.937   -26028965.86043 -20220714.84842  21354160.985    21354156.340
  24120941.331    -6355001.28943  -4888667.80042  24120943.685    24120941.774
  21069004.369   -25527323.36844 -19867652.89042  21069006.593    21069002.028
 04  2 27  1 34 30.0000000  0  8G22G 3G14G15G 9G21G31G18
  20646926.449   -23224434.46744 -18073062.37942  20646927.371    20646921.273
  21747854.238   -19076978.78443 -14851899.87542  21747856.392    21747853.493
  22462178.212   -18419676.30243 -14150781.69142  22462180.913    22462177.598
  20328528.761   -29393015.15044 -22854774.54542  20328530.603    20328527.567
  23989839.461    -2598420.61743  -2008739.08442  23989841.990    23989840.019
  21363596.810   -25979369.44043 -20182068.28442  21363598.870    21363594.223
  24104419.422    -6441823.63843  -4956321.49742  24104421.915    24104419.988
  21077854.643   -25480814.79144 -19831412.42642  21077856.873    21077852.295
 04  2 27  1 35  0.0000000  0  8G22G 3G14G15G 9G21G31G18
  20645609.060   -23231357.27644 -18078456.74742  20645609.992    20645603.881
  21742117.423   -19107125.78343 -14875391.01742  21742119.562    21742116.667
  22443288.466   -18518942.59943 -14228131.99242  22443291.109    22443287.700
  20322686.787   -29423714.87544 -22878696.38442  20322688.626    20322685.585
  23981039.646    -2644663.78543  -2044772.62542  23981042.128    23981040.173
  21373094.536   -25929458.58943 -20143176.70542  21373096.581    21373091.947
  24087961.948    -6528307.90143  -5023711.74042  24087964.415    24087962.532
  21086744.279   -25434099.32244 -19795010.74642  21086746.520    21086741.944
 04  2 27  1 35 30.0000000  0  8G22G 3G14G15G 9G21G31G18
  20644348.943   -23237979.10644 -18083616.58542  20644349.875    20644343.757
  21736484.350   -19136727.75843 -14898457.46642  21736486.476    21736483.566
  22424451.481   -18617931.37343 -14305266.03442  22424454.127    22424450.748
  20316901.348   -29454117.49144 -22902386.71542  20316903.177    20316900.142
  23972319.298    -2690489.52043  -2080480.89442  23972321.764    23972319.728
  21382652.077   -25879233.39943 -20104040.18242  21382654.118    21382649.461
  24071569.247    -6614452.03343  -5090836.95942  24071571.541    24071569.832
  21095673.028   -25387178.33943 -19758448.93242  21095675.252    21095670.706
 04  2 27  1 36  0.0000000  0  8G22G 3G14G15G 9G21G31G18
  20643145.370   -23244303.85644 -18088544.93542  20643146.303    20643140.179
  21730954.576   -19165786.72643 -14921100.79042  21730956.710    21730953.799
  22405667.208   -18716642.96343 -14382184.09242  22405669.870    22405666.437
  20311172.191   -29484224.33744 -22925846.57542  20311174.021    20311170.970
  23963678.166    -2735897.89043  -2115863.94342  23963680.774    23963678.764
  21392268.963   -25828696.14743 -20064660.49042  21392271.041    21392266.387
  24055241.225    -6700256.16143  -5157697.22642  24055243.449    24055241.801
  21104640.058   -25340056.10843 -19721730.29542  21104642.279    21104637.756
 04  2 27  1 36 30.0000000  0  8G22G 3G14G15G 9G21G31G18
  20641999.504   -23250325.26944 -18093236.91842  20642000.456    20641994.305
  21725529.731   -19194294.51943 -14943314.62942  21725531.867    21725528.906
  22386937.622   -18815067.52143 -14458878.48742  22386940.269    22386936.829
  20305500.984   -29514026.61944 -22949069.11342  20305502.815    20305499.762
  23955118.486    -2780878.94243  -2150914.01042  23955121.042    23955119.021
  21401946.531   -25777840.13743 -20025032.42142  21401948.601    21401943.967
  24038979.780    -6785710.58343  -5224284.99542  24038981.928    24038980.192
  21113646.489   -25292726.90343 -19684850.38142  21113648.700    21113644.196
 04  2 27  1 37  0.0000000  0  8G22G 3G14G15G 9G21G31G18
  20640909.741   -23256051.88044 -18097699.18842  20640910.684    20640904.554
  21720208.504   -19222257.78843 -14965104.16842  21720210.620    21720207.659
  22368261.666   -18913210.22143 -14535353.25242  22368264.285    22368260.789
  20299886.548   -29543530.58144 -22972059.19442  20299888.405    20299885.320
  23946639.078    -2825437.80343  -2185635.12242  23946641.798    23946639.577
  21411683.305   -25726673.06943 -19985161.98242  21411685.374    21411680.739
  24022783.810    -6870820.37743  -5290604.22142  24022786.032    24022784.255
  21122690.679   -25245199.33343 -19647815.89842  21122692.895    21122688.393
 04  2 27  1 37 30.0000000  0  8G22G 3G14G15G 9G21G31G18
  20639876.921   -23261479.35444 -18101928.36042  20639877.864    20639871.713
  21714992.015   -19249670.42643 -14986464.64042  21714994.163    21714991.188
  22349640.758   -19011063.33043 -14611602.35442  22349643.392    22349639.941
  20294330.111   -29572729.71544 -22994811.75142  20294331.986    20294328.880
  23938241.542    -2869566.38643  -2220020.91942  23938244.113    23938242.125
  21421480.379   -25675189.13843 -19945044.63742  21421482.413    21421477.806
  24006654.962    -6955577.73043  -5356648.81042  24006657.222    24006655.321
  21131773.390   -25197469.33043 -19610623.67242  21131775.608    21131771.093
 04  2 27  1 38  0.0000000  0  8G22G 3G14G15G 9G21G31G18
  20638900.116   -23266612.41244 -18105928.12042  20638901.028    20638894.906
  21709879.885   -19276534.74643 -15007397.85942  21709882.053    21709879.069
  22331074.894   -19108627.65143 -14687626.44942  22331077.520    22331073.937
  20288831.366   -29601625.74244 -23017328.11842  20288833.246    20288830.129
  23929925.739    -2913265.72943  -2254072.27742  23929928.401    23929926.331
  21431337.033   -25623391.98243 -19904683.20342  21431339.070    21431334.498
  23990592.966    -7039983.65943  -5422419.57142  23990595.224    23990593.420
  21140893.635   -25149542.01843 -19573277.70342  21140895.863    21140891.363
 04  2 27  1 38 30.0000000  0  8G22G 3G14G15G 9G21G31G18
  20637979.653   -23271449.34044 -18109697.13042  20637980.561    20637974.453
  21704872.703   -19302847.70343 -15027901.44742  21704874.812    21704871.869
  22312564.814   -19205898.23143 -14763421.63242  22312567.448    22312563.965
  20283391.000   -29630215.06344 -23039605.49442  20283392.868    20283389.747
  23921692.615    -2956530.80543  -2287785.22642  23921695.229    23921693.161
  21441253.868   -25571278.71343 -19864075.45242  21441255.887    21441251.338
  23974598.778    -7124033.14543  -5487912.57842  23974601.106    23974599.217
  21150051.658   -25101416.20843 -19535777.06042  21150053.876    21150049.392
 04  2 27  1 39  0.0000000  0  8G22G 3G14G15G 9G21G31G18
  20637114.522   -23275995.52144 -18113239.58642  20637115.432    20637109.326
  21699969.795   -19328612.59543 -15047977.96742  21699971.927    21699968.960
  22294110.323   -19302876.89043 -14838989.35642  22294112.965    22294109.419
  20278008.494   -29658500.30244 -23061645.92342  20278010.374    20278007.207
  23913541.814    -2999363.14543  -2321160.97542  23913544.355    23913542.354
  21451230.026   -25518853.70743 -19823224.80242  21451232.039    21451227.466
  23958672.033    -7207728.05943  -5553129.29342  23958674.387    23958672.461
  21159246.367   -25053097.56843 -19498126.16242  21159248.593    21159244.115
 04  2 27  1 39 30.0000000  0  8G22G 3G14G15G 9G21G31G18
  20636305.758   -23280245.42244 -18116551.17642  20636306.676    20636300.588
  21695172.550   -19353822.23743 -15067621.83142  21695174.655    21695171.690
  22275713.041   -19399554.89943 -14914322.80542  22275715.695    22275712.196
  20272685.318   -29686473.64744 -23083443.31842  20272687.216    20272684.046
  23905475.161    -3041753.75443  -2354192.51042  23905477.710    23905475.416
  21461266.720   -25466110.50243 -19782126.20242  21461268.722    21461264.161
  23942814.597    -7291059.37043  -5618062.68942  23942816.829    23942814.885
  21168478.727   -25004581.07443 -19460321.09242  21168480.964    21168476.503
 04  2 27  1 40  0.0000000  0  8G22G 3G14G15G 9G21G31G18
  20635552.246   -23284204.99244 -18119636.53542  20635553.160    20635547.091
  21690480.206   -19378480.72243 -15086836.21742  21690482.328    21690479.316
  22257372.607   -19495934.53743 -14989423.76342  22257375.212    22257371.638
  20267420.858   -29714138.49244 -23105000.31942  20267422.767    20267419.590
  23897492.183    -3083704.81243  -2386881.56042  23897494.671    23897492.520
  21471363.012   -25413054.04143 -19740783.51342  21471365.024    21471360.464
  23927025.891    -7374029.47343  -5682714.61242  23927028.168    23927026.131
  21177747.638   -24955872.61743 -19422366.44142  21177749.862    21177745.392
 04  2 27  1 40 30.0000000  0  8G22G 3G14G15G 9G21G31G18
  20634854.224   -23287873.07344 -18122494.76442  20634855.128    20634849.058
  21685893.297   -19402584.98843 -15105618.74642  21685895.429    21685892.412
  22239089.726   -19592011.14343 -15064288.57642  22239092.368    22239088.872
  20262215.777   -29741491.25344 -23126314.13942  20262217.702    20262214.499
  23889593.599    -3125211.76643  -2419224.53742  23889596.043    23889593.861
  21481519.406   -25359681.96743 -19699194.88942  21481521.398    21481516.795
  23911306.726    -7456633.67543  -5747081.41242  23911309.023    23911306.912
  21187053.189   -24906971.63843 -19384261.77542  21187055.416    21187050.908
 04  2 27  1 41  0.0000000  0  8G22G 3G14G15G 9G21G31G18
  20634211.204   -23291252.16344 -18125127.80142  20634212.095    20634206.032
  21681411.675   -19426136.09443 -15123970.24542  21681413.780    21681410.730
  22220864.722   -19687784.04043 -15138916.75642  22220867.333    22220863.791
  20257070.080   -29768532.05044 -23147384.87142  20257072.010    20257068.798
  23881779.715    -3166273.63543  -2451220.69742  23881782.101    23881779.948
  21491735.485   -25305995.98343 -19657361.65742  21491737.490    21491732.914
  23895657.349    -7538871.24543  -5811162.53042  23895659.638    23895657.587
  21196394.849   -24857880.90443 -19346009.24742  21196397.080    21196392.550
 04  2 27  1 41 30.0000000  0  8G22G 3G14G15G 9G21G31G18
  20633623.563   -23294340.14444 -18127534.00342  20633624.459    20633618.393
  21677036.058   -19449130.16543 -15141887.68942  21677038.153    21677035.081
  22202698.603   -19783247.38343 -15213303.70242  22202701.214    22202697.704
  20251984.596   -29795256.37244 -23168208.99842  20251986.525    20251983.322
  23874051.509    -3206884.72943  -2482865.59642  23874054.043    23874051.817
  21502011.973   -25251992.68843 -19615281.16942  21502013.954    21502009.385
  23880078.803    -7620736.49343  -5874953.52742  23880081.150    23880079.066
  21205772.941   -24808598.74943 -19307607.55842  21205775.144    21205770.629
 04  2 27  1 42  0.0000000  0  8G22G 3G14G15G 9G21G31G18
  20633090.904   -23297139.19644 -18129715.07042  20633091.812    20633085.716
  21672766.343   -19471567.58643 -15159371.38042  21672768.449    21672765.328
  22184591.611   -19878399.98943 -15287448.54242  22184594.207    22184590.639
  20246959.406   -29821663.91644 -23188786.28342  20246961.326    20246958.116
  23866409.347    -3247043.75043  -2514158.24042  23866411.991    23866409.533
  21512348.606   -25197673.20743 -19572954.30142  21512350.608    21512346.061
  23864571.384    -7702228.16643  -5938453.42042  23864573.737    23864571.559
  21215187.029   -24759127.49043 -19269058.51942  21215189.213    21215184.680
 04  2 27  1 42 30.0000000  0  8G22G 3G14G15G 9G21G31G18
  20632612.674   -23299652.26444 -18131673.28542  20632613.593    20632607.489
  21668602.352   -19493449.54743 -15176422.24542  21668604.448    21668601.292
  22166543.980   -19973241.08943 -15361350.63142  22166546.532    22166542.960
  20241994.464   -29847754.80444 -23209116.82142  20241996.349    20241993.154
  23858853.462    -3286750.04743  -2545098.10442  23858856.182    23858853.773
  21522745.014   -25143039.51143 -19530382.59242  21522747.042    21522742.521
  23849135.162    -7783345.54243  -6001661.65342  23849137.613    23849135.399
  21224636.490   -24709470.18343 -19230364.50442  21224638.680    21224634.140
 04  2 27  1 43  0.0000000  0  8G22G 3G14G15G 9G21G31G18
  20632188.611   -23301880.81844 -18133409.80642  20632189.512    20632183.373
  21664544.042   -19514776.02943 -15193040.27142  21664546.138    21664542.987
  22148555.857   -20067769.00243 -15435008.69342  22148558.425    22148554.802
  20237089.907   -29873528.30644 -23229200.04942  20237091.792    20237088.597
  23851384.034    -3326001.60443  -2575683.63642  23851386.831    23851384.441
  21533201.118   -25088092.25543 -19487566.54242  21533203.141    21533198.634
  23833770.575    -7864086.70943  -6064576.75542  23833773.045    23833770.674
  21234120.997   -24659628.72843 -19191526.99942  21234123.179    21234118.630
 04  2 27  1 43 30.0000000  0  8G22G 3G14G15G 9G21G31G18
  20631819.402   -23303821.07544 -18134921.67742  20631820.310    20631814.134
  21660592.576   -19535541.30043 -15209220.99242  21660594.629    21660591.457
  22130628.738   -20161976.25043 -15508416.87942  22130631.311    22130627.701
  20232246.975   -29898977.99944 -23249030.95542  20232248.847    20232245.657
  23844002.605    -3364791.11843  -2605909.13842  23844005.258    23844002.802
  21543717.897   -25032826.39743 -19444502.22842  21543719.907    21543715.384
  23818478.976    -7944444.39343  -6127193.04642  23818481.336    23818479.064
  21243641.238   -24609599.46243 -19152543.14442  21243643.416    21243638.859
 04  2 27  1 44  0.0000000  0  8G22G 3G14G15G 9G21G31G18
  20631503.657   -23305480.31944 -18136214.57442  20631504.560    20631498.381
  21656746.796   -19555750.92443 -15224968.73242  21656748.867    21656745.672
  22112761.884   -20255866.89443 -15581578.36542  22112764.482    22112760.838
  20227464.730   -29924108.80744 -23268613.38342  20227466.609    20227463.402
  23836708.340    -3403122.49143  -2635777.64542  23836710.869    23836708.457
  21554294.060   -24977248.31543 -19401194.63342  21554296.071    21554291.529
  23803259.566    -8024422.48843  -6189513.55342  23803261.932    23803259.625
  21253195.758   -24559389.94843 -19113418.83742  21253197.968    21253193.406
 04  2 27  1 44 30.0000000  0  8G22G 3G14G15G 9G21G31G18
  20631242.314   -23306853.64544 -18137284.68042  20631243.208    20631237.019
  21653007.911   -19575398.79543 -15240278.74542  21653009.989    21653006.790
  22094956.852   -20349432.70943 -15654486.73842  22094959.433    22094955.801
  20222744.577   -29948913.43244 -23287941.64042  20222746.427    20222743.205
  23829502.850    -3440987.53243  -2665282.76642  23829505.388    23829502.860
  21564930.768   -24921352.06943 -19357639.11242  21564932.771    21564928.233
  23788113.896    -8104012.78343  -6251531.87842  23788116.380    23788114.043
  21262785.425   -24508995.73843 -19074150.60942  21262787.672    21262783.084
 04  2 27  1 45  0.0000000  0  8G22G 3G14G15G 9G21G31G18
  20631034.313   -23307946.64644 -18138136.34842  20631035.197    20631029.013
  21649375.125   -19594489.11943 -15255154.30942  21649377.213    21649374.004
  22077213.222   -20442675.80543 -15727143.64242  22077215.821    22077212.160
  20218085.830   -29973395.11644 -23307018.25442  20218087.694    20218084.480
  23822385.626    -3478388.48243  -2694426.28242  23822388.172    23822385.598
  21575627.114   -24865142.39943 -19313839.37042  21575629.091    21575624.562
  23773041.724    -8183217.38043  -6313249.66642  23773044.140    23773041.837
  21272409.214   -24458422.34043 -19034742.75142  21272411.448    21272406.861
 04  2 27  1 45 30.0000000  0  8G22G 3G14G15G 9G21G31G18
  20630879.979   -23308757.55944 -18138768.20942  20630880.851    20630874.678
  21645849.139   -19613018.25643 -15269592.58342  21645851.221    21645848.022
  22059531.995   -20535590.89443 -15799544.94942  22059534.576    22059530.957
  20213489.377   -29997549.58444 -23325839.89642  20213491.230    20213488.010
  23815357.626    -3515320.10443  -2723204.08342  23815360.259    23815357.772
  21586383.585   -24808616.64543 -19269793.32642  21586385.606    21586381.069
  23758043.923    -8262031.10543  -6374662.89842  23758046.316    23758043.979
  21282067.320   -24407668.66943 -18995194.42342  21282069.544    21282064.972
 04  2 27  1 46  0.0000000  0  8G22G 3G14G15G 9G21G31G18
  20630778.613   -23309290.00444 -18139183.08042  20630779.501    20630773.344
  21642429.552   -19630988.20943 -15283595.12642  21642431.652    21642428.435
  22041913.170   -20628178.14043 -15871690.79042  22041915.782    22041912.110
  20208955.004   -30021377.74344 -23344407.26742  20208956.877    20208953.636
  23808419.027    -3551782.33643  -2751616.12742  23808421.694    23808419.185
  21597199.800   -24751777.02543 -19225502.71742  21597201.827    21597197.279
  23743120.487    -8340453.93243  -6435771.50942  23743122.979    23743120.559
  21291759.034   -24356738.18643 -18955508.31542  21291761.309    21291756.699
 04  2 27  1 46 30.0000000  0  8G22G 3G14G15G 9G21G31G18
  20630731.000   -23309540.11144 -18139377.95042  20630731.910    20630725.732
  21639117.360   -19648393.85943 -15297157.95342  21639119.474    21639116.249
  22024358.107   -20720430.43543 -15943575.64142  22024360.709    22024357.000
  20204483.890   -30044873.51744 -23362715.64042  20204485.766    20204482.487
  23801571.088    -3587768.15643  -2779656.93642  23801573.751    23801571.285
  21608076.613   -24694619.07743 -19180964.05642  21608078.614    21608074.061
  23728272.791    -8418478.91843  -6496570.13642  23728275.276    23728272.806
  21301484.989   -24305627.81543 -18915682.03542  21301487.265    21301482.646
 04  2 27  1 47  0.0000000  0  8G22G 3G14G15G 9G21G31G18
  20630735.561   -23309515.96444 -18139359.11042  20630736.474    20630730.295
  21635911.352   -19665241.39043 -15310285.88342  21635913.462    21635910.268
  22006865.896   -20812352.25543 -16015202.96642  22006868.507    22006864.839
  20200074.970   -30068042.40544 -23380769.29842  20200076.865    20200073.555
  23794812.840    -3623282.15943  -2807330.09042  23794815.489    23794813.062
  21619012.652   -24637149.73343 -19136182.75642  21619014.660    21619010.079
  23713499.891    -8496110.41643  -6557062.13442  23713502.363    23713499.897
  21311243.746   -24254345.05043 -18875721.42042  21311246.026    21311241.400
 04  2 27  1 47 30.0000000  0  8G22G 3G14G15G 9G21G31G18
  20630793.524   -23309211.32544 -18139121.70842  20630794.417    20630788.250
  21632812.992   -19681523.22043 -15322973.00442  21632815.098    21632811.924
  21989438.380   -20903934.23643 -16086565.49442  21989440.977    21989437.268
  20195729.886   -30090875.76444 -23398561.50142  20195731.807    20195728.499
  23788146.237    -3658314.88243  -2834628.22142  23788148.810    23788146.358
  21630009.296   -24579361.97843 -19091153.32442  21630011.325    21630006.722
  23698803.735    -8573338.92343  -6617240.10942  23698806.197    23698803.690
  21321036.360   -24202884.45243 -18835622.23642  21321038.647    21321033.991
 04  2 27  1 48  0.0000000  0  8G22G 3G14G15G 9G21G31G18
  20630903.406   -23308633.82944 -18138671.68842  20630904.299    20630898.117
  21629821.099   -19697245.67843 -15335224.25442  21629823.179    21629820.059
  21972074.776   -20995180.61843 -16157666.50542  21972077.343    21972073.627
  20191447.677   -30113378.78644 -23416096.30242  20191449.594    20191446.279
  23781570.411    -3692870.56743  -2861554.64242  23781573.183    23781570.460
  21641065.264   -24521262.38343 -19045880.90842  21641067.319    21641062.697
  23684183.399    -8650168.77843  -6677107.44842  23684185.913    23684183.340
  21330861.376   -24151253.70343 -18795390.46342  21330863.633    21330858.965
 04  2 27  1 48 30.0000000  0  8G22G 3G14G15G 9G21G31G18
  20631066.269   -23307777.87344 -18138004.68442  20631067.183    20631060.967
  21626936.937   -19712402.02243 -15347034.37242  21626939.003    21626935.885
  21954776.619   -21086082.54743 -16228499.11242  21954779.206    21954775.491
  20187229.814   -30135543.72144 -23433367.65442  20187231.739    20187228.427
  23775087.105    -3726940.59743  -2888102.62842  23775089.781    23775087.064
  21652181.730   -24462844.70443 -19000360.62942  21652183.836    21652179.196
  23669640.683    -8726590.99343  -6736657.13842  23669643.127    23669640.556
  21340719.798   -24099447.26743 -18755021.79142  21340722.078    21340717.359
 04  2 27  1 49  0.0000000  0  8G22G 3G14G15G 9G21G31G18
  20631281.369   -23306647.45644 -18137123.81542  20631282.261    20631276.054
  21624159.978   -19726994.76043 -15358405.31542  21624162.083    21624158.973
  21937543.931   -21176640.55443 -16299063.73042  21937546.552    21937542.807
  20183076.024   -30157371.94044 -23450376.63042  20183077.931    20183074.643
  23768696.034    -3760525.54343  -2914272.62142  23768698.757    23768696.008
  21663358.156   -24404111.95243 -18954594.84742  21663360.289    21663355.666
  23655175.403    -8802606.18143  -6795889.66942  23655177.850    23655175.277
  21350610.817   -24047469.55143 -18714519.65642  21350613.097    21350608.355
 04  2 27  1 49 30.0000000  0  8G22G 3G14G15G 9G21G31G18
  20631547.762   -23305247.47844 -18136032.89942  20631548.660    20631542.435
  21621489.681   -19741027.14743 -15369339.62142  21621491.759    21621488.719
  21920376.422   -21266856.12543 -16369361.50742  21920379.068    21920375.299
  20178985.945   -30178865.49144 -23467124.82442  20178987.828    20178984.532
  23762396.961    -3793627.01943  -2940065.90442  23762399.795    23762396.834
  21674593.912   -24345067.71043 -18908586.34042  21674596.028    21674591.402
  23640787.361    -8878215.67943  -6854806.06242  23640789.713    23640787.209
  21360533.539   -23995325.44143 -18673887.86442  21360535.798    21360531.035
 04  2 27  1 50  0.0000000  0  8G22G 3G14G15G 9G21G31G18
  20631866.593   -23303571.95144 -18134727.26642  20631867.481    20631861.254
  21618927.429   -19754491.85443 -15379831.57742  21618929.501    21618926.456
  21903275.882   -21356719.88643 -16439385.15842  21903278.521    21903274.704
  20174961.150   -30200015.91044 -23483605.64442  20174963.014    20174959.722
  23756191.611    -3826235.97943  -2965475.39642  23756194.459    23756191.497
  21685890.239   -24285705.20243 -18862329.83542  21685892.332    21685887.707
  23626478.254    -8953410.37943  -6913399.25142  23626480.647    23626478.083
  21370488.971   -23943009.18043 -18633121.93142  21370491.235    21370486.469
 04  2 27  1 50 30.0000000  0  8G22G 3G14G15G 9G21G31G18
  20632236.584   -23301627.44444 -18133212.03942  20632237.487    20632231.265
  21616472.167   -19767394.15643 -15389885.29542  21616474.267    21616471.214
  21886241.637   -21446235.11343 -16509137.21242  21886244.278    21886240.469
  20171000.809   -30220827.57444 -23499822.50042  20171002.664    20170999.384
  23750079.413    -3858355.61643  -2990503.60542  23750082.053    23750079.107
  21697246.009   -24226030.30743 -18815829.91442  21697248.078    21697243.433
  23612247.465    -9028193.33043  -6971671.59242  23612249.881    23612247.249
  21380475.870   -23890527.74343 -18592227.29342  21380478.142    21380473.339
 04  2 27  1 51  0.0000000  0  8G22G 3G14G15G 9G21G31G18
  20632658.178   -23299411.89244 -18131485.60742  20632659.080    20632652.868
  21614124.611   -19779730.61343 -15399498.09642  21614126.703    21614123.654
  21869274.674   -21535396.71943 -16578613.72942  21869277.346    21869273.503
  20167105.800   -30241295.87344 -23515771.79942  20167107.659    20167104.363
  23744061.306    -3889980.61443  -3015146.38742  23744063.975    23744061.023
  21708661.803   -24166039.73843 -18769084.00742  21708663.908    21708659.245
  23598095.981    -9102559.36843  -7029619.04742  23598098.378    23598095.789
  21390494.536   -23837879.07543 -18551202.34042  21390496.835    21390492.019
 04  2 27  1 51 30.0000000  0  8G22G 3G14G15G 9G21G31G18
  20633131.076   -23296926.78544 -18129549.13242  20633131.956    20633125.742
  21611884.687   -19791501.44543 -15408670.15442  21611886.770    21611883.707
  21852375.479   -21624202.34143 -16647812.84942  21852378.164    21852374.258
  20163276.315   -30261419.81844 -23531452.77242  20163278.190    20163274.882
  23738137.710    -3921109.22143  -3039402.37142  23738140.397    23738137.448
  21720137.506   -24105734.40743 -18722092.84142  21720139.631    21720134.953
  23584024.195    -9176506.35943  -7087240.00142  23584026.629    23584024.061
  21400544.824   -23785064.47243 -18510048.09342  21400547.114    21400542.300
 04  2 27  1 52  0.0000000  0  8G22G 3G14G15G 9G21G31G18
  20633654.699   -23294175.01344 -18127404.86542  20633655.582    20633649.364
  21609752.076   -19802708.31043 -15417402.75142  21609754.188    21609751.096
  21835544.018   -21712651.99743 -16716734.59142  21835546.680    21835542.815
  20159512.209   -30281200.13844 -23546865.98742  20159514.101    20159510.779
  23732308.515    -3951741.38943  -3063271.51142  23732311.064    23732308.160
  21731672.764   -24045116.29443 -18674857.94942  21731674.846    21731670.170
  23570032.254    -9250034.35643  -7144534.45242  23570034.640    23570032.101
  21410626.019   -23732087.44543 -18468767.28042  21410628.286    21410623.478
 04  2 27  1 52 30.0000000  0  8G22G 3G14G15G 9G21G31G18
  20634229.384   -23291154.83044 -18125051.44942  20634230.299    20634224.056
  21607727.347   -19813348.06243 -15425693.44842  21607729.453    21607726.401
  21818781.302   -21800740.38643 -16785374.82642  21818783.946    21818780.086
  20155814.344   -30300632.41444 -23562007.99942  20155816.239    20155812.915
  23726574.770    -3981871.84943  -3086749.71242  23726577.537    23726574.526
  21743268.030   -23984182.73143 -18627377.24042  21743270.100    21743265.437
  23556121.095    -9323137.73743  -7201498.03842  23556123.399    23556120.913
  21420738.469   -23678946.04243 -18427358.37842  21420740.733    21420735.946
 04  2 27  1 53  0.0000000  0  8G22G 3G14G15G 9G21G31G18
  20634854.646   -23287868.98344 -18122491.02242  20634855.540    20634849.313
  21605810.214   -19823422.50943 -15433543.64742  21605812.333    21605809.303
  21802087.399   -21888467.18243 -16853733.30142  21802090.020    21802086.189
  20152182.631   -30319717.07844 -23576879.14442  20152184.521    20152181.207
  23720936.568    -4011500.35843  -3109836.78742  23720939.306    23720936.371
  21754922.985   -23922935.57043 -18579652.17942  21754925.033    21754920.370
  23542290.760    -9395816.34643  -7258130.64542  23542293.081    23542290.533
  21430881.652   -23625643.22343 -18385823.70342  21430883.897    21430879.116
 04  2 27  1 53 30.0000000  0  8G22G 3G14G15G 9G21G31G18
  20635529.982   -23284319.97344 -18119725.53142  20635530.867    20635524.635
  21604000.411   -19832932.89943 -15440954.32042  21604002.537    21603999.500
  21785462.464   -21975831.45943 -16921809.30142  21785465.103    21785461.223
  20148617.119   -30338453.96644 -23591479.29842  20148619.000    20148615.669
  23715394.027    -4040626.33543  -3132532.28242  23715396.716    23715393.852
  21766637.279   -23861376.47843 -18531684.05042  21766639.347    21766634.645
  23528541.473    -9468069.09843  -7314431.42242  23528543.767    23528541.165
  21441055.046   -23572181.54843 -18344165.24442  21441057.313    21441052.522
 04  2 27  1 54  0.0000000  0  8G22G 3G14G15G 9G21G31G18
  20636255.977   -23280504.60944 -18116752.49542  20636256.890    20636250.643
  21602298.782   -19841874.95743 -15447922.13542  21602300.905    21602297.850
  21768907.727   -22062827.06843 -16989598.02142  21768910.338    21768906.440
  20145118.828   -30356837.56144 -23605804.15842  20145120.702    20145117.371
  23709948.356    -4069243.71543  -3154831.46642  23709950.807    23709947.930
  21778411.637   -23799501.63243 -18483469.87642  21778413.726    21778409.058
  23514874.359    -9539889.88443  -7370395.59942  23514876.647    23514874.075
  21451259.182   -23518558.49343 -18302381.03642  21451261.450    21451256.610
 04  2 27  1 54 30.0000000  0  8G22G 3G14G15G 9G21G31G18
  20637032.133   -23276425.73044 -18113574.12542  20637033.040    20637026.796
  21600704.979   -19850250.34043 -15454448.39142  21600707.101    21600704.041
  21752423.212   -22149453.36043 -17057098.95942  21752425.828    21752421.934
  20141687.668   -30374868.31344 -23619854.07642  20141689.522    20141686.213
  23704599.497    -4097352.10643  -3176734.03642  23704601.956    23704599.058
  21790245.723   -23737312.88243 -18435011.09342  21790247.856    21790243.164
  23501289.585    -9611278.17943  -7426022.76742  23501291.858    23501289.254
  21461493.471   -23464776.81443 -18260473.22242  21461495.760    21461490.926
 04  2 27  1 55  0.0000000  0  8G22G 3G14G15G 9G21G31G18
  20637857.796   -23272086.61744 -18110192.97542  20637858.716    20637852.480
  21599218.674   -19858061.06243 -15460534.65042  21599220.764    21599217.675
  21736009.029   -22235710.40143 -17124312.18042  21736011.614    21736007.691
  20138323.534   -30392546.86544 -23633629.55142  20138325.402    20138322.083
  23699347.505    -4124951.54343  -3198240.01942  23699349.940    23699346.862
  21802139.176   -23674812.43543 -18386309.44042  21802141.309    21802136.627
  23487787.166    -9682233.91943  -7481312.88542  23487789.422    23487786.727
  21471757.379   -23410839.49043 -18218444.12942  21471759.676    21471754.835
 04  2 27  1 55 30.0000000  0  8G22G 3G14G15G 9G21G31G18
  20638733.151   -23267486.44044 -18106608.39742  20638734.079    20638727.826
  21597840.179   -19865305.01243 -15466179.26742  21597842.289    21597839.171
  21719665.842   -22321593.97043 -17191234.37442  21719668.460    21719664.533
  20135027.054   -30409869.98644 -23647128.06542  20135028.919    20135025.568
  23694192.975    -4152038.33043  -3219346.54142  23694195.400    23694192.361
  21814092.231   -23611998.62143 -18337363.60942  21814094.383    21814089.699
  23474367.797    -9752752.94743  -7536262.71542  23474370.071    23474367.275
  21482051.048   -23356745.91843 -18176293.27942  21482053.324    21482048.517
 04  2 27  1 56  0.0000000  0  8G22G 3G14G15G 9G21G31G18
  20639658.363   -23262624.36344 -18102819.74142  20639659.278    20639653.039
  21596569.830   -19871980.60343 -15471381.01042  21596571.949    21596568.844
  21703394.482   -22407100.29443 -17257862.61342  21703397.130    21703393.168
  20131798.819   -30426834.42944 -23660347.09142  20131800.688    20131797.322
  23689136.713    -4178608.84343  -3240050.75642  23689139.132    23689136.238
  21826105.199   -23548870.07643 -18288172.52742  21826107.330    21826102.661
  23461032.324    -9822831.25043  -7590869.11542  23461034.557    23461031.739
  21492374.510   -23302495.51143 -18134020.21942  21492376.811    21492372.016
 04  2 27  1 56 30.0000000  0  8G22G 3G14G15G 9G21G31G18
  20640632.640   -23257504.38844 -18098830.12942  20640633.543    20640627.290
  21595407.123   -19878090.73743 -15476142.13742  21595409.216    21595406.108
  21687194.784   -22492230.16443 -17324197.51042  21687197.418    21687193.416
  20128638.463   -30443441.98944 -23673288.02342  20128640.355    20128636.969
  23684178.475    -4204664.23443  -3260353.59442  23684180.842    23684177.969
  21838177.373   -23485430.39943 -18238739.01242  21838179.504    21838174.835
  23447780.444    -9892469.82143  -7645132.88842  23447782.722    23447779.926
  21502727.087   -23248092.25543 -18091628.05642  21502729.384    21502724.605
 04  2 27  1 57  0.0000000  0  8G22G 3G14G15G 9G21G31G18
  20641656.043   -23252126.41044 -18094639.47742  20641656.915    20641650.683
  21594352.219   -19883634.17943 -15480461.68042  21594354.327    21594351.198
  21671067.326   -22576980.25543 -17390236.47942  21671069.972    21671065.944
  20125546.547   -30459690.03944 -23685948.81742  20125548.450    20125545.063
  23679318.929    -4230201.20043  -3280252.46042  23679321.313    23679318.432
  21850309.074   -23421677.92743 -18189061.74842  21850311.231    21850306.549
  23434612.943    -9961665.26343  -7699051.34842  23434615.242    23434612.389
  21513108.752   -23193536.24143 -18049116.86142  21513111.033    21513106.262
 04  2 27  1 57 30.0000000  0  8G22G 3G14G15G 9G21G31G18
  20642728.396   -23246491.09444 -18090248.30042  20642729.280    20642723.028
  21593405.160   -19888610.84943 -15484339.58942  21593407.244    21593404.149
  21655012.586   -22661348.29443 -17455977.75242  21655015.227    21655011.164
  20122523.352   -30475576.99344 -23698328.23842  20122525.252    20122521.839
  23674558.460    -4255217.77643  -3299745.83942  23674560.760    23674557.871
  21862500.226   -23357613.04143 -18139141.04442  21862502.380    21862497.699
  23421530.216   -10030415.21743  -7752622.68642  23421532.529    23421529.601
  21523519.269   -23138828.37943 -18006487.33542  21523521.597    21523516.812
 04  2 27  1 58  0.0000000  0  8G22G 3G14G15G 9G21G31G18
  20643849.399   -23240600.16244 -18085657.94242  20643850.264    20643844.019
  21592565.840   -19893021.45443 -15487776.40542  21592567.901    21592564.820
  21639030.919   -22745332.45943 -17521419.89342  21639033.521    21639029.437
  20119569.026   -30491101.98244 -23710425.60342  20119570.923    20119567.517
  23669897.341    -4279712.34243  -3318832.45942  23669899.587    23669896.718
  21874750.579   -23293236.94943 -18088977.84442  21874752.742    21874748.037
  23408532.581   -10098718.09343  -7805845.65942  23408534.912    23408531.984
  21533958.454   -23083970.01343 -17963740.53742  21533960.751    21533955.993
 04  2 27  1 58 30.0000000  0  8G22G 3G14G15G 9G21G31G18
  20645018.959   -23234454.11644 -18080868.79642  20645019.827    20645013.539
  21591834.321   -19896865.39643 -15490771.66242  21591836.427    21591833.316
  21623122.756   -22828930.21643 -17586560.94242  21623125.340    21623121.248
  20116683.924   -30506263.17744 -23722239.49242  20116685.833    20116682.397
  23665335.903    -4303682.72443  -3337510.62242  23665338.081    23665335.191
  21887060.280   -23228548.95743 -18038571.61442  21887062.455    21887057.744
  23395620.481   -10166571.18443  -7858718.15442  23395622.839    23395619.868
  21544426.139   -23028961.97343 -17920877.10342  21544428.428    21544423.644
 04  2 27  1 59  0.0000000  0  8G22G 3G14G15G 9G21G31G18
  20646237.536   -23228050.42644 -18075878.88642  20646238.383    20646232.101
  21591211.332   -19900139.12343 -15493322.60042  21591213.412    21591210.321
  21607289.235   -22912135.75243 -17651396.36642  21607291.808    21607287.707
  20113869.016   -30521055.53144 -23733765.97442  20113870.901    20113867.484
  23660875.214    -4327123.30843  -3355775.96142  23660877.418    23660874.481
  21899430.030   -23163545.45443 -17987919.52342  21899432.229    21899427.492
  23382795.127   -10233968.71543  -7911235.66342  23382797.470    23382794.527
  21554922.763   -22973801.57543 -17877894.94742  21554925.084    21554920.291
 04  2 27  1 59 30.0000000  0  8G22G 3G14G15G 9G21G31G18
  20647503.225   -23221399.08244 -18070695.99942  20647504.081    20647497.782
  21590695.091   -19902851.93843 -15495436.45942  21590697.188    21590694.065
  21591529.038   -22994956.12943 -17715931.67042  21591531.579    21591527.433
  20111122.807   -30535486.73944 -23745011.04042  20111124.715    20111121.274
  23656513.970    -4350041.46743  -3373634.22042  23656516.310    23656513.310
  21911857.985   -23098236.11943 -17937029.11142  21911860.192    21911855.455
  23370055.130   -10300917.59243  -7963403.57342  23370057.511    23370054.583
  21565446.455   -22918499.10043 -17834802.08442  21565448.784    21565443.981
 04  2 27  2  0  0.0000000  0  8G22G 3G14G15G 9G21G31G18
  20648817.419   -23214492.78944 -18065314.44642  20648818.291    20648811.998
  21590287.133   -19904995.64443 -15497106.85742  21590289.226    21590286.103
  21575844.075   -23077380.82743 -17780158.64842  21575846.640    21575842.490
  20108447.184   -30549547.28544 -23755967.27842  20108449.074    20108445.621
  23652254.052    -4372427.18443  -3391077.59642  23652256.463    23652253.285
  21924345.575   -23032613.03343 -17885894.20942  21924347.807    21924343.114
  23357402.512   -10367407.58043  -8015213.92642  23357404.816    23357401.957
  21575998.548   -22863047.39143 -17791592.93642  21576000.854    21575996.076
 04  2 27  2  0 30.0000000  0  8G22G 3G14G15G 9G21G31G18
  20650178.894   -23207338.03944 -18059739.29542  20650179.775    20650173.483
  21589986.464   -19906575.59943 -15498337.96642  21589988.560    21589985.416
  21560233.829   -23159413.12743 -17844079.86542  21560236.384    21560232.203
  20105841.364   -30563240.73344 -23766637.46442  20105843.251    20105839.792
  23648094.730    -4394283.84243  -3408108.70642  23648097.261    23648094.072
  21936891.885   -22966681.75543 -17834519.15542  21936894.079    21936889.402
  23344836.554   -10433441.83743  -8066669.11942  23344838.866    23344836.042
  21586577.773   -22807452.91943 -17748272.54342  21586580.095    21586575.318
 04  2 27  2  1  0.0000000  0  8G22G 3G14G15G 9G21G31G18
  20651588.694   -23199929.52744 -18053966.40342  20651589.559    20651583.250
  21589794.211   -19907586.02243 -15499125.28542  21589796.294    21589793.138
  21544699.757   -23241044.91243 -17907688.98942  21544702.320    21544698.154
  20103306.764   -30576560.00744 -23777016.08942  20103308.648    20103305.201
  23644037.737    -4415603.38443  -3424721.29342  23644040.117    23644036.990
  21949497.937   -22900436.44943 -17782899.41542  21949500.104    21949495.430
  23332358.917   -10499012.04943  -8117762.74242  23332361.216    23332358.360
  21597185.261   -22751710.14443 -17704836.59342  21597187.570    21597182.791
 04  2 27  2  1 30.0000000  0  8G22G 3G14G15G 9G21G31G18
  20653045.409   -23192274.32644 -18048001.28542  20653046.271    20653039.950
  21589709.114   -19908033.06843 -15499473.61042  21589711.205    21589708.047
  21529241.110   -23322280.35843 -17970989.27842  21529243.678    21529239.528
  20100842.477   -30589509.72744 -23787106.75142  20100844.388    20100840.913
  23640082.105    -4436390.28243  -3440918.83942  23640084.447    23640081.318
  21962162.541   -22833883.50543 -17731039.96342  21962164.679    21962160.013
  23319968.795   -10564122.47143  -8168498.07242  23319971.031    23319968.190
  21607819.558   -22695826.47843 -17661290.85542  21607821.862    21607817.072
 04  2 27  2  2  0.0000000  0  8G22G 3G14G15G 9G21G31G18
  20654549.199   -23184371.70744 -18041843.37342  20654550.060    20654543.740
  21589731.506   -19907915.16843 -15499381.71542  21589733.593    21589730.457
  21513858.729   -23403115.12643 -18033977.35242  21513861.290    21513857.124
  20098449.174   -30602086.44844 -23796906.76742  20098451.086    20098447.615
  23636228.556    -4456640.81343  -3456698.42642  23636230.860    23636227.748
  21974886.041   -22767021.25843 -17678939.51142  21974888.082    21974883.467
  23307666.914   -10628768.91443  -8218871.87742  23307669.169    23307666.328
  21618480.865   -22639800.89343 -17617634.53342  21618483.166    21618478.358
 04  2 27  2  2 30.0000000  0  8G22G 3G14G15G 9G21G31G18
  20656100.196   -23176220.99144 -18035492.13942  20656101.069    20656094.741
  21589861.660   -19907231.04243 -15498848.60142  21589863.785    21589860.618
  21498553.188   -23483545.85443 -18096650.58742  21498555.773    21498551.616
  20096127.393   -30614287.39244 -23806413.96942  20096129.297    20096125.831
  23632477.620    -4476351.96643  -3472057.70942  23632479.896    23632476.742
  21987668.615   -22699848.50243 -17626597.10142  21987670.640    21987666.022
  23295453.998   -10692947.96343  -8268881.45342  23295456.252    23295453.374
  21629169.242   -22583632.99643 -17573867.32242  21629171.539    21629166.708
 04  2 27  2  3  0.0000000  0  8G22G 3G14G15G 9G21G31G18
  20657697.907   -23167824.79244 -18028949.61742  20657698.791    20657692.468
  21590099.199   -19905982.67643 -15497875.82642  21590101.326    21590098.142
  21483324.637   -23563572.15343 -18159008.68342  21483327.230    21483323.057
  20093877.089   -30626112.83544 -23815628.57542  20093878.984    20093875.503
  23628829.271    -4495523.72743  -3486996.69142  23628831.666    23628828.454
  22000509.857   -22632367.28243 -17574014.32142  22000511.882    22000507.277
  23283330.067   -10756659.10143  -8318526.42042  23283332.370    23283329.446
  21639884.177   -22527325.56843 -17529991.38942  21639886.485    21639881.640
 04  2 27  2  3 30.0000000  0  8G22G 3G14G15G 9G21G31G18
  20659342.524   -23159182.08044 -18022215.00942  20659343.415    20659337.080
  21590444.481   -19904168.07143 -15496461.82342  21590446.633    21590443.415
  21468173.896   -23643189.61943 -18221048.20842  21468176.483    21468172.311
  20091698.883   -30637559.27544 -23824547.85542  20091700.770    20091697.299
  23625284.420    -4514152.17943  -3501512.32642  23625286.819    23625283.606
  22013410.122   -22564575.84943 -17521189.82642  22013412.175    22013407.561
  23271295.984   -10819898.24443  -8367803.60942  23271298.289    23271295.387
  21650625.950   -22470877.01443 -17486005.48642  21650628.274    21650623.401
 04  2 27  2  4  0.0000000  0  8G22G 3G14G15G 9G21G31G18
  20661033.267   -23150297.06944 -18015291.59442  20661034.155    20661027.816
  21590896.830   -19901790.88643 -15494609.44242  21590898.962    21590895.757
  21453100.657   -23722399.83043 -18282770.38842  21453103.240    21453099.071
  20089592.426   -30648628.65044 -23833173.32042  20089594.318    20089590.843
  23621842.464    -4532239.25543  -3515606.10142  23621844.969    23621841.760
  22026368.763   -22496477.59743 -17468126.24342  22026370.838    22026366.242
  23259351.526   -10882666.67543  -8416714.00142  23259353.751    23259350.941
  21661393.695   -22414292.14143 -17441913.36042  21661395.998    21661391.119
 04  2 27  2  4 30.0000000  0  8G22G 3G14G15G 9G21G31G18
  20662770.432   -23141168.12544 -18008178.10142  20662771.336    20662764.980
  21591456.664   -19898848.90543 -15492316.96942  21591458.788    21591455.570
  21438105.821   -23801198.18443 -18344171.64542  21438108.367    21438104.202
  20087558.476   -30659317.00844 -23841501.89142  20087560.376    20087556.904
  23618504.429    -4549780.60543  -3529274.63042  23618506.957    23618503.752
  22039386.161   -22428070.61243 -17414822.10142  22039388.253    22039383.630
  23247497.465   -10944959.68043  -8465253.93342  23247499.736    23247496.894
  21672187.734   -22357568.96743 -17397713.47142  21672190.039    21672185.162
 04  2 27  2  5  0.0000000  0  8G22G 3G14G15G 9G21G31G18
  20664553.590   -23131797.46044 -18000876.25442  20664554.482    20664548.124
  21592123.667   -19895343.69743 -15489585.61442  21592125.815    21592122.531
  21423189.486   -23879583.66843 -18405251.18342  21423192.070    21423187.894
  20085597.062   -30669624.28444 -23849533.51542  20085598.941    20085595.469
  23615270.355    -4566775.64543  -3542517.47042  23615272.837    23615269.645
  22052462.017   -22359356.49343 -17361278.61842  22052464.104    22052459.491
  23235733.997   -11006776.79743  -8513423.03142  23235736.278    23235733.415
  21683007.650   -22300709.96243 -17353407.73642  21683009.944    21683005.070
 04  2 27  2  5 30.0000000  0  8G22G 3G14G15G 9G21G31G18
  20666382.564   -23122186.00544 -17993386.77742  20666383.461    20666377.079
  21592897.764   -19891275.70743 -15486415.73042  21592899.881    21592896.605
  21408352.081   -23957554.59143 -18466007.68542  21408354.671    21408350.470
  20083708.405   -30679549.03444 -23857267.06642  20083710.301    20083706.831
  23612140.384    -4583223.20243  -3555333.67842  23612142.855    23612139.798
  22065596.315   -22290335.48543 -17307496.01342  22065598.359    22065593.711
  23224061.457   -11068115.86643  -8561219.63842  23224063.753    23224060.906
  21693853.235   -22243716.04243 -17308996.87242  21693855.533    21693850.620
 04  2 27  2  6  0.0000000  0  8G22G 3G14G15G 9G21G31G18
  20668257.073   -23112335.21844 -17985710.81242  20668257.971    20668251.588
  21593778.856   -19886645.56743 -15482807.81142  21593780.947    21593777.655
  21393593.851   -24035109.32143 -18526439.88442  21393596.430    21393592.252
  20081892.723   -30689090.46444 -23864701.92742  20081894.597    20081891.129
  23609115.054    -4599121.80543  -3567722.16442  23609117.427    23609114.350
  22078788.837   -22221008.21843 -17253474.76642  22078790.862    22078786.235
  23212480.230   -11128975.33543  -8608642.54242  23212482.473    23212479.607
  21704724.277   -22186588.46543 -17264481.86342  21704726.541    21704721.632
 04  2 27  2  6 30.0000000  0  8G22G 3G14G15G 9G21G31G18
  20670177.686   -23102242.19344 -17977846.08942  20670178.589    20670172.213
  21594767.507   -19881450.25743 -15478759.50142  21594769.582    21594766.260
  21378915.906   -24112242.13943 -18586543.31842  21378918.498    21378914.309
  20080150.935   -30698243.54544 -23871834.17942  20080152.804    20080149.347
  23606195.055    -4614466.21743  -3579678.81042  23606197.467    23606194.404
  22092040.264   -22151371.44943 -17199212.34042  22092042.300    22092037.645
  23200991.378   -11189349.56443  -8655687.31642  23200993.596    23200990.667
  21715621.223   -22129324.58343 -17219860.63842  21715623.460    21715618.572
 04  2 27  2  7  0.0000000  0  8G22G 3G14G15G 9G21G31G18
  20672142.813   -23091915.32944 -17969799.15642  20672143.714    20672137.321
  21595862.237   -19875697.28643 -15474276.65142  21595864.326    21595861.008
  21364317.286   -24188958.21543 -18646322.02142  21364319.882    21364315.651
  20078481.947   -30707014.01344 -23878668.29042  20078483.807    20078480.359
  23603379.436    -4629262.27843  -3591208.14742  23603381.815    23603378.751
  22105349.171   -22081432.64743 -17144714.56742  22105351.180    22105346.558
  23189593.790   -11249243.78743  -8702358.08642  23189596.035    23189593.152
  21726542.588   -22071932.22143 -17175139.30542  21726544.838    21726539.936
 04  2 27  2  7 30.0000000  0  8G22G 3G14G15G 9G21G31G18
  20674153.961   -23081346.54344 -17961563.71142  20674154.860    20674148.477
  21597064.711   -19869378.32643 -15469352.77342  21597066.779    21597063.432
  21349800.005   -24265246.84243 -18705767.64742  21349802.599    21349798.335
  20076887.707   -30715391.73244 -23885196.36542  20076889.565    20076886.105
  23600670.088    -4643499.58643  -3602302.11242  23600672.508    23600669.385
  22118717.116   -22011183.71343 -17089975.13642  22118719.093    22118714.483
  23178289.599   -11308647.29543  -8748646.45742  23178291.885    23178289.012
  21737489.940   -22014403.46343 -17130311.68342  21737492.192    21737487.272
 04  2 27  2  8  0.0000000  0  8G22G 3G14G15G 9G21G31G18
  20676209.454   -23070544.75144 -17953146.70442  20676210.347    20676203.961
  21598373.271   -19862501.68043 -15463994.33142  21598375.356    21598371.996
  21335362.921   -24341114.13443 -18764884.96442  21335365.512    21335361.189
  20075366.922   -30723383.48444 -23891423.68342  20075368.764    20075365.307
  23598065.896    -4657184.59943  -3612965.70542  23598068.303    23598065.166
  22132142.512   -21940632.62943 -17035000.26042  22132144.521    22132139.893
  23167077.695   -11367566.08343  -8794557.14342  23167079.972    23167077.071
  21748461.428   -21956747.50043 -17085384.93842  21748463.723    21748458.803
 04  2 27  2  8 30.0000000  0  8G22G 3G14G15G 9G21G31G18
  20678310.094   -23059505.69744 -17944544.81942  20678311.000    20678304.594
  21599788.956   -19855062.24143 -15458197.35342  21599791.033    21599787.673
  21321007.376   -24416552.75543 -18823668.24842  21321009.977    21321005.639
  20073920.834   -30730982.51844 -23897344.98942  20073922.697    20073919.235
  23595568.094    -4670310.63743  -3623193.74442  23595570.451    23595567.285
  22145626.312   -21869774.63643 -16979786.24542  22145628.290    22145623.721
  23155959.319   -11425993.05443  -8840084.58142  23155961.630    23155958.741
  21759458.045   -21898959.96543 -17040355.67442  21759460.329    21759455.388
 04  2 27  2  9  0.0000000  0  8G22G 3G14G15G 9G21G31G18
  20680454.753   -23048235.35644 -17935762.71242  20680455.657    20680449.247
  21601310.548   -19847066.03343 -15451966.53242  21601312.638    21601309.295
  21306732.797   -24491565.94243 -18882120.02842  21306735.410    21306731.040
  20072548.789   -30738192.59144 -23902963.20542  20072550.641    20072547.188
  23593175.918    -4682881.31043  -3632989.02542  23593178.333    23593175.078
  22159167.475   -21798615.42143 -16924337.50642  22159169.410    22159164.894
  23144934.002   -11483931.36343  -8885231.26242  23144936.335    23144933.390
  21770478.552   -21841046.67843 -16995228.41642  21770480.830    21770475.906
 04  2 27  2  9 30.0000000  0  8G22G 3G14G15G 9G21G31G18
  20682644.231   -23036729.44144 -17926797.04242  20682645.144    20682638.720
  21602938.974   -19838508.52043 -15445298.33142  21602941.039    21602937.705
  21292540.549   -24566146.52643 -18940234.71442  21292543.147    21292538.771
  20071251.990   -30745007.31144 -23908273.35542  20071253.840    20071250.356
  23590890.677    -4694889.99243  -3642346.38842  23590893.146    23590889.831
  22172766.967   -21727149.81243 -16868650.03042  22172768.903    22172764.324
  23134002.999   -11541373.95943  -8929991.67442  23134005.354    23134002.322
  21781523.855   -21783003.14743 -16949999.67142  21781526.147    21781521.200
 04  2 27  2 10  0.0000000  0  8G22G 3G14G15G 9G21G31G18
  20684877.359   -23024994.18444 -17917652.66342  20684878.266    20684871.849
  21604673.118   -19829395.50043 -15438197.26242  21604675.204    21604671.871
  21278429.946   -24640297.97543 -18998015.01442  21278432.555    21278428.137
  20070029.680   -30751430.42244 -23913278.35542  20070031.548    20070028.051
  23588711.599    -4706340.67643  -3651268.95342  23588714.122    23588710.721
  22186423.574   -21655383.91343 -16812728.53942  22186425.556    22186420.956
  23123165.714   -11598324.18143  -8974368.41242  23123168.034    23123164.951
  21792592.793   -21724835.48343 -16904674.20042  21792595.071    21792590.110
 04  2 27  2 10 30.0000000  0  8G22G 3G14G15G 9G21G31G18
  20687155.302   -23013023.35844 -17908324.72842  20687156.209    20687149.797
  21606514.230   -19819720.22643 -15430658.07942  21606516.337    21606513.017
  21264402.708   -24714011.25043 -19055453.87542  21264405.314    21264400.911
  20068883.527   -30757453.54944 -23917971.68142  20068885.366    20068881.865
  23586640.353    -4717224.94743  -3659750.16342  23586642.861    23586639.461
  22200138.575   -21583311.09243 -16756567.89242  22200140.599    22200135.929
  23112423.784   -11654773.21743  -9018354.62842  23112426.123    23112423.044
  21803686.408   -21666538.06843 -16859247.62142  21803688.673    21803683.712
 04  2 27  2 11  0.0000000  0  8G22G 3G14G15G 9G21G31G18
  20689476.611   -23000824.68244 -17898819.24542  20689477.516    20689471.109
  21608460.902   -19809490.24243 -15422686.65042  21608463.009    21608459.687
  21250457.957   -24787291.24443 -19112555.11542  21250460.554    21250456.149
  20067812.410   -30763082.10444 -23922357.54542  20067814.289    20067810.754
  23584675.852    -4727548.07343  -3667794.09542  23584678.419    23584674.981
  22213910.663   -21510938.28043 -16700173.48642  22213912.685    22213908.028
  23101776.413   -11710725.91143  -9061954.06942  23101778.598    23101775.519
  21814803.379   -21608117.87843 -16813725.38142  21814805.676    21814800.668
 04  2 27  2 11 30.0000000  0  8G22G 3G14G15G 9G21G31G18
  20691841.992   -22988394.45744 -17889133.33842  20691842.894    20691836.486
  21610513.840   -19798701.94443 -15414280.17342  21610515.924    21610512.610
  21236596.835   -24860131.76543 -19169313.91442  21236599.408    21236594.999
  20066817.473   -30768310.46444 -23926431.57342  20066819.367    20066815.822
  23582819.273    -4737304.32943  -3675396.32242  23582821.877    23582818.407
  22227740.587   -21438261.38843 -16643542.13442  22227742.640    22227737.938
  23091224.584   -11766175.97943  -9105161.86642  23091226.806    23091223.632
  21825944.376   -21549571.45143 -16768104.77042  21825946.658    21825941.669
 04  2 27  2 12  0.0000000  0  8G22G 3G14G15G 9G21G31G18
  20694250.489   -22975737.79444 -17879270.98442  20694251.365    20694244.944
  21612672.187   -19787359.74843 -15405442.08942  21612674.265    21612670.967
  21222818.902   -24932535.03643 -19225731.99442  21222821.500    21222817.085
  20065898.188   -30773141.29244 -23930195.83342  20065900.096    20065896.517
  23581070.009    -4746496.58243  -3682559.07842  23581072.576    23581069.129
  22241627.554   -21365284.83643 -16586677.28842  22241629.597    22241624.923
  23080768.005   -11821125.65343  -9147979.75142  23080770.162    23080766.999
  21837108.459   -21490903.52943 -16722389.48842  21837110.750    21837105.785
 04  2 27  2 12 30.0000000  0  8G22G 3G14G15G 9G21G31G18
  20696702.394   -22962852.76644 -17869230.68442  20696703.299    20696696.869
  21614936.383   -19775461.49243 -15396170.70642  21614938.439    21614935.123
  21209125.073   -25004496.31643 -19281805.67042  21209127.666    21209123.239
  20065055.299   -30777570.62544 -23933647.24042  20065057.223    20065053.638
  23579428.817    -4755120.85143  -3689279.22842  23579431.341    23579427.898
  22255571.918   -21292006.66543 -16529577.39842  22255573.974    22255569.327
  23070407.433   -11875570.42643  -9190404.21642  23070409.647    23070406.432
  21848296.076   -21432112.27843 -16676578.11142  21848298.323    21848293.370
 04  2 27  2 13  0.0000000  0  8G22G 3G14G15G 9G21G31G18
  20699197.285   -22949742.01244 -17859014.49342  20699198.179    20699191.734
  21617305.873   -19763009.48643 -15386467.82942  21617307.958    21617304.620
  21195515.361   -25076015.59943 -19337534.92842  21195517.964    21195513.532
  20064288.745   -30781598.80044 -23936786.05542  20064290.655    20064287.073
  23577895.656    -4763177.51143  -3695557.09242  23577898.160    23577894.691
  22269573.281   -21218428.87743 -16472244.04642  22269575.378    22269570.679
  23060143.013   -11929510.24543  -9232435.20742  23060145.204    23060142.008
  21859506.631   -21373200.27443 -16630672.63342  21859508.889    21859503.936
 04  2 27  2 13 30.0000000  0  8G22G 3G14G15G 9G21G31G18
  20701735.263   -22936404.75044 -17848621.80242  20701736.181    20701729.687
  21619780.863   -19750003.21743 -15376333.05842  21619782.938    21619779.619
  21181990.411   -25147089.60643 -19392917.22142  21181993.015    21181988.553
  20063599.036   -30785223.15644 -23939610.21042  20063600.938    20063597.353
  23576470.984    -4770663.94243  -3701390.63442  23576473.445    23576469.905
  22283631.880   -21144550.47443 -16414676.43942  22283633.950    22283629.237
  23049975.322   -11982941.70943  -9274070.05742  23049977.486    23049974.334
  21870740.349   -21314166.64943 -16584672.38642  21870742.612    21870737.659
 04  2 27  2 14  0.0000000  0  8G22G 3G14G15G 9G21G31G18
  20704315.771   -22922844.02844 -17838054.99142  20704316.677    20704310.184
  21622360.823   -19736445.38443 -15365768.50142  21622362.922    21622359.586
  21168550.125   -25217718.53343 -19447952.69942  21168552.737    21168548.262
  20062986.018   -30788444.52644 -23942120.35342  20062987.915    20062984.327
  23575154.676    -4777580.93943  -3706780.43942  23575157.170    23575153.672
  22297747.270   -21070373.90443 -16356876.51342  22297749.267    22297744.551
  23039904.310   -12035865.32543  -9315309.20342  23039906.475    23039903.290
  21881996.613   -21255014.60843 -16538579.87142  21881998.862    21881993.941
 04  2 27  2 14 30.0000000  0  8G22G 3G14G15G 9G21G31G18
  20706939.326   -22909057.21944 -17827312.00542  20706940.203    20706933.693
  21625046.210   -19722333.26043 -15354772.02542  21625048.353    21625045.030
  21155195.535   -25287897.21943 -19502637.34142  21155198.125    21155193.674
  20062450.624   -30791257.95544 -23944312.61742  20062452.517    20062448.917
  23573947.571    -4783923.87743  -3711722.95042  23573950.120    23573946.577
  22311919.895   -20995896.17043 -16298841.90742  22311921.912    22311917.167
  23029930.888   -12088275.84743  -9356148.52042  23029933.060    23029929.825
  21893275.905   -21195741.58343 -16492393.08242  21893278.141    21893273.206
 04  2 27  2 15  0.0000000  0  8G22G 3G14G15G 9G21G31G18
  20709604.687   -22895050.64744 -17816397.77342  20709605.574    20709599.021
  21627835.981   -19707672.90943 -15343348.35442  21627838.106    21627834.777
  21141925.923   -25357629.34643 -19556974.01642  21141928.505    21141924.063
  20061992.094   -30793667.55644 -23946190.21342  20061993.975    20061990.372
  23572848.973    -4789696.91943  -3716221.38142  23572851.525    23572847.999
  22326148.694   -20921123.23743 -16240577.28542  22326150.677    22326145.951
  23020054.354   -12140176.96843  -9396590.89842  23020056.577    23020053.345
  21904577.117   -21136353.11943 -16446116.33542  21904579.406    21904574.433
 04  2 27  2 15 30.0000000  0  8G22G 3G14G15G 9G21G31G18
  20712313.159   -22880817.38044 -17805306.89942  20712314.053    20712307.494
  21630731.346   -19692457.58743 -15331492.24542  21630733.443    21630730.134
  21128743.080   -25426905.39843 -19610955.30542  21128745.667    21128741.218
  20061612.125   -30795664.40044 -23947746.17942  20061613.979    20061610.355
  23571860.451    -4794891.23443  -3720268.86042  23571863.081    23571859.494
  22340435.072   -20846047.71243 -16182076.86842  22340437.026    22340432.357
  23010276.587   -12191559.24043  -9436628.98342  23010278.780    23010275.577
  21915901.672   -21076842.25843 -16399744.21942  21915903.920    21915898.965
 04  2 27  2 16  0.0000000  0  8G22G 3G14G15G 9G21G31G18
  20715062.975   -22866367.07044 -17794046.89642  20715063.831    20715057.258
  21633730.588   -19676696.58343 -15319210.92242  21633732.676    21633729.321
  21115645.746   -25495732.06543 -19664586.42742  21115648.329    21115643.896
  20061309.262   -30797255.80144 -23948986.21342  20061311.136    20061307.492
  23570980.739    -4799514.33343  -3723871.22842  23570983.303    23570979.682
  22354777.247   -20770679.19543 -16123348.13642  22354779.132    22354774.490
  23000596.224   -12242429.66143  -9476268.21542  23000598.471    23000595.232
  21927247.600   -21017218.89643 -16353284.43642  21927249.873    21927244.888
 04  2 27  2 16 30.0000000  0  8G22G 3G14G15G 9G21G31G18
  20717854.999   -22851694.64544 -17782613.81942  20717855.894    20717849.308
  21636834.512   -19660385.22443 -15306500.75042  21636836.617    21636833.246
  21102635.316   -25564102.20543 -19717861.81442  21102637.905    21102633.455
  20061084.875   -30798434.86344 -23949904.94942  20061086.742    20061083.097
  23570210.918    -4803559.57643  -3727023.30942  23570213.521    23570209.888
  22369176.191   -20695012.06643 -16064386.72342  22369178.113    22369173.461
  22991014.658   -12292780.77143  -9515502.79342  22991016.910    22991013.643
  21938615.920   -20957478.01343 -16306733.07942  21938618.178    21938613.191
 04  2 27  2 17  0.0000000  0  8G22G 3G14G15G 9G21G31G18
  20720688.508   -22836804.27844 -17771010.91842  20720689.409    20720682.845
  21640042.376   -19643527.61843 -15293364.93542  21640044.468    21640041.134
  21089711.456   -25632017.39744 -19770782.69742  21089714.024    21089709.587
  20060938.534   -30799203.82644 -23950504.12542  20060940.423    20060936.759
  23569550.634    -4807029.20043  -3729726.87142  23569553.251    23569549.581
  22383631.204   -20619050.36943 -16005195.78442  22383633.115    22383628.464
  22981531.585   -12342614.31843  -9554334.07242  22981533.903    22981530.572
  21950005.881   -20897623.19143 -16260092.93242  21950008.162    21950003.162
 04  2 27  2 17 30.0000000  0  8G22G 3G14G15G 9G21G31G18
  20723563.415   -22821696.33544 -17759238.47642  20723564.315    20723557.765
  21643354.177   -19626123.91243 -15279803.58242  21643356.277    21643352.925
  21076874.625   -25699475.31944 -19823347.26542  21076877.196    21076872.728
  20060870.594   -30799560.81744 -23950782.28642  20060872.475    20060868.789
  23569000.284    -4809921.42543  -3731980.50442  23569002.790    23568999.137
  22398142.307   -20542793.87443 -15945775.13342  22398144.228    22398139.590
  22972147.472   -12391928.03643  -9592760.30342  22972149.757    22972146.433
  21961417.474   -20837654.77843 -16213364.27642  21961419.752    21961414.757
 04  2 27  2 18  0.0000000  0  8G22G 3G14G15G 9G21G31G18
  20726479.876   -22806370.08544 -17747295.92542  20726480.773    20726474.223
  21646769.998   -19608173.45843 -15265816.19342  21646772.100    21646768.763
  21064125.402   -25766472.79544 -19875553.04642  21064127.979    21064123.481
  20060881.569   -30799503.12444 -23950737.31042  20060883.454    20060879.740
  23568560.221    -4812233.88843  -3733782.38442  23568562.657    23568559.052
  22412709.706   -20466241.71643 -15886124.09642  22412711.644    22412706.946
  22962862.832   -12440718.98943  -9630779.16942  22962865.088    22962861.785
  21972850.823   -20777572.11443 -16166546.59342  21972853.069    21972848.087
 04  2 27  2 18 30.0000000  0  8G22G 3G14G15G 9G21G31G18
  20729437.425   -22790827.91044 -17735185.11842  20729438.334    20729431.769
  21650289.384   -19589679.05043 -15251404.94842  21650291.462    21650288.085
  21051463.783   -25833009.79944 -19927400.02242  21051466.376    21051461.851
  20060971.430   -30799031.00744 -23950369.41642  20060973.312    20060969.580
  23568230.307    -4813967.20443  -3735132.96442  23568232.758    23568229.199
  22427332.984   -20389396.02643 -15826244.34042  22427334.904    22427330.196
  22953677.685   -12488987.05843  -9668390.59642  22953679.951    22953676.604
  21984305.411   -20717377.57143 -16119641.73042  21984307.697    21984302.743
 04  2 27  2 19  0.0000000  0  8G22G 3G14G15G 9G21G31G18
  20732436.356   -22775068.25044 -17722904.84442  20732437.265    20732430.715
  21653912.580   -19570639.00043 -15236568.53042  21653914.658    21653911.260
  21038890.549   -25899082.39444 -19978885.11642  21038893.127    21038888.612
  20061140.734   -30798141.09444 -23949675.96042  20061142.628    20061138.903
  23568011.237    -4815118.05143  -3736029.69842  23568013.704    23568010.154
  22442012.511   -20312254.77343 -15766134.27342  22442014.404    22442009.684
  22944592.804   -12536728.32843  -9705591.54142  22944595.052    22944591.672
  21995781.675   -20657069.26343 -16072648.21542  21995783.965    21995779.015
 04  2 27  2 19 30.0000000  0  8G22G 3G14G15G 9G21G31G18
  20735475.392   -22759097.92244 -17710460.41342  20735476.303    20735469.760
  21657638.277   -19551060.29543 -15221312.37342  21657640.352    21657636.936
  21026404.951   -25964694.50344 -20030011.39542  21026407.526    21026403.001
  20061388.703   -30796837.99244 -23948660.54142  20061390.587    20061386.875
  23567902.136    -4815691.31443  -3736476.35142  23567904.562    23567901.073
  22456746.953   -20234824.66743 -15705799.13542  22456748.875    22456744.160
  22935607.335   -12583946.88943  -9742385.18642  22935609.642    22935606.199
  22007278.335   -20596653.66543 -16025571.10942  22007280.641    22007275.690
 04  2 27  2 20  0.0000000  0  8G22G 3G14G15G 9G21G31G18
  20738555.695   -22742910.69344 -17697846.96642  20738556.607    20738550.057
  21661467.605   -19530936.96443 -15205631.83942  21661469.673    21661466.263
  21014008.537   -26029837.95444 -20080772.48042  21014011.115    21014006.569
  20061716.807   -30795113.66544 -23947316.89342  20061718.700    20061714.988
  23567904.273    -4815679.26043  -3736466.90342  23567906.854    23567903.392
  22471537.578   -20157099.37243 -15645233.98642  22471539.501    22471534.778
  22926722.929   -12630634.59443  -9778765.16542  22926725.212    22926721.775
  22018796.554   -20536124.79843 -15978405.73442  22018798.868    22018793.950
 04  2 27  2 20 30.0000000  0  8G22G 3G14G15G 9G21G31G18
  20741676.093   -22726512.86644 -17685069.42242  20741676.987    20741670.430
  21665399.359   -19510275.44343 -15189531.93542  21665401.430    21665398.000
  21001700.598   -26094516.50344 -20131171.30942  21001703.161    21001698.593
  20062124.277   -30792972.41944 -23945648.37042  20062126.149    20062122.426
  23568017.048    -4815086.44943  -3736004.92742  23568019.600    23568016.135
  22486383.325   -20079084.43443 -15584443.11842  22486385.221    22486380.538
  22917938.833   -12676795.30543  -9814734.50242  22917941.068    22917937.651
  22030335.236   -20475488.65843 -15931156.76842  22030337.512    22030332.613
 04  2 27  2 21  0.0000000  0  8G22G 3G14G15G 9G21G31G18
  20744836.777   -22709903.22844 -17672126.82742  20744837.678    20744831.133
  21669433.674   -19489074.70843 -15173011.86942  21669435.761    21669432.384
  20989481.817   -26158726.41244 -20181204.96442  20989484.378    20989479.790
  20062611.764   -30790410.65144 -23943652.16942  20062613.623    20062609.890
  23568240.863    -4813909.79843  -3735088.02342  23568243.506    23568239.995
  22501284.265   -20000779.35443 -15523426.17442  22501286.162    22501281.531
  22909255.686   -12722425.25343  -9850290.25942  22909257.965    22909254.486
  22041894.551   -20414743.91143 -15883823.18442  22041896.822    22041891.935
 04  2 27  2 21 30.0000000  0  8G22G 3G14G15G 9G21G31G18
  20748037.925   -22693081.12244 -17659018.67342  20748038.813    20748032.226
  21673570.696   -19467334.43843 -15156071.38442  21673572.773    21673569.397
  20977352.740   -26222464.94444 -20230871.31042  20977355.297    20977350.695
  20063179.733   -30787425.87344 -23941326.35042  20063181.598    20063177.865
  23568576.207    -4812147.44343  -3733714.71942  23568578.868    23568575.318
  22516240.757   -19922182.49643 -15462181.86342  22516242.624    22516237.975
  22900674.049   -12767521.80643  -9885430.39342  22900676.318    22900672.877
  22053474.694   -20353889.95943 -15836404.49942  22053476.942    22053472.041
 04  2 27  2 22  0.0000000  0  8G22G 3G14G15G 9G21G31G18
  20751279.086   -22676048.54544 -17645746.51542  20751279.985    20751273.370
  21677809.935   -19445057.07143 -15138712.37742  21677812.007    21677808.603
  20965313.491   -26285731.56644 -20280169.93642  20965316.017    20965311.416
  20063828.163   -30784018.25044 -23938671.04142  20063830.039    20063826.296
  23569022.970    -4809799.62443  -3731885.21042  23569025.585    23569022.029
  22531252.392   -19843295.72243 -15400711.64942  22531254.215    22531249.634
  22892193.966   -12812084.76143  -9920154.72642  22892196.204    22892192.788
  22065075.372   -20292927.91443 -15788901.58642  22065077.596    22065072.709
 04  2 27  2 22 30.0000000  0  8G22G 3G14G15G 9G21G31G18
  20754560.007   -22658807.13844 -17632311.63142  20754560.906    20754554.268
  21682150.992   -19422244.37243 -15120936.23942  21682153.050    21682149.682
  20953364.159   -26348525.55744 -20329100.27742  20953366.701    20953362.078
  20064557.128   -30780187.34444 -23935685.89942  20064559.002    20064555.274
  23569581.173    -4806866.08443  -3729599.29642  23569583.758    23569580.198
  22546318.913   -19764120.57743 -15339016.72142  22546320.724    22546316.108
  22883815.549   -12856113.29343  -9954462.62742  22883817.820    22883814.375
  22076696.224   -20231859.60443 -15741315.87342  22076698.495    22076693.620
 04  2 27  2 23  0.0000000  0  8G22G 3G14G15G 9G21G31G18
  20757879.816   -22641361.29944 -17618717.45342  20757880.730    20757874.081
  21686593.094   -19398901.05143 -15102746.62142  21686595.169    21686591.768
  20941504.346   -26410849.12644 -20377664.05942  20941506.887    20941502.239
  20065366.161   -30775935.74144 -23932372.94242  20065368.025    20065364.307
  23570250.313    -4803349.99543  -3726859.44642  23570252.869    23570249.217
  22561439.484   -19684661.46743 -15277100.52542  22561441.284    22561436.744
  22875538.500   -12899609.66143  -9988355.86842  22875540.696    22875537.232
  22088336.511   -20170689.50643 -15693650.84442  22088338.769    22088333.847
 04  2 27  2 23 30.0000000  0  8G22G 3G14G15G 9G21G31G18
  20761240.062   -22623703.10844 -17604957.80642  20761240.951    20761234.296
  21691137.529   -19375019.76943 -15084137.81642  21691139.611    21691136.188
  20929735.999   -26472692.07144 -20425853.32842  20929738.539    20929733.884
  20066257.155   -30771253.55144 -23928724.46342  20066259.004    20066255.267
  23571032.031    -4799242.14843  -3723658.49542  23571034.546    23571030.863
  22576615.582   -19604910.35943 -15214956.82442  22576617.416    22576612.878
  22867364.589   -12942563.89843 -10021826.66842  22867366.740    22867363.293
  22099997.787   -20109409.23743 -15645899.97342  22100000.006    22099995.080
 04  2 27  2 24  0.0000000  0  8G22G 3G14G15G 9G21G31G18
  20764639.223   -22605840.34244 -17591038.74842  20764640.094    20764633.454
  21695782.796   -19350608.63843 -15065116.14742  21695784.881    21695781.477
  20918058.043   -26534060.04644 -20473672.49142  20918060.574    20918055.891
  20067228.910   -30766146.94144 -23924745.26842  20067230.742    20067227.011
  23571925.067    -4794548.95443  -3720001.42742  23571927.623    23571923.906
  22591845.796   -19524874.89543 -15152591.51742  22591847.706    22591843.100
  22859292.765   -12984981.56343 -10054879.35242  22859294.962    22859291.452
  22111678.413   -20048027.10643 -15598069.73442  22111680.641    22111675.695
 04  2 27  2 24 30.0000000  0  8G22G 3G14G15G 9G21G31G18
  20768077.488   -22587772.07244 -17576959.56042  20768078.366    20768071.712
  21700529.024   -19325667.12443 -15045681.19242  21700531.109    21700527.693
  20906471.098   -26594949.66044 -20521118.90542  20906473.637    20906468.952
  20068281.976   -30760612.91944 -23920433.02142  20068283.787    20068280.083
  23572930.088    -4789267.47443  -3715885.94842  23572932.594    23572928.933
  22607130.326   -19444553.90943 -15090003.74542  22607132.282    22607127.666
  22851323.636   -13026859.55743 -10087511.52942  22851325.864    22851322.309
  22123378.686   -19986541.58743 -15550158.92142  22123380.935    22123375.974
 04  2 27  2 25  0.0000000  0  8G22G 3G14G15G 9G21G31G18
  20771554.924   -22569497.98544 -17562719.99342  20771555.798    20771549.128
  21705376.170   -19300195.08243 -15025832.83842  21705378.284    21705374.840
  20894975.687   -26655358.35344 -20568190.58042  20894978.231    20894973.511
  20069416.792   -30754649.33844 -23915786.05542  20069418.603    20069414.905
  23574047.358    -4783396.02243  -3711310.73342  23574049.842    23574046.185
  22622469.416   -19363946.58143 -15027192.84942  22622471.331    22622466.717
  22843457.661   -13068195.38443 -10119721.23142  22843459.909    22843456.323
  22135098.790   -19924952.08343 -15502167.08542  22135101.013    22135096.049
 04  2 27  2 25 30.0000000  0  8G22G 3G14G15G 9G21G31G18
  20775070.790   -22551021.92444 -17548323.04842  20775071.670    20775064.988
  21710323.476   -19274196.78943 -15005574.41742  21710325.593    21710322.150
  20883571.428   -26715287.94644 -20614888.92742  20883573.977    20883569.258
  20070632.964   -30748258.16344 -23910805.89842  20070634.801    20070631.101
  23575276.350    -4776937.37143  -3706278.01042  23575278.866    23575275.131
  22637862.153   -19283057.08143 -14964162.06442  22637864.050    22637859.473
  22835694.553   -13108990.81643 -10151509.84542  22835696.780    22835693.194
  22146837.887   -19863262.52643 -15454097.28842  22146840.122    22146835.142
 04  2 27  2 26  0.0000000  0  8G22G 3G14G15G 9G21G31G18
  20778625.707   -22532340.60144 -17533766.15842  20778626.590    20778619.930
  21715371.419   -19247669.60143 -14984903.87142  21715373.523    21715370.093
  20872259.433   -26774732.78444 -20661209.54342  20872261.975    20872257.255
  20071931.479   -30741434.31644 -23905488.59942  20071933.316    20071929.614
  23576617.904    -4769886.96343  -3700784.14142  23576620.470    23576616.738
  22653309.189   -19201882.10843 -14900908.82442  22653311.120    22653306.617
  22828035.298   -13149240.50943 -10182873.21642  22828037.533    22828033.890
  22158596.729   -19801469.29843 -15405946.70342  22158598.977    22158593.973
 04  2 27  2 26 30.0000000  0  8G22G 3G14G15G 9G21G31G18
  20782218.668   -22513459.37344 -17519053.50142  20782219.550    20782212.890
  21720518.819   -19220619.71843 -14963826.03342  21720520.924    21720517.492
  20861039.007   -26833696.39244 -20707155.17542  20861041.549    20861036.802
  20073311.656   -30734181.29244 -23899836.87342  20073313.522    20073309.797
  23578071.345    -4762248.78643  -3694832.28942  23578073.885    23578070.151
  22668809.593   -19120426.77843 -14837437.14842  22668811.553    22668807.054
  22820479.159   -13188947.94543 -10213814.04442  22820481.417    22820477.747
  22170374.371   -19739577.42443 -15357719.25642  22170376.579    22170371.598
 04  2 27  2 27  0.0000000  0  8G22G 3G14G15G 9G21G31G18
  20785850.184   -22494375.17844 -17504182.68442  20785851.138    20785844.469
  21725766.226   -19193044.39943 -14942338.76342  21725768.321    21725764.893
  20849911.116   -26892173.55544 -20752721.75942  20849913.676    20849908.960
  20074774.455   -30726494.32844 -23893847.01742  20074776.292    20074772.564
  23579637.541    -4754018.40643  -3688418.96742  23579640.078    23579636.325
  22684363.973   -19038687.98343 -14773744.59042  22684365.968    22684361.451
  22813027.160   -13228108.07643 -10244328.39442  22813029.382    22813025.779
  22182171.343   -19677583.71243 -15309412.45242  22182173.573    22182168.582
 04  2 27  2 27 30.0000000  0  8G22G 3G14G15G 9G21G31G18
  20789520.190   -22475089.07744 -17489154.53942  20789521.147    20789514.484
  21731113.343   -19164945.17843 -14920443.25942  21731115.420    21731112.006
  20838876.032   -26950163.06044 -20797908.35342  20838878.583    20838873.882
  20076320.004   -30718372.33844 -23887518.17842  20076321.837    20076318.097
  23581316.474    -4745195.55443  -3681543.99042  23581318.932    23581315.237
  22699972.105   -18956666.65243 -14709831.87042  22699974.115    22699969.594
  22805679.528   -13266719.82343 -10274415.44242  22805681.733    22805678.143
  22193987.540   -19615489.02543 -15261026.96142  22193989.762    22193984.798
 04  2 27  2 28  0.0000000  0  8G22G 3G14G15G 9G21G31G18
  20793227.938   -22455604.73044 -17473971.91542  20793228.897    20793222.211
  21736559.297   -19136326.49143 -14898142.97442  21736561.366    21736557.971
  20827933.409   -27007666.74744 -20842716.38342  20827935.961    20827931.257
  20077947.923   -30709817.43444 -23880852.00142  20077949.784    20077946.026
  23583107.618    -4735782.99443  -3674209.49542  23583110.067    23583106.368
  22715633.191   -18874366.60143 -14645701.95842  22715635.333    22715630.777
  22798435.940   -13304785.07643 -10304076.64642  22798438.141    22798434.525
  22205822.250   -19553297.08343 -15212565.68442  22205824.508    22205819.515
 04  2 27  2 28 30.0000000  0  8G22G 3G14G15G 9G21G31G18
  20796973.243   -22435923.04444 -17458635.52742  20796974.192    20796967.505
  21742103.820   -19107189.77643 -14875439.03142  21742105.877    21742102.494
  20817083.462   -27064683.44644 -20887144.94742  20817086.000    20817081.299
  20079658.366   -30700828.91744 -23873847.95142  20079660.212    20079656.486
  23585011.088    -4725780.42643  -3666415.24542  23585013.513    23585009.819
  22731347.206   -18791788.93243 -14581355.72642  22731349.332    22731344.784
  22791296.482   -13342302.86843 -10333311.25342  22791298.697    22791295.113
  22217675.305   -19491008.62043 -15164029.20942  22217677.612    22217672.615
 04  2 27  2 29  0.0000000  0  8G22G 3G14G15G 9G21G31G18
  20800756.723   -22416040.83444 -17443142.88042  20800757.654    20800750.975
  21747747.424   -19077532.42443 -14852329.40142  21747749.456    21747746.114
  20806327.192   -27121207.87444 -20931189.91842  20806329.732    20806325.015
  20081452.301   -30691401.62144 -23866501.99642  20081454.150    20081450.412
  23587027.565    -4715183.49543  -3658157.87142  23587029.986    23587026.294
  22747114.668   -18708930.24143 -14516790.51542  22747116.881    22747112.236
  22784262.215   -13379267.93043 -10362115.15542  22784264.437    22784260.875
  22229547.430   -19428620.12243 -15115414.77642  22229549.724    22229544.716
 04  2 27  2 29 30.0000000  0  8G22G 3G14G15G 9G21G31G18
  20804577.721   -22395961.34544 -17427496.51542  20804578.630    20804571.963
  21753489.374   -19047358.18843 -14828817.00642  21753491.415    21753488.080
  20795664.422   -27177240.89144 -20974851.97442  20795666.957    20795662.225
  20083329.509   -30681536.78944 -23858815.09942  20083331.357    20083327.623
  23589156.770    -4703994.13043  -3649438.85742  23589159.183    23589155.592
  22762935.129   -18625793.35543 -14452008.53942  22762937.357    22762932.651
  22777332.943   -13415681.42243 -10390489.27042  22777335.163    22777331.609
  22241438.006   -19366134.55843 -15066724.70642  22241440.352    22241435.287
 04  2 27  2 30  0.0000000  0  8G22G 3G14G15G 9G21G31G18
  20808435.908   -22375686.33944 -17411697.79442  20808436.812    20808430.159
  21759329.163   -19016669.72143 -14804903.90742  21759331.215    21759327.869
  20785095.150   -27232782.58644 -21018131.18042  20785097.686    20785092.937
  20085289.866   -30671234.91344 -23850787.65042  20085291.719    20085287.989
  23591398.586    -4692213.00943  -3640258.73242  23591401.089    23591397.351
  22778808.124   -18542380.23343 -14387011.29542  22778810.317    22778805.605
  22770508.578   -13451543.61343 -10418433.79542  22770510.785    22770507.258
  22253346.774   -19303553.70543 -15017960.39242  22253349.082    22253343.994
 04  2 27  2 30 30.0000000  0  8G22G 3G14G15G 9G21G31G18
  20812331.214   -22355216.30144 -17395747.10442  20812332.115    20812325.483
  21765266.609   -18985468.39243 -14780591.18342  21765268.643    21765265.300
  20774619.560   -27287831.90344 -21061026.71542  20774622.118    20774617.374
  20087333.571   -30660495.09144 -23842418.94442  20087335.419    20087331.678
  23593753.128    -4679839.89643  -3630617.32242  23593755.541    23593751.915
  22794733.468   -18458692.01943 -14321799.69742  22794735.664    22794730.900
  22763789.328   -13486853.37043 -10445947.85042  22763791.530    22763788.001
  22265273.624   -19240878.05943 -14969122.20942  22265275.864    22265270.751
 04  2 27  2 31  0.0000000  0  8G22G 3G14G15G 9G21G31G18
  20816263.931   -22334549.65244 -17379643.20542  20816264.835    20816258.211
  21771301.827   -18953753.13143 -14755877.99042  21771303.855    21771300.531
  20764238.446   -27342384.93644 -21103535.54342  20764241.003    20764236.240
  20089461.321   -30649313.64444 -23833706.12042  20089463.172    20089459.439
  23596220.772    -4666872.03243  -3620512.45742  23596223.205    23596219.543
  22810711.503   -18374726.82243 -14256372.26242  22810713.720    22810708.967
  22757175.903   -13521606.89743 -10473028.48042  22757178.141    22757174.585
  22277218.905   -19178105.29043 -14920208.34742  22277221.123    22277215.990
 04  2 27  2 31 30.0000000  0  8G22G 3G14G15G 9G21G31G18
  20820233.032   -22313691.90144 -17363390.39842  20820233.927    20820227.306
  21777433.636   -18921530.12143 -14730769.14442  21777435.697    21777432.319
  20753951.141   -27396444.97644 -21145660.21542  20753953.684    20753948.900
  20091672.400   -30637694.25444 -23824652.04042  20091674.246    20091670.536
  23598800.810    -4653313.77443  -3609947.56242  23598803.333    23598799.545
  22826741.255   -18290489.94143 -14190733.11942  22826743.518    22826738.717
  22750667.696   -13555807.94943 -10499678.62142  22750669.898    22750666.307
  22289181.662   -19115240.47743 -14871222.76742  22289183.890    22289178.738
 04  2 27  2 32  0.0000000  0  8G22G 3G14G15G 9G21G31G18
  20824239.351   -22292638.52444 -17346985.15342  20824240.244    20824233.599
  21783662.779   -18888795.71743 -14705261.81142  21783664.841    21783661.498
  20743758.789   -27450006.07544 -21187396.10542  20743761.319    20743756.523
  20093967.989   -30625630.97644 -23815252.07642  20093969.804    20093966.098
  23601494.222    -4639159.80443  -3598918.45942  23601496.710    23601492.947
  22842823.450   -18205977.27743 -14124879.09042  22842825.723    22842820.950
  22744265.698   -13589450.50443 -10525893.55942  22744267.912    22744264.302
  22301162.761   -19052279.33043 -14822162.11942  22301164.993    22301159.811
 04  2 27  2 32 30.0000000  0  8G22G 3G14G15G 9G21G31G18
  20828281.850   -22271395.01044 -17330431.74842  20828282.748    20828276.104
  21789988.053   -18855556.38143 -14679361.03242  21789990.074    21789986.736
  20733660.684   -27503071.83744 -21228746.01842  20733663.238    20733658.406
  20096347.284   -30613127.66744 -23805509.23242  20096349.099    20096345.398
  23604300.053    -4624414.70743  -3587428.76042  23604302.530    23604298.909
  22858957.146   -18121194.22443 -14058814.38842  22858959.423    22858954.645
  22737969.291   -13622538.29543 -10551676.21942  22737971.472    22737967.871
  22313161.141   -18989227.32543 -14773030.66842  22313163.413    22313158.185
 04  2 27  2 33  0.0000000  0  8G22G 3G14G15G 9G21G31G18
  20832361.214   -22249957.73944 -17313727.36242  20832362.110    20832355.454
  21796409.886   -18821809.43143 -14653064.70442  21796411.917    21796408.544
  20723657.882   -27555636.86644 -21269705.74642  20723660.440    20723655.582
  20098811.287   -30600179.25244 -23795419.54942  20098813.090    20098809.389
  23607219.281    -4609074.12643  -3575475.02442  23607221.788    23607218.090
  22875142.862   -18036137.65843 -13992536.53742  22875145.109    22875140.347
  22731779.449   -13655066.14443 -10577022.56742  22731781.620    22731778.021
  22325177.525   -18926080.71343 -14723825.50442  22325179.775    22325174.544
 04  2 27  2 33 30.0000000  0  8G22G 3G14G15G 9G21G31G18
  20836476.662   -22228330.81144 -17296875.19042  20836477.557    20836470.910
  21802927.433   -18787559.59543 -14626376.52142  21802929.446    21802926.058
  20713749.970   -27607703.28744 -21310276.95142  20713752.521    20713747.620
  20101359.567   -30586787.97744 -23784984.78142  20101361.371    20101357.630
  23610251.277    -4593141.09443  -3563059.63942  23610253.784    23610249.964
  22891379.923   -17950811.43743 -13926048.56742  22891382.182    22891377.384
  22725695.721   -13687036.31543 -10601934.35342  22725697.854    22725694.259
  22337211.258   -18862842.91943 -14674549.28742  22337213.488    22337208.254
 04  2 27  2 34  0.0000000  0  8G22G 3G14G15G 9G21G31G18
  20840628.235   -22206514.03444 -17279875.08442  20840629.145    20840622.483
  21809540.518   -18752807.63943 -14599297.07942  21809542.534    21809539.167
  20703937.299   -27659269.08344 -21350458.06042  20703939.874    20703934.943
  20103992.377   -30572952.34344 -23774203.75342  20103994.183    20103990.460
  23613396.057    -4576614.48843  -3550181.75442  23613398.615    23613394.796
  22907668.357   -17865215.37543 -13859350.34442  22907670.585    22907665.776
  22719718.416   -13718447.02043 -10626410.21642  22719720.551    22719716.975
  22349262.405   -18799514.05943 -14625202.11942  22349264.551    22349259.294
 04  2 27  2 34 30.0000000  0  8G22G 3G14G15G 9G21G31G18
  20844816.035   -22184506.92044 -17262726.66042  20844816.953    20844810.282
  21816249.054   -18717553.81043 -14571826.56342  21816251.124    21816247.734
  20694220.291   -27710332.15344 -21390247.43342  20694222.893    20694217.904
  20106710.190   -30558670.12244 -23763074.74142  20106711.985    20106708.247
  23616654.064    -4559493.03343  -3536840.32542  23616656.637    23616652.868
  22924008.165   -17779349.54943 -13792441.93242  22924010.275    22924005.541
  22713847.999   -13749296.18643 -10650448.50642  22713850.128    22713846.509
  22361331.037   -18736092.92443 -14575783.03742  22361333.162    22361327.910
 04  2 27  2 35  0.0000000  0  8G22G 3G14G15G 9G21G31G18
  20849039.789   -22162310.91344 -17245431.04542  20849040.693    20849034.018
  21823052.616   -18681800.77243 -14543967.05642  21823054.710    21823051.338
  20684599.010   -27760892.17644 -21429644.81942  20684601.604    20684596.602
  20109512.946   -30543941.47144 -23751597.86042  20109514.738    20109511.017
  23620025.164    -4541777.71043  -3523036.15642  23620027.751    23620024.039
  22940398.945   -17693215.31243 -13725324.34042  22940401.144    22940396.368
  22708084.463   -13779583.78543 -10674049.20042  22708086.556    22708082.926
  22373416.923   -18672581.08843 -14526293.28242  22373419.031    22373413.776
 04  2 27  2 35 30.0000000  0  8G22G 3G14G15G 9G21G31G18
  20853299.117   -22139927.97644 -17227989.77342  20853300.004    20853293.328
  21829950.628   -18645551.45943 -14515720.84142  21829952.716    21829949.328
  20675073.433   -27810949.33044 -21468650.36242  20675076.017    20675070.992
  20112400.606   -30528766.68044 -23739773.33942  20112402.404    20112398.683
  23623509.036    -4523469.83843  -3508770.26242  23623511.566    23623507.848
  22956840.400   -17606814.93643 -13657999.37842  22956842.605    22956837.866
  22702427.643   -13809310.14743 -10697212.57942  22702429.773    22702426.138
  22385519.799   -18608980.09043 -14476734.06042  22385521.909    22385516.639
 04  2 27  2 36  0.0000000  0  8G22G 3G14G15G 9G21G31G18
  20857593.845   -22117358.74344 -17210403.33342  20857594.772    20857588.091
  21836942.794   -18608807.24943 -14487088.99342  21836944.876    21836941.480
  20665643.747   -27860502.62744 -21507263.29442  20665646.297    20665641.286
  20115373.367   -30513144.60744 -23727600.28542  20115375.172    20115371.454
  23627105.704    -4504569.34743  -3494042.57742  23627108.234    23627104.517
  22973332.385   -17520149.23143 -13590467.67842  22973334.562    22973329.804
  22696877.813   -13838474.45843 -10719937.99242  22696879.970    22696876.314
  22397639.498   -18545290.42143 -14427105.73342  22397641.657    22397636.381
 04  2 27  2 36 30.0000000  0  8G22G 3G14G15G 9G21G31G18
  20861924.423   -22094601.32544 -17192670.25442  20861925.342    20861918.657
  21844029.352   -18571567.25243 -14458070.82042  21844031.433    21844028.065
  20656310.617   -27909548.45843 -21545480.79042  20656313.158    20656308.137
  20118431.904   -30497071.79744 -23715076.00342  20118433.710    20118429.996
  23630815.579    -4485073.39343  -3478850.90742  23630818.011    23630814.474
  22989875.163   -17433216.26343 -13522727.70542  22989877.369    22989872.604
  22691435.671   -13867073.17643 -10742222.68742  22691437.831    22691434.150
  22409776.448   -18481510.04643 -14377406.72442  22409778.658    22409773.374
 04  2 27  2 37  0.0000000  0  8G22G 3G14G15G 9G21G31G18
  20866290.025   -22071659.89244 -17174793.79042  20866290.932    20866284.258
  21851209.099   -18533837.31443 -14428670.87342  21851211.186    21851207.818
  20647073.531   -27958089.46443 -21583304.91842  20647076.076    20647071.068
  20121575.599   -30480551.46044 -23702202.99942  20121577.405    20121573.703
  23634638.117    -4464985.80243  -3463198.20242  23634640.514    23634636.930
  23006467.941   -17346020.70043 -13454783.12242  23006470.163    23006465.406
  22686100.588   -13895109.33043 -10764069.02742  22686102.707    22686099.015
  22421930.017   -18417642.79043 -14327640.02242  22421932.191    22421926.910
 04  2 27  2 37 30.0000000  0  8G22G 3G14G15G 9G21G31G18
  20870690.897   -22048533.04644 -17156772.84742  20870691.813    20870685.135
  21858482.256   -18495616.69343 -14398888.57142  21858484.344    21858480.967
  20637933.071   -28006122.73144 -21620733.41142  20637935.619    20637930.612
  20124805.041   -30463580.59044 -23688978.92742  20124806.844    20124803.143
  23638573.595    -4444304.53043  -3447082.90442  23638576.004    23638572.466
  23023110.869   -17258561.60043 -13386633.18442  23023113.075    23023108.279
  22680873.080   -13922579.98143 -10785474.70742  22680875.222    22680871.520
  22434100.317   -18353687.33543 -14277804.58842  22434102.503    22434097.206
 04  2 27  2 38  0.0000000  0  8G22G 3G14G15G 9G21G31G18
  20875126.596   -22025223.14044 -17138609.26242  20875127.526    20875120.849
  21865848.131   -18456908.69643 -14368726.50142  21865850.206    21865846.859
  20628889.125   -28053648.80644 -21657766.68742  20628891.658    20628886.668
  20128120.067   -30446159.92844 -23675404.37342  20128121.872    20128118.172
  23642621.767    -4423031.20243  -3430506.26542  23642624.162    23642620.618
  23039803.568   -17170840.91243 -13318279.41342  23039805.719    23039800.928
  22675753.031   -13949485.89743 -10806440.33142  22675755.179    22675751.469
  22446287.072   -18289645.34343 -14227901.73142  22446289.294    22446283.968
 04  2 27  2 38 30.0000000  0  8G22G 3G14G15G 9G21G31G18
  20879597.645   -22001727.53944 -17120300.97742  20879598.569    20879591.884
  21873307.040   -18417711.94943 -14338183.58942  21873309.058    21873305.770
  20619942.494   -28100663.48043 -21694401.46842  20619945.037    20619940.063
  20131521.407   -30428285.70144 -23661476.39042  20131523.233    20131519.531
  23646783.176    -4401162.69243  -3413465.84542  23646785.547    23646782.049
  23056546.395   -17082856.91443 -13249720.45242  23056548.548    23056543.727
  22670741.162   -13975823.39443 -10826963.03442  22670743.296    22670739.599
  22458490.803   -18225514.29943 -14177929.47442  22458493.025    22458487.708
 04  2 27  2 39  0.0000000  0  8G22G 3G14G15G 9G21G31G18
  20884102.875   -21978052.22244 -17101852.65842  20884103.810    20884097.146
  21880857.651   -18378033.37043 -14307265.21442  21880859.666    21880856.347
  20611092.300   -28147171.47644 -21730641.43442  20611094.840    20611089.883
  20135008.255   -30409962.43944 -23647198.50842  20135010.014    20135006.300
  23651056.785    -4378704.50043  -3395965.92942  23651059.262    23651055.598
  23073338.182   -16994615.63043 -13180961.02142  23073340.347    23073335.484
  22665836.584   -14001596.87543 -10847046.24642  22665838.700    22665835.062
  22470710.365   -18161299.74543 -14127892.14642  22470712.615    22470707.333
 04  2 27  2 39 30.0000000  0  8G22G 3G14G15G 9G21G31G18
  20888642.877   -21954194.18644 -17083261.96542  20888643.804    20888637.145
  21888500.201   -18337871.16443 -14275969.99842  21888502.240    21888498.946
  20602339.438   -28193168.06144 -21766482.90142  20602341.943    20602337.000
  20138581.331   -30391185.72444 -23632567.29242  20138583.098    20138579.356
  23655443.316    -4355653.32043  -3378003.95042  23655445.764    23655441.986
  23090179.411   -16906114.25743 -13111998.92242  23090181.567    23090176.704
  22661040.145   -14026802.10243 -10866686.66142  22661042.282    22661038.634
  22482946.431   -18096998.74343 -14077787.45842  22482948.714    22482943.398
 04  2 27  2 40  0.0000000  0  8G22G 3G14G15G 9G21G31G18
  20893217.790   -21930152.81844 -17064528.41542  20893218.711    20893212.050
  21896234.716   -18297226.16843 -14244298.56942  21896236.782    21896233.479
  20593684.239   -28238651.21843 -21801924.29242  20593686.774    20593681.815
  20142241.011   -30371953.84544 -23617581.39842  20142242.790    20142239.051
  23659942.872    -4332008.16943  -3359579.14442  23659945.349    23659941.644
  23107070.170   -16817352.55743 -13042833.97142  23107072.330    23107067.541
  22656352.188   -14051437.50343 -10885883.05142  22656354.304    22656350.634
  22495199.086   -18032610.46043 -14027614.75442  22495201.409    22495196.096
 04  2 27  2 40 30.0000000  0  8G22G 3G14G15G 9G21G31G18
  20897826.146   -21905935.70044 -17045657.91742  20897827.059    20897820.394
  21904059.428   -18256106.87143 -14212257.56542  21904061.489    21904058.213
  20585125.641   -28283626.90044 -21836970.24842  20585128.156    20585123.212
  20145986.199   -30352272.65144 -23602245.39242  20145988.010    20145984.254
  23664554.177    -4307775.89943  -3340696.84042  23664556.665    23664552.837
  23124008.993   -16728338.50343 -12973472.37042  23124011.132    23124006.358
  22651771.490   -14075508.96843 -10904640.01842  22651773.609    22651769.968
  22507467.011   -17968141.99843 -13977379.57542  22507469.331    22507464.061
 04  2 27  2 41  0.0000000  0  8G22G 3G14G15G 9G21G31G18
  20902469.156   -21881536.38144 -17026645.44642  20902470.085    20902463.410
  21911975.432   -18214508.14743 -14179842.97642  21911977.465    21911974.191
  20576665.062   -28328087.35844 -21871614.73142  20576667.594    20576662.648
  20149818.340   -30332134.63744 -23586553.42642  20149820.149    20149816.370
  23669278.382    -4282949.92643  -3321351.90242  23669280.873    23669277.047
  23140996.998   -16639065.82543 -12903909.24342  23140999.088    23140994.395
  22647299.552   -14099008.97943 -10922951.68942  22647301.688    22647298.058
  22519751.525   -17903586.49543 -13927076.57242  22519753.798    22519748.584
 04  2 27  2 41 30.0000000  0  8G22G 3G14G15G 9G21G31G18
  20907146.217   -21856958.18244 -17007493.58942  20907147.127    20907140.475
  21919981.744   -18172434.75343 -14147058.52042  21919983.792    21919980.522
  20568302.176   -28372034.47744 -21905859.21142  20568304.708    20568299.745
  20153737.040   -30311541.67044 -23570506.95042  20153738.847    20153735.076
  23674115.030    -4257533.06843  -3301546.55142  23674117.491    23674113.715
  23158033.471   -16549538.36643 -12834147.59242  23158035.673    23158030.872
  22642935.976   -14121939.57343 -10940819.65642  22642938.130    22642934.496
  22532051.959   -17838947.33443 -13876708.39142  22532054.200    22532048.974
 04  2 27  2 42  0.0000000  0  8G22G 3G14G15G 9G21G31G18
  20911856.972   -21832202.98144 -16988203.80842  20911857.889    20911851.211
  21928077.763   -18129890.00443 -14113906.76842  21928079.788    21928076.519
  20560036.849   -28415468.86544 -21939704.16142  20560039.390    20560034.413
  20157742.229   -30290494.32944 -23554106.41142  20157744.011    20157740.236
  23679063.895    -4231526.94643  -3281282.02442  23679066.199    23679062.499
  23175118.097   -16459758.23243 -12764189.05942  23175120.285    23175115.433
  22638680.537   -14144301.82543 -10958244.76442  22638682.679    22638679.035
  22544367.949   -17774226.39843 -13826276.47642  22544370.157    22544364.954
 04  2 27  2 42 30.0000000  0  8G22G 3G14G15G 9G21G31G18
  20916602.295   -21807265.98944 -16968772.37442  20916603.218    20916596.554
  21936264.195   -18086870.28143 -14080384.91242  21936266.194    21936262.887
  20551870.292   -28458384.41244 -21973144.81942  20551872.820    20551867.814
  20161834.999   -30268986.56444 -23537347.09842  20161836.798    20161833.022
  23684125.680    -4204926.75843  -3260554.59842  23684128.091    23684124.258
  23192251.638   -16369721.07643 -12694030.24342  23192253.854    23192248.998
  22634534.478   -14166089.55343 -10975222.19742  22634536.582    22634532.940
  22556700.495   -17709418.32543 -13775776.67442  22556702.669    22556697.518
 04  2 27  2 43  0.0000000  0  8G22G 3G14G15G 9G21G31G18
  20921380.072   -21782158.47044 -16949208.06442  20921380.973    20921374.334
  21944538.622   -18043387.78743 -14046502.45842  21944540.655    21944537.366
  20543800.571   -28500790.91944 -22006188.82342  20543803.122    20543798.088
  20166013.507   -30247028.28044 -23520236.73142  20166015.313    20166011.545
  23689298.532    -4177743.16143  -3239372.55742  23689300.929    23689297.052
  23209431.861   -16279438.35943 -12623680.09042  23209434.048    23209429.202
  22630495.850   -14187312.78343 -10991759.75342  22630497.937    22630494.302
  22569047.600   -17644533.81743 -13725217.31342  22569049.774    22569044.619
 04  2 27  2 43 30.0000000  0  8G22G 3G14G15G 9G21G31G18
  20926192.401   -21756869.42544 -16929502.30742  20926193.302    20926186.659
  21952902.880   -17999433.12543 -14012252.07742  21952904.945    21952901.631
  20535830.117   -28542675.96844 -22038826.49842  20535832.650    20535827.575
  20170280.059   -30224607.36044 -23502765.87642  20170281.848    20170278.098
  23694584.471    -4149965.24143  -3217727.41442  23694586.911    23694583.018
  23226660.785   -16188899.81043 -12553130.57842  23226662.947    23226658.116
  22626566.878   -14207959.69643 -11007848.23742  22626569.015    22626565.292
  22581411.230   -17579562.38643 -13674590.21442  22581413.425    22581408.265
 04  2 27  2 44  0.0000000  0  8G22G 3G14G15G 9G21G31G18
  20931037.664   -21731407.46844 -16909661.80742  20931038.522    20931031.898
  21961355.137   -17955016.34043 -13977641.59242  21961357.224    21961353.861
  20527957.416   -28584047.19544 -22071063.78642  20527959.966    20527954.864
  20174633.197   -30201731.39544 -23484940.44042  20174634.977    20174631.227
  23699981.930    -4121601.55943  -3195625.83242  23699984.308    23699980.484
  23243936.688   -16098114.27943 -12482388.62742  23243938.911    23243934.049
  22622746.079   -14228037.95443 -11023493.60642  22622748.219    22622744.490
  22593789.867   -17514512.05743 -13623901.64042  22593792.091    22593786.961
 04  2 27  2 44 30.0000000  0  8G22G 3G14G15G 9G21G31G18
  20935916.402   -21705769.52144 -16889684.17642  20935917.272    20935910.639
  21969895.613   -17910135.75143 -13942669.71942  21969897.694    21969894.369
  20520183.298   -28624900.24344 -22102897.30742  20520185.854    20520180.754
  20179073.754   -30178396.12644 -23466757.10742  20179075.523    20179071.769
  23705491.544    -4092648.82443  -3173065.25942  23705493.888    23705490.060
  23261260.065   -16007079.32543 -12411452.30942  23261262.245    23261257.407
  22619034.329   -14247543.34443 -11038692.58342  22619036.455    22619032.717
  22606184.168   -17449379.42343 -13573148.92842  22606186.412    22606181.286
 04  2 27  2 45  0.0000000  0  8G22G 3G14G15G 9G21G31G18
  20940828.200   -21679957.75244 -16869571.09542  20940829.094    20940822.444
  21978523.706   -17864795.03043 -13907339.28542  21978525.781    21978522.413
  20512507.644   -28665236.05544 -22134327.78442  20512510.189    20512505.070
  20183601.504   -30154602.52344 -23448216.62942  20183603.284    20183599.535
  23711112.715    -4063109.08543  -3150047.25942  23711115.075    23711111.211
  23278630.484   -15915797.65143 -12340323.75242  23278632.640    23278627.754
  22615431.337   -14266477.14743 -11053446.17742  22615433.429    22615429.664
  22618593.778   -17384166.58843 -13522333.72842  22618595.975    22618590.880
 04  2 27  2 45 30.0000000  0  8G22G 3G14G15G 9G21G31G18
  20945773.484   -21653969.98444 -16849320.87342  20945774.381    20945767.735
  21987239.459   -17818993.29443 -13871649.62642  21987241.535    21987238.196
  20504931.031   -28705051.18344 -22165352.53242  20504933.609    20504928.477
  20188217.107   -30130347.20044 -23429316.36542  20188218.901    20188215.144
  23716846.095    -4032979.97143  -3126570.01442  23716848.395    23716844.512
  23296048.080   -15824267.48743 -12269001.55642  23296050.269    23296045.345
  22611937.718   -14284836.29043 -11067751.97842  22611939.807    22611936.001
  22631019.119   -17318870.94943 -13471453.99942  22631021.350    22631016.204
 04  2 27  2 46  0.0000000  0  8G22G 3G14G15G 9G21G31G18
  20950751.077   -21627812.51544 -16828938.41242  20950751.984    20950745.317
  21996041.524   -17772738.24943 -13835606.74142  21996043.602    21996040.283
  20497452.542   -28744350.83443 -22195975.61142  20497455.105    20497449.968
  20192919.619   -30105635.34444 -23410060.35842  20192921.395    20192917.640
  23722690.464    -4002267.83943  -3102638.47642  23722692.790    23722688.854
  23313511.758   -15732495.31243 -12197490.77242  23313513.882    23313508.976
  22608552.434   -14302625.97943 -11081614.05042  22608554.545    22608550.715
  22643459.019   -17253498.85743 -13420514.69742  22643461.248    22643456.085
 04  2 27  2 46 30.0000000  0  8G22G 3G14G15G 9G21G31G18
  20955761.700   -21601481.53444 -16808420.75342  20955762.611    20955755.901
  22004930.294   -17726027.42543 -13799208.70142  22004932.370    22004929.033
  20490073.122   -28783129.94744 -22226193.07642  20490075.665    20490070.516
  20197709.875   -30080462.21644 -23390444.92342  20197711.668    20197707.906
  23728646.389    -3970969.03743  -3078249.79442  23728648.721    23728644.791
  23331022.106   -15640477.87643 -12125788.89842  23331024.213    23331019.308
  22605276.413   -14319841.52343 -11095028.73642  22605278.494    22605274.655
  22655914.221   -17188046.23943 -13369512.65842  22655916.444    22655911.283
 04  2 27  2 47  0.0000000  0  8G22G 3G14G15G 9G21G31G18
  20960805.026   -21574978.56844 -16787769.07442  20960805.945    20960799.245
  22013905.201   -17678863.96943 -13762457.95742  22013907.277    22013903.907
  20482792.714   -28821388.71844 -22256005.08042  20482795.235    20482790.084
  20202587.882   -30054828.10144 -23370470.27942  20202589.669    20202585.890
  23734713.718    -3939084.89643  -3053405.00142  23734716.147    23734712.098
  23348578.782   -15548217.13643 -12053897.41942  23348580.860    23348575.972
  22602109.471   -14336483.53043 -11107996.51042  22602111.610    22602107.782
  22668384.536   -17122513.98343 -13318448.55842  22668386.777    22668381.628
 04  2 27  2 47 30.0000000  0  8G22G 3G14G15G 9G21G31G18
  20965880.838   -21548304.93444 -16766984.40942  20965881.759    20965875.039
  22022965.634   -17631251.02443 -13725356.96842  22022967.725    22022964.393
  20475611.217   -28859127.74844 -22285412.09242  20475613.719    20475608.553
  20207553.536   -30028733.44844 -23350136.77942  20207555.311    20207551.504
  23740892.159    -3906616.81043  -3028105.17942  23740894.620    23740890.586
  23366181.337   -15455715.10343 -11981817.90642  23366183.420    23366178.538
  22599051.571   -14352552.73543 -11120517.95342  22599053.731    22599049.916
  22680869.788   -17056903.45843 -13267323.46542  22680872.038    22680866.918
 04  2 27  2 48  0.0000000  0  8G22G 3G14G15G 9G21G31G18
  20970988.879   -21521461.94744 -16746067.77942  20970989.806    20970983.064
  22032111.088   -17583191.34243 -13687907.86842  22032113.137    22032109.817
  20468528.546   -28896347.29244 -22314414.30842  20468531.059    20468525.877
  20212606.775   -30002178.48744 -23329444.59942  20212608.560    20212604.754
  23747181.440    -3873566.43343  -3002351.64542  23747183.859    23747179.782
  23383829.387   -15362973.89843 -11909552.05042  23383831.433    23383826.606
  22596102.605   -14368049.72143 -11132593.50442  22596104.775    22596100.936
  22693369.726   -16991215.76243 -13216138.25542  22693371.967    22693366.873
 04  2 27  2 48 30.0000000  0  8G22G 3G14G15G 9G21G31G18
  20976129.646   -21494446.95244 -16725017.11842  20976130.560    20976123.834
  22041341.849   -17534683.47243 -13650109.52442  22041343.919    22041340.510
  20461545.497   -28933043.28344 -22343008.56142  20461548.018    20461542.839
  20217748.364   -29975159.25944 -23308390.65042  20217750.141    20217746.320
  23753582.101    -3839931.00443  -2976142.21542  23753584.544    23753580.335
  23401523.545   -15269990.87043 -11837097.75042  23401525.432    23401520.711
  22593263.255   -14382970.77743 -11144220.27842  22593265.383    22593261.535
  22705884.935   -16925447.86543 -13164890.53942  22705887.229    22705882.088
 04  2 27  2 49  0.0000000  0  8G22G 3G14G15G 9G21G31G18
  20981302.352   -21467264.16344 -16703835.70542  20981303.274    20981296.538
  22050656.684   -17485733.39743 -13611966.61742  22050658.801    22050655.462
  20454661.444   -28969219.10943 -22371197.48842  20454663.980    20454658.780
  20222977.653   -29947679.17444 -23286977.58942  20222979.416    20222975.617
  23760093.222    -3805714.84443  -2949480.26542  23760095.573    23760091.415
  23419262.636   -15176771.05443 -11764458.94142  23419264.607    23419259.857
  22590532.791   -14397319.48043 -11155401.07042  22590534.955    22590531.040
  22718414.665   -16859603.82343 -13113583.48942  22718416.956    22718411.757
 04  2 27  2 49 30.0000000  0  8G22G 3G14G15G 9G21G31G18
  20986507.046   -21439913.25044 -16682523.29042  20986507.953    20986501.230
  22060055.489   -17436342.43843 -13573480.15142  22060057.592    22060054.214
  20447876.550   -29004873.76044 -22398980.30742  20447879.086    20447873.911
  20228294.864   -29919737.06744 -23265204.50942  20228296.636    20228292.813
  23766714.833    -3770917.92143  -2922365.77442  23766717.203    23766713.013
  23437046.786   -15083314.78743 -11691635.88042  23437048.683    23437044.030
  22587911.361   -14411094.94743 -11166135.18342  22587913.535    22587909.631
  22730958.973   -16793682.99543 -13062216.60742  22730961.256    22730956.088
 04  2 27  2 50  0.0000000  0  8G22G 3G14G15G 9G21G31G18
  20991743.971   -21412392.86644 -16661078.81742  20991744.882    20991738.161
  22069538.030   -17386511.12543 -13534650.55442  22069540.176    22069536.751
  20441191.358   -29040004.64643 -22426354.99842  20441193.887    20441188.711
  20233700.403   -29891330.70144 -23243069.67142  20233702.173    20233698.350
  23773447.182    -3735539.16243  -2894797.90242  23773449.537    23773445.302
  23454876.000   -14989621.25043 -11618627.94442  23454878.046    23454873.336
  22585399.473   -14424295.04843 -11176420.96042  22585401.598    22585397.687
  22743518.122   -16727683.95643 -13010788.78342  22743520.431    22743515.250
 04  2 27  2 50 30.0000000  0  8G22G 3G14G15G 9G21G31G18
  20997012.378   -21384707.03744 -16639505.42942  20997013.306    20997006.571
  22079103.342   -17336244.98843 -13495482.14342  22079105.472    22079102.172
  20434605.225   -29074614.84543 -22453323.95642  20434607.765    20434602.595
  20239193.755   -29862462.88244 -23220575.25942  20239195.537    20239191.706
  23780289.463    -3699582.76443  -2866779.92742  23780291.834    23780287.580
  23472749.496   -14895695.13243 -11545438.76142  23472751.598    23472746.887
  22582996.396   -14436923.30343 -11186261.14842  22582998.489    22582994.568
  22756091.447   -16661610.54343 -12959303.00342  22756093.775    22756088.628
 04  2 27  2 51  0.0000000  0  8G22G 3G14G15G 9G21G31G18
  21002312.867   -21356852.87044 -16617800.86542  21002313.787    21002307.025
  22088751.665   -17285542.81343 -13455973.94842  22088753.809    22088750.466
  20428118.912   -29108700.62043 -22479884.27342  20428121.435    20428116.248
  20244775.623   -29833129.89644 -23197718.37742  20244777.407    20244773.585
  23787242.101    -3663046.33243  -2838309.98342  23787244.408    23787240.299
  23490667.743   -14801534.19743 -11472066.60542  23490669.816    23490665.128
  22580702.804   -14448976.14043 -11195652.95942  22580704.884    22580700.975
  22768679.588   -16595459.49343 -12907756.72442  22768681.891    22768676.719
 04  2 27  2 51 30.0000000  0  8G22G 3G14G15G 9G21G31G18
  21007644.735   -21328833.58844 -16595967.64242  21007645.683    21007638.907
  22098482.014   -17234409.17443 -13416129.55442  22098484.127    22098480.832
  20421731.929   -29142264.21443 -22506037.69542  20421734.475    20421729.280
  20250445.586   -29803334.04244 -23174500.82242  20250447.348    20250443.531
  23794304.497    -3625933.13543  -2809390.59942  23794306.863    23794302.704
  23508629.965   -14707142.15843 -11398514.37742  23508631.968    23508627.219
  22578518.242   -14460456.19343 -11204598.44742  22578520.288    22578516.407
  22781281.938   -16529233.61843 -12856152.14042  22781284.231    22781279.070
 04  2 27  2 52  0.0000000  0  8G22G 3G14G15G 9G21G31G18
  21013008.320   -21300647.79544 -16574004.67042  21013009.253    21013002.467
  22108294.488   -17182844.60143 -13375949.37142  22108296.564    22108293.304
  20415444.723   -29175303.63143 -22531782.66942  20415447.263    20415442.060
  20256204.104   -29773072.85544 -23150920.67242  20256205.857    20256202.036
  23801476.909    -3588242.08543  -2780020.96042  23801479.222    23801475.122
  23526636.309   -14612518.04543 -11324781.29642  23526638.319    23526633.585
  22576443.004   -14471361.44043 -11213096.03042  22576445.085    22576441.233
  22793898.840   -16462931.41243 -12804488.08242  22793901.134    22793895.933
 04  2 27  2 52 30.0000000  0  8G22G 3G14G15G 9G21G31G18
  21018403.523   -21272295.80244 -16551912.19442  21018404.456    21018397.654
  22118188.486   -17130851.00843 -13335434.88842  22118190.589    22118187.321
  20409257.380   -29207818.12443 -22557118.61142  20409259.924    20409254.753
  20262051.149   -29742346.31244 -23126977.90942  20262052.910    20262049.098
  23808759.104    -3549973.96443  -2750201.63842  23808761.484    23808757.333
  23544686.601   -14517663.11343 -11250868.38042  23544688.627    23544683.870
  22574477.186   -14481691.82443 -11221145.67742  22574479.254    22574475.420
  22806530.266   -16396553.03643 -12752764.66342  22806532.515    22806527.322
 04  2 27  2 53  0.0000000  0  8G22G 3G14G15G 9G21G31G18
  21023829.396   -21243782.56444 -16529694.07342  21023830.320    21023823.545
  22128162.907   -17078435.30643 -13294591.48142  22128164.985    22128161.655
  20403169.148   -29239811.91943 -22582048.81142  20403171.687    20403166.501
  20267986.077   -29711158.13844 -23102675.42842  20267987.825    20267984.029
  23816150.069    -3511134.03543  -2719936.75242  23816152.462    23816148.326
  23562779.787   -14422582.89543 -11176779.89342  23562781.766    23562777.068
  22572619.916   -14491451.66243 -11228750.74142  22572622.002    22572618.183
  22819175.222   -16330103.40543 -12700985.73042  22819177.459    22819172.275
 04  2 27  2 53 30.0000000  0  8G22G 3G14G15G 9G21G31G18
  21029286.691   -21215104.35344 -16507347.40242  21029287.614    21029280.794
  22138218.046   -17025595.36543 -13253417.51242  22138220.132    22138216.822
  20397180.838   -29271280.57443 -22606569.81242  20397183.388    20397178.201
  20274009.679   -29679503.84444 -23078009.73842  20274011.423    20274007.618
  23823650.449    -3471719.17143  -2689223.86342  23823652.812    23823648.645
  23580916.364   -14327274.55643 -11102513.66942  23580918.352    23580913.669
  22570871.992   -14500636.96743 -11235908.12242  22570874.064    22570870.264
  22831834.568   -16263578.21643 -12649147.92142  22831836.792    22831831.613
 04  2 27  2 54  0.0000000  0  8G22G 3G14G15G 9G21G31G18
  21034775.199   -21186261.93444 -16484872.77142  21034776.155    21034769.323
  22148353.340   -16972333.95943 -13211915.12442  22148355.397    22148352.125
  20391292.476   -29302224.10943 -22630681.63142  20391295.016    20391289.822
  20280121.943   -29647383.74344 -23052981.08242  20280123.674    20280119.862
  23831260.050    -3431730.50243  -2658063.87442  23831262.387    23831258.256
  23599096.082   -14231739.50343 -11028070.77442  23599098.063    23599093.359
  22569233.374   -14509247.97043 -11242617.98742  22569235.442    22569231.661
  22844508.135   -16196978.03543 -12597251.66442  22844510.355    22844505.208
 04  2 27  2 54 30.0000000  0  8G22G 3G14G15G 9G21G31G18
  21040294.706   -21157256.71044 -16462271.28542  21040295.657    21040288.826
  22158568.234   -16918654.52543 -13170086.98742  22158570.314    22158566.944
  20385503.919   -29332643.09643 -22654384.71142  20385506.459    20385501.259
  20286322.704   -29614798.39044 -23027589.89242  20286324.446    20286320.659
  23838978.380    -3391170.11443  -2626458.36442  23838980.754    23838976.666
  23617318.555   -14135980.03743 -10953453.02342  23617320.548    23617315.810
  22567703.810   -14517285.83743 -11248881.25742  22567705.887    22567702.106
  22857195.712   -16130304.21643 -12545298.03842  22857197.961    22857192.801
 04  2 27  2 55  0.0000000  0  8G22G 3G14G15G 9G21G31G18
  21045844.955   -21128089.84344 -16439543.84142  21045845.901    21045839.077
  22168862.075   -16864559.76243 -13127935.24342  22168864.160    22168860.874
  20379815.090   -29362538.03743 -22677679.44442  20379817.632    20379812.410
  20292611.986   -29581747.94444 -23001836.29642  20292613.723    20292609.935
  23846805.261    -3350039.71043  -2594408.70842  23846807.660    23846803.489
  23635583.401   -14039997.67843 -10878661.56342  23635585.404    23635580.695
  22566283.203   -14524751.18243 -11254698.39542  22566285.293    22566281.506
  22869897.253   -16063557.40143 -12493287.52542  22869899.450    22869894.298
 04  2 27  2 55 30.0000000  0  8G22G 3G14G15G 9G21G31G18
  21051426.027   -21098761.11844 -16416690.27842  21051426.951    21051420.127
  22179234.737   -16810051.28543 -13085461.11342  22179236.805    22179233.480
  20374226.087   -29391908.31343 -22700565.34742  20374228.636    20374223.399
  20298989.926   -29548231.68044 -22975719.72642  20298991.654    20298987.869
  23854740.454    -3308339.64743  -2561915.11642  23854742.918    23854738.676
  23653890.568   -13943793.10543 -10803696.97542  23653892.526    23653887.796
  22564971.632   -14531643.56643 -11260069.07742  22564973.693    22564969.907
  22882612.712   -15996737.21343 -12441219.84442  22882614.919    22882609.726
 04  2 27  2 56  0.0000000  0  8G22G 3G14G15G 9G21G31G18
  21057037.818   -21069270.95744 -16393710.91942  21057038.733    21057031.884
  22189685.693   -16755131.30543 -13042666.31942  22189687.765    22189684.327
  20368737.011   -29420753.51543 -22723042.10542  20368739.556    20368734.324
  20305456.589   -29514249.16144 -22949239.83142  20305458.315    20305454.529
  23862783.892    -3266070.90643  -2528978.44842  23862786.313    23862782.099
  23672239.841   -13847367.30243 -10728559.99842  23672241.765    23672236.964
  22563769.101   -14537963.07043 -11264993.35442  22563771.129    22563767.317
  22895342.125   -15929843.87543 -12389095.15042  22895344.327    22895339.114
 04  2 27  2 56 30.0000000  0  8G22G 3G14G15G 9G21G31G18
  21062680.301   -21039619.50944 -16370605.87942  21062681.206    21062674.346
  22200214.456   -16699802.06243 -12999552.64042  22200216.512    22200213.206
  20363347.911   -29449073.28543 -22745109.43242  20363350.462    20363345.224
  20312012.025   -29479800.13044 -22922396.42242  20312013.749    20312009.938
  23870935.398    -3223234.35443  -2495599.26842  23870937.908    23870933.643
  23690630.943   -13750721.46243 -10653251.55742  23690632.830    23690628.073
  22562675.512   -14543709.78943 -11269471.29642  22562677.585    22562673.762
  22908085.419   -15862877.34643 -12336913.42942  22908087.637    22908082.378
 04  2 27  2 57  0.0000000  0  8G22G 3G14G15G 9G21G31G18
  21068352.781   -21009810.31144 -16347377.91642  21068353.684    21068346.840
  22210820.152   -16644069.01943 -12956124.30142  22210822.241    22210818.861
  20358058.255   -29476870.55643 -22766769.61942  20358060.802    20358055.552
  20318655.680   -29444887.34144 -22895191.64842  20318657.440    20318653.615
  23879194.138    -3179834.12243  -2461780.93042  23879196.604    23879192.472
  23709063.176   -13653859.79643 -10577774.93242  23709065.064    23709060.228
  22561690.320   -14548886.92443 -11273505.41342  22561692.474    22561688.563
  22920841.984   -15795840.99743 -12284677.31142  22920844.226    22920838.939
 04  2 27  2 57 30.0000000  0  8G22G 3G14G15G 9G21G31G18
  21074055.955   -20979839.79344 -16324024.25242  21074056.871    21074050.017
  22221502.884   -16587930.58943 -12912380.07242  22221504.978    22221501.525
  20352868.826   -29504141.17744 -22788019.42942  20352871.367    20352866.100
  20325388.362   -29409506.85044 -22867622.42642  20325390.115    20325386.302
  23887560.752    -3135867.53743  -2427521.25042  23887563.154    23887559.120
  23727536.982   -13556779.81843 -10502128.21142  23727538.807    23727533.943
  22560814.206   -14553490.90343 -11277092.90842  22560816.340    22560812.408
  22933612.540   -15728731.24543 -12232383.98142  22933614.788    22933609.438
 04  2 27  2 58  0.0000000  0  8G22G 3G14G15G 9G21G31G18
  21079789.760   -20949708.45944 -16300545.27542  21079790.644    21079783.807
  22232262.465   -16531388.98143 -12868321.68442  22232264.516    22232261.113
  20347779.687   -29530884.82343 -22808858.61342  20347782.209    20347776.941
  20332210.167   -29373658.04444 -22839688.28542  20332211.885    20332208.075
  23896034.875    -3091335.30943  -2392820.79242  23896037.359    23896033.321
  23746052.012   -13459482.31043 -10426311.96642  23746053.929    23746049.114
  22560047.132   -14557521.57643 -11280233.67442  22560049.283    22560045.372
  22946397.153   -15661547.73143 -12180033.19542  22946399.380    22946394.012
 04  2 27  2 58 30.0000000  0  8G22G 3G14G15G 9G21G31G18
  21085553.155   -20919421.49044 -16276945.02742  21085554.062    21085547.231
  22243097.364   -16474451.10143 -12823954.51342  22243099.431    22243096.092
  20342789.891   -29557106.36144 -22829290.96142  20342792.402    20342787.100
  20339120.143   -29337345.77544 -22811393.01242  20339121.873    20339118.077
  23904615.502    -3046243.70243  -2357684.45642  23904618.009    23904613.905
  23764607.308   -13361973.46543 -10350331.05242  23764609.271    23764604.494
  22559388.191   -14560984.17543 -11282931.79142  22559390.336    22559386.458
  22959194.743   -15594295.76143 -12127629.05242  22959197.014    22959191.616
 04  2 27  2 59  0.0000000  0  8G22G 3G14G15G 9G21G31G18
  21091346.804   -20888975.42744 -16253220.80542  21091347.744    21091340.907
  22254007.917   -16417115.58843 -12779277.48942  22254009.969    22254006.570
  20337900.130   -29582802.07643 -22849313.57342  20337902.650    20337897.339
  20346119.102   -29300565.87344 -22782733.34342  20346120.845    20346117.031
  23913303.194    -3000589.80143  -2322110.01142  23913305.637    23913301.486
  23783203.340   -13264250.78043 -10274183.51742  23783205.278    23783200.431
  22558838.052   -14563875.11543 -11285184.45342  22558840.172    22558836.284
  22972006.168   -15526971.35143 -12075168.45642  22972008.422    22972003.001
 04  2 27  2 59 30.0000000  0  8G22G 3G14G15G 9G21G31G18
  21097170.590   -20858371.15244 -16229373.30542  21097171.523    21097164.680
  22264993.616   -16359385.86843 -12734293.28542  22264995.642    22264992.157
  20333110.368   -29607972.26443 -22868926.68742  20333112.907    20333107.588
  20353206.956   -29263318.86244 -22753709.69542  20353208.710    20353204.890
  23922097.510    -2954375.42843  -2286098.77842  23922099.960    23922095.918
  23801839.680   -13166315.95643 -10197870.68642  23801841.626    23801836.834
  22558396.514   -14566195.41443 -11286992.45642  22558398.637    22558394.696
  22984831.191   -15459575.54643 -12022652.24942  22984833.434    22984827.987
 04  2 27  3  0  0.0000000  0  8G22G 3G14G15G 9G21G31G18
  21103024.255   -20827610.00444 -16205403.56442  21103025.160    21103018.308
  22276053.589   -16301264.99143 -12689004.31242  22276055.643    22276052.295
  20328420.513   -29632617.55043 -22888130.78542  20328423.042    20328417.720
  20360383.557   -29225605.51444 -22724322.66642  20360385.305    20360381.501
  23930998.048    -2907602.73643  -2249652.51442  23931000.407    23930996.364
  23820516.013   -13068171.18443 -10121394.24642  23820517.891    23820513.190
  22558063.399   -14567946.08543 -11288356.60242  22558065.498    22558061.536
  22997669.639   -15392109.14243 -11970081.02042  22997671.838    22997666.370
 04  2 27  3  0 30.0000000  0  8G22G 3G14G15G 9G21G31G18
  21108907.423   -20796693.72244 -16181312.94242  21108908.316    21108901.457
  22287187.440   -16242756.57043 -12643413.32842  22287189.493    22287186.009
  20323830.245   -29656739.43643 -22906927.03942  20323832.791    20323827.452
  20367648.665   -29187427.09044 -22694573.23942  20367650.411    20367646.627
  23940004.373    -2860274.26743  -2212773.18442  23940006.713    23940002.665
  23839231.918   -12969818.45143 -10044755.74342  23839233.732    23839229.057
  22557838.285   -14569128.96343 -11289278.31042  22557840.381    22557836.444
  23010521.189   -15324573.77543 -11917456.05942  23010523.364    23010517.913
 04  2 27  3  1  0.0000000  0  8G22G 3G14G15G 9G21G31G18
  21114820.774   -20765618.62144 -16157098.56542  21114821.694    21114814.850
  22298395.230   -16183859.16143 -12597519.25242  22298397.295    22298393.816
  20319340.290   -29680334.22043 -22925312.56442  20319342.814    20319337.485
  20375003.027   -29148779.64644 -22664458.34542  20375004.774    20375000.994
  23949116.928    -2812387.39043  -2175458.71442  23949119.357    23949115.242
  23857987.616   -12871256.24143  -9967954.04642  23857989.530    23857984.844
  22557721.864   -14569740.63443 -11289754.92542  22557723.967    22557720.015
  23023386.538   -15256965.81843 -11864774.52842  23023388.771    23023383.252
 04  2 27  3  1 30.0000000  0  8G22G 3G14G15G 9G21G31G18
  21120763.556   -20734389.18944 -16132763.93242  21120764.437    21120757.596
  22309675.762   -16124579.58943 -12551327.38942  22309677.824    22309674.459
  20314949.815   -29703406.13843 -22943290.66042  20314952.349    20314947.026
  20382445.923   -29109666.98244 -22633980.94042  20382447.669    20382443.879
  23958334.691    -2763947.50643  -2137713.35142  23958337.197    23958333.101
  23876782.329   -12772489.55243  -9890992.97542  23876784.298    23876779.473
  22557713.238   -14569785.71643 -11289790.03842  22557715.332    22557711.435
  23036264.893   -15189289.36743 -11812039.63442  23036267.138    23036261.566
 04  2 27  3  2  0.0000000  0  9G25G22G 3G14G15G 9G21G31G18
  24498390.529    -4559089.72553  -3529283.20252  24498393.644    24498390.445
  21126734.852   -20703009.60744 -16108312.30042  21126735.749    21126728.942
  22321027.919   -16064923.75543 -12504842.31642  22321030.023    22321026.541
  20310658.221   -29725958.51343 -22960863.91842  20310660.769    20310655.447
  20389976.614   -29070092.76844 -22603143.88042  20389978.377    20389974.609
  23967656.742    -2714959.56443  -2099540.89842  23967659.422    23967655.191
  23895615.043   -12673523.12643  -9813876.28542  23895617.012    23895612.164
  22557811.717   -14569268.10743 -11289386.69542  22557813.822    22557809.900
  23049155.578   -15121548.32943 -11759254.40942  23049157.837    23049152.235
 04  2 27  3  2 30.0000000  0  9G25G22G 3G14G15G 9G21G31G18
  24479688.781    -4657367.69143  -3605863.32942  24479691.785    24479688.605
  21132736.002   -20671473.37044 -16083738.59742  21132736.881    21132730.068
  22332452.417   -16004887.53643 -12458060.84742  22332454.479    22332451.024
  20306466.748   -29747984.75243 -22978027.19942  20306469.297    20306463.974
  20397596.426   -29030050.27644 -22571941.92942  20397598.199    20397594.445
  23977084.201    -2665418.15643  -2060937.17442  23977086.850    23977082.644
  23914486.885   -12574351.50543  -9736599.70842  23914488.714    23914483.934
  22558018.418   -14568181.54743 -11288540.01242  22558020.571    22558016.670
  23062059.882   -15053735.74443 -11706413.41842  23062062.152    23062056.503
 04  2 27  3  3  0.0000000  0  9G25G22G 3G14G15G 9G21G31G18
  24460977.320    -4755696.44843  -3682483.05642  24460980.470    24460976.755
  21138767.308   -20639778.70244 -16059041.44542  21138768.169    21138761.366
  22343949.376   -15944470.92143 -12410982.97342  22343951.432    22343947.992
  20302375.775   -29769482.81543 -22994778.91742  20302378.333    20302373.004
  20405305.814   -28989537.12444 -22540373.23342  20405307.578    20405303.830
  23986617.101    -2615322.40343  -2021901.51642  23986619.651    23986615.284
  23933397.830   -12474973.78543  -9659162.51642  23933399.772    23933394.858
  22558333.792   -14566524.31143 -11287248.64642  22558335.952    22558331.985
  23074978.093   -14985849.83743 -11653515.31542  23074980.387    23074974.762
 04  2 27  3  3 30.0000000  0  9G25G22G 3G14G15G 9G21G31G18
  24442256.114    -4854076.48643  -3759142.71142  24442258.952    24442255.755
  21144828.051   -20607929.24344 -16034223.67442  21144828.917    21144822.113
  22355517.527   -15883679.77643 -12363613.25642  22355519.592    22355516.135
  20298384.685   -29790455.95043 -23011121.59742  20298387.255    20298381.930
  20413104.153   -28948556.62044 -22508440.36842  20413105.898    20413102.127
  23996254.549    -2564677.22743  -1982437.73342  23996256.991    23996252.816
  23952347.183   -12375394.34743  -9581568.14842  23952349.019    23952344.132
  22558757.066   -14564300.15543 -11285515.53142  22558759.221    22558755.207
  23087909.668   -14917893.91243 -11600562.63442  23087911.997    23087906.386
 04  2 27  3  4  0.0000000  0  9G25G22G 3G14G15G 9G21G31G18
  24423525.135    -4952508.06343  -3835842.53842  24423527.828    24423524.816
  21150917.657   -20575927.94144 -16009287.58942  21150918.573    21150911.747
  22367155.966   -15822519.47043 -12315955.86642  22367157.999    22367154.465
  20294492.899   -29810907.23143 -23027057.63842  20294495.495    20294490.171
  20420990.822   -28907111.78344 -22476145.68642  20420992.596    20420988.802
  24005995.744    -2513486.73743  -1942549.02642  24005998.148    24005994.080
  23971334.050   -12275617.69643  -9503820.12542  23971335.798    23971330.993
  22559287.537   -14561512.49843 -11283343.32242  22559289.693    22559285.687
  23100854.017   -14849870.89743 -11547557.68142  23100856.372    23100850.706
 04  2 27  3  4 30.0000000  0  9G25G22G 3G14G15G 9G21G31G18
  24404784.999    -5050988.02943  -3912580.09442  24404787.757    24404784.539
  21157036.318   -20543774.26444 -15984232.76842  21157037.202    21157030.367
  22378864.371   -15760991.32843 -12268011.87342  22378866.464    22378862.956
  20290700.596   -29830835.82943 -23042586.39442  20290703.184    20290697.866
  20428966.069   -28865201.56444 -22443488.37242  20428967.839    20428964.036
  24015840.673    -2461751.38043  -1902235.76642  24015843.069    24015839.072
  23990358.342   -12175644.08843  -9425918.59742  23990360.150    23990355.381
  22559925.366   -14558160.95343 -11280731.72242  22559927.475    22559923.447
  23113811.311   -14781779.89543 -11494499.75842  23113813.650    23113808.048
 04  2 27  3  5  0.0000000  0  9G25G22G 3G14G15G 9G21G31G18
  24386036.776    -5149510.08743  -3989350.39842  24386039.464    24386036.510
  21163184.408   -20511465.71544 -15959057.26542  21163185.313    21163178.480
  22390642.753   -15699095.20343 -12219781.13942  22390644.842    22390641.366
  20287008.260   -29850239.15843 -23057705.84842  20287010.840    20287005.502
  20437030.451   -28822822.94544 -22410466.07142  20437032.236    20437028.433
  24025789.508    -2409469.76543  -1861496.80742  24025791.902    24025787.874
  24009420.584   -12075471.76643  -9347862.25142  24009422.297    24009417.606
  22560670.900   -14554243.29543 -11277678.98342  22560673.004    22560668.953
  23126782.085   -14713618.05443 -11441386.61742  23126784.412    23126778.843
 04  2 27  3  5 30.0000000  0  9G25G22G 3G14G15G 9G21G31G18
  24367280.253    -5248075.61143  -4066154.59742  24367282.993    24367279.902
  21169361.174   -20479006.51544 -15933764.37242  21169362.100    21169355.235
  22402490.080   -15636837.25743 -12171268.44342  22402492.191    22402488.542
  20283415.151   -29869121.04543 -23072418.98442  20283417.711    20283412.365
  20445183.203   -28779979.89144 -22377081.87542  20445184.981    20445181.188
  24035841.301    -2356647.14943  -1820336.31142  24035843.665    24035839.706
  24028519.591   -11975105.87943  -9269655.08642  24028521.265    24028516.577
  22561523.271   -14549763.89043 -11274188.53142  22561525.394    22561521.326
  23139765.602   -14645389.24943 -11388221.32542  23139767.904    23139762.327
 04  2 27  3  6  0.0000000  0  9G25G22G 3G14G15G 9G21G31G18
  24348516.387    -5346680.11643  -4142989.18142  24348519.210    24348516.003
  21175566.908   -20446395.11244 -15908352.88442  21175567.844    21175560.968
  22414406.029   -15574218.35743 -12122474.50742  22414408.140    22414404.602
  20279921.555   -29887479.91143 -23086724.57142  20279924.138    20279918.766
  20453424.642   -28736670.78544 -22343334.52442  20453426.414    20453422.621
  24045996.083    -2303283.07143  -1778753.90942  24045998.501    24045994.610
  24047655.413   -11874546.29643  -9191296.96242  24047657.084    24047652.396
  22562482.733   -14544721.58743 -11270259.46042  22562484.873    22562480.813
  23152762.108   -14577091.98043 -11335002.65542  23152764.434    23152758.881
 04  2 27  3  6 30.0000000  0  9G25G22G 3G14G15G 9G21G31G18
  24329745.656    -5445320.13943  -4219851.40542  24329748.511    24329745.470
  21181801.705   -20413630.99644 -15882822.39742  21181802.618    21181795.756
  22426390.304   -15511240.51543 -12073400.88042  22426392.399    22426388.945
  20276527.590   -29905315.22543 -23100622.19842  20276530.153    20276524.783
  20461754.919   -28692895.08544 -22309223.59142  20461756.680    20461752.862
  24056253.844    -2249378.38443  -1736750.23842  24056256.248    24056252.320
  24066828.016   -11773793.49143  -9112788.28442  24066829.796    24066824.994
  22563549.308   -14539116.49043 -11265891.84042  22563551.495    22563547.425
  23165771.815   -14508725.54143 -11281730.09442  23165774.074    23165768.663
 04  2 27  3  7  0.0000000  0  9G25G22G 3G14G15G 9G21G31G18
  24310967.876    -5543996.99143  -4296742.28942  24310970.712    24310967.876
  21188064.757   -20380718.40344 -15857176.21042  21188065.659    21188058.805
  22438441.732   -15447909.89743 -12024052.33942  22438443.850    22438440.285
  20273232.445   -29922631.37943 -23114115.28342  20273234.986    20273229.592
  20470173.219   -28648656.65244 -22274752.08742  20470174.989    20470171.162
  24066613.406    -2194938.49443  -1694329.54342  24066615.797    24066611.823
  24086036.476   -11672852.58843  -9034133.03842  24086038.116    24086033.465
  22564722.179   -14532953.00643 -11261089.11942  22564724.318    22564720.289
  23178793.914   -14440294.01043 -11228406.82842  23178796.177    23178790.802
 04  2 27  3  7 30.0000000  0  9G25G22G 3G14G15G 9G21G31G18
  24292184.871    -5642702.47043  -4373655.52642  24292187.589    24292184.668
  21194357.039   -20347652.17144 -15831410.30742  21194357.955    21194351.083
  22450560.741   -15384223.79343 -11974426.82942  22450562.818    22450559.397
  20270037.072   -29939423.05743 -23127199.68742  20270039.631    20270034.215
  20478680.599   -28603950.00844 -22239915.74142  20478682.386    20478678.550
  24077075.444    -2139959.70743  -1651488.90942  24077077.902    24077073.882
  24105281.351   -11571719.89143  -8955328.34042  24105283.055    24105278.343
  22566002.168   -14526226.52243 -11255847.69942  22566004.284    22566000.308
  23191829.360   -14371792.00343 -11175028.62042  23191831.652    23191826.306
 04  2 27  3  8  0.0000000  0  9G25G22G 3G14G15G 9G21G31G18
  24273395.967    -5741438.22143  -4450592.34742  24273398.703    24273395.783
  21200677.648   -20314437.02544 -15805528.36542  21200678.576    21200671.728
  22462746.148   -15320188.99743 -11924529.59242  22462748.268    22462744.910
  20266940.643   -29955694.86743 -23139878.99842  20266943.177    20266937.770
  20487276.222   -28558779.58444 -22204718.00642  20487278.033    20487274.207
  24087638.965    -2084448.00243  -1608233.02842  24087641.434    24087637.385
  24124561.723   -11470400.83343  -8876378.42742  24124563.345    24124558.838
  22567388.294   -14518942.16543 -11250171.55942  22567390.414    22567386.506
  23204877.415   -14303224.05243 -11121599.05542  23204879.657    23204874.356
 04  2 27  3  8 30.0000000  0  9G25G22G 3G14G15G 9G21G31G18
  24254601.907    -5840201.10143  -4527550.28942  24254604.691    24254601.726
  21207026.736   -20281072.34144 -15779529.90442  21207027.665    21207020.797
  22474997.479   -15255807.53043 -11874362.21342  22474999.637    22474996.249
  20263943.223   -29971446.32943 -23152152.84642  20263945.767    20263940.341
  20495960.176   -28513145.17844 -22169158.73042  20495961.969    20495958.143
  24098303.695    -2028404.09843  -1564562.43842  24098306.012    24098302.154
  24143877.510   -11368895.73643  -8797283.53742  24143879.124    24143874.564
  22568880.646   -14511099.88143 -11244060.69142  22568882.734    22568878.828
  23217938.165   -14234589.30143 -11068117.43342  23217940.439    23217935.139
 04  2 27  3  9  0.0000000  0  9G25G22G 3G14G15G 9G21G31G18
  24235803.432    -5938987.24943  -4604526.37942  24235806.230    24235803.106
  21213404.341   -20247557.82444 -15753414.68442  21213405.248    21213398.397
  22487314.553   -15191080.79043 -11823925.79742  22487316.690    22487313.344
  20261044.941   -29986676.92143 -23164020.81842  20261047.473    20261042.038
  20504732.589   -28467045.82244 -22133237.15642  20504734.391    20504730.552
  24109069.582    -1971828.68543  -1520477.68742  24109071.989    24109068.034
  24163228.558   -11267205.43543  -8718044.33742  24163230.184    24163225.664
  22570479.181   -14502699.51043 -11237514.93942  22570481.283    22570477.351
  23231011.808   -14165886.75443 -11014582.98142  23231014.089    23231008.763
 04  2 27  3  9 30.0000000  0  9G25G22G 3G14G15G 9G21G31G18
  24217001.010    -6037794.30143  -4681518.77642  24217003.820    24217000.558
  21219810.353   -20213893.90144 -15727183.04542  21219811.269    21219804.430
  22499696.724   -15126012.11743 -11773222.94942  22499698.864    22499695.616
  20258245.588   -30001387.49343 -23175483.58142  20258248.128    20258242.693
  20513593.435   -28420481.86344 -22096953.54642  20513595.212    20513591.369
  24119936.301    -1914723.77443  -1475980.33842  24119938.797    24119934.621
  24182614.489   -11165331.77343  -8638662.28742  24182616.180    24182611.668
  22572183.651   -14493742.40643 -11230535.36442  22572185.785    22572181.822
  23244098.258   -14097117.20443 -10960996.32242  23244100.524    23244095.167
 04  2 27  3 10  0.0000000  0  9G25G22G 3G14G15G 9G21G31G18
  24198195.047    -6136619.74443  -4758525.48742  24198197.845    24198194.635
  21226244.642   -20180081.49144 -15700835.70642  21226245.532    21226238.694
  22512143.303   -15060604.62643 -11722256.07942  22512145.446    22512142.236
  20255545.040   -30015578.95243 -23186541.84242  20255547.564    20255542.111
  20522542.480   -28373454.29944 -22060308.68942  20522544.258    20522540.410
  24130903.185    -1857091.96243  -1431072.41542  24130905.705    24130901.826
  24202035.046   -11063276.28743  -8559138.52542  24202036.898    24202032.170
  22573993.810   -14484229.90743 -11223123.02742  22573995.933    22573991.975
  23257197.357   -14028281.11543 -10907357.80542  23257199.603    23257194.228
 04  2 27  3 10 30.0000000  0  9G25G22G 3G14G15G 9G21G31G18
  24179385.984    -6235461.42643  -4835544.84942  24179388.849    24179385.672
  21232707.052   -20146121.10544 -15674373.05742  21232707.957    21232701.125
  22524653.912   -14994861.05543 -11671027.31942  22524656.057    22524652.771
  20252943.165   -30029251.98543 -23197196.13542  20252945.674    20252940.205
  20531579.661   -28325963.61444 -22023302.96142  20531581.440    20531577.567
  24141970.164    -1798934.99743  -1385755.30242  24141972.583    24141968.909
  24221489.781   -10961041.21843  -8479474.82942  24221491.610    24221486.697
  22575909.429   -14474163.19543 -11215278.82742  22575911.550    22575907.564
  23270309.060   -13959378.74443 -10853667.63942  23270311.328    23270305.875
 04  2 27  3 11  0.0000000  0  9G25G22G 3G14G15G 9G21G31G18
  24160574.640    -6334315.71143  -4912574.06642  24160577.486    24160574.196
  21239197.751   -20112012.14144 -15647794.63342  21239198.657    21239191.833
  22537228.086   -14928783.35043 -11619538.21942  22537230.234    22537227.028
  20250440.002   -30042406.06244 -23207446.04942  20250442.507    20250437.046
  20540705.116   -28278009.15844 -21985935.85342  20540706.882    20540702.995
  24153136.808    -1740253.72143  -1340029.61642  24153139.146    24153135.467
  24240978.551   -10858626.76643  -8399671.37442  24240980.476    24240975.441
  22577930.518   -14463542.31443 -11207002.79842  22577932.652    22577928.614
  23283433.474   -13890409.52443 -10799925.39342  23283435.727    23283430.242
 04  2 27  3 11 30.0000000  0  9G25G22G 3G14G15G 9G21G31G18
  24141761.242    -6433180.54743  -4989611.48742  24141764.039    24141760.788
  21245716.567   -20077755.61444 -15621101.22842  21245717.452    21245710.631
  22549865.244   -14862374.72243 -11567791.24142  22549867.352    22549864.161
  20248035.422   -30055042.18443 -23217292.36342  20248037.940    20248032.450
  20549918.600   -28229591.89344 -21948208.11642  20549920.386    20549916.488
  24164402.890    -1681050.48143  -1293897.21142  24164405.312    24164401.418
  24260501.077   -10756035.02543  -8319729.76142  24260503.074    24260498.040
  22580056.797   -14452368.67743 -11198296.05842  22580058.935    22580054.901
  23296570.503   -13821374.09843 -10746131.55042  23296572.665    23296567.265
 04  2 27  3 12  0.0000000  0  9G25G22G 3G14G15G 9G21G31G18
  24122946.317    -6532053.08343  -5066654.91942  24122949.104    24122945.810
  21252263.376   -20043351.79244 -15594293.04542  21252264.278    21252257.431
  22562564.824   -14795638.04643 -11515788.63442  22562566.925    22562563.677
  20245729.277   -30067161.03043 -23226735.60442  20245731.774    20245726.304
  20559220.096   -28180712.09044 -21910119.95842  20559221.893    20559218.020
  24175767.974    -1621327.03343  -1247359.43042  24175770.304    24175766.268
  24280057.057   -10653267.45843  -8239651.14142  24280059.050    24280054.253
  22582288.053   -14440643.40243 -11189159.46642  22582290.153    22582286.126
  23309720.053   -13752272.44643 -10692286.09542  23309722.312    23309716.842
 04  2 27  3 12 30.0000000  0  9G25G22G 3G14G15G 9G21G31G18
  24104130.404    -6630931.21843  -5143702.70542  24104133.143    24104129.877
  21258838.098   -20008801.25644 -15567370.54242  21258839.013    21258832.173
  22575326.269   -14728576.30243 -11463532.73842  22575328.331    22575325.098
  20243521.366   -30078763.62443 -23235776.57242  20243523.862    20243518.394
  20568609.437   -28131370.72244 -21871672.14442  20568611.250    20568607.374
  24187231.572    -1561085.63743  -1200418.08742  24187233.989    24187229.739
  24299646.038   -10550326.43343  -8159437.35242  24299648.178    24299643.321
  22584623.974   -14428368.07843 -11179594.25542  22584626.062    22584622.004
  23322882.153   -13683105.11443 -10638389.46942  23322884.380    23322878.967
 04  2 27  3 13  0.0000000  0  9G25G22G 3G14G15G 9G21G31G18
  24085313.823    -6729812.38143  -5220752.84442  24085316.548    24085313.302
  21265440.591   -19974104.78844 -15540334.32242  21265441.509    21265434.692
  22588148.967   -14661192.60943 -11411025.98242  22588151.022    22588147.835
  20241411.524   -30089850.79143 -23244415.90942  20241414.027    20241408.558
  20578086.532   -28081568.34944 -21832865.10142  20578088.322    20578084.453
  24198793.220    -1500328.57343  -1153074.89942  24198795.512    24198791.425
  24319267.880   -10447213.13443  -8079089.31542  24319270.010    24319265.210
  22587064.309   -14415544.04343 -11169601.48842  22587066.389    22587062.313
  23336056.774   -13613872.29643 -10584441.81042  23336058.869    23336053.510
 04  2 27  3 13 30.0000000  0  9G25G22G 3G14G15G 9G21G31G18
  24066497.995    -6828690.36343  -5297800.53642  24066500.615    24066497.277
  21272071.507   -19939259.08544 -15513181.81942  21272072.408    21272065.584
  22601033.111   -14593486.12443 -11358267.67442  22601035.177    22601031.864
  20239400.357   -30100419.46243 -23252651.22442  20239402.858    20239397.398
  20587651.961   -28031301.79144 -21793696.35542  20587653.713    20587649.870
  24210453.325    -1439054.18443  -1105328.60642  24210455.642    24210451.752
  24338922.609   -10343925.86443  -7998605.73642  24338924.806    24338919.985
  22589609.550   -14402168.77743 -11159179.18142  22589611.617    22589607.543
  23349244.328   -13544571.18943 -10530440.95442  23349246.423    23349241.105
 04  2 27  3 14  0.0000000  0  9G25G22G 3G14G15G 9G21G31G18
  24047682.120    -6927567.64943  -5374847.65442  24047684.790    24047681.440
  21278729.811   -19904269.44144 -15485917.15242  21278730.689    21278723.882
  22613977.204   -14525464.45143 -11305263.77942  22613979.243    22613976.015
  20237486.813   -30110475.17643 -23260486.83042  20237489.310    20237483.835
  20597304.689   -27980576.42944 -21754170.09842  20597306.422    20597302.593
  24222210.602    -1377269.32143  -1057184.56342  24222212.935    24222209.097
  24358609.490   -10240470.90143  -7917991.47142  24358611.596    24358606.690
  22592258.513   -14388248.32743 -11148332.04942  22592260.571    22592256.489
  23362443.946   -13475206.49243 -10476390.52742  23362446.188    23362440.782
 04  2 27  3 14 30.0000000  0  9G25G22G 3G14G15G 9G21G31G18
  24028867.652    -7026437.90143  -5451889.31742  24028870.300    24028866.956
  21285416.067   -19869132.84944 -15458537.98242  21285416.963    21285410.139
  22626981.375   -14457127.20843 -11252013.99942  22626983.427    22626980.273
  20235671.369   -30120015.33943 -23267920.71042  20235673.891    20235668.375
  20607045.228   -27929389.47544 -21714284.16342  20607046.968    20607043.156
  24234065.290    -1314972.58443  -1008641.64942  24234067.534    24234063.881
  24378328.452   -10136846.53443  -7837245.22642  24378330.554    24378325.545
  22595011.633   -14373780.55843 -11137058.44942  22595013.667    22595009.606
  23375656.287   -13405775.09943 -10422288.14342  23375658.538    23375653.054
 04  2 27  3 15  0.0000000  0  9G25G22G 3G14G15G 9G21G31G18
  24010054.703    -7125300.48943  -5528925.02642  24010057.364    24010053.896
  21292129.921   -19833851.28344 -15431045.84542  21292130.811    21292123.984
  22640044.696   -14388479.01843 -11198521.90342  22640046.741    22640043.544
  20233953.556   -30129042.47344 -23274954.82642  20233956.072    20233950.562
  20616873.150   -27877743.39444 -21674040.46842  20616874.896    20616871.075
  24246016.643    -1252167.80943   -959702.83842  24246018.833    24246015.237
  24398079.015   -10033056.54743  -7756369.89842  24398081.056    24398076.127
  22597868.347   -14358768.55243 -11125360.76742  22597870.322    22597866.295
  23388880.970   -13336278.77043 -10368135.15942  23388883.226    23388877.785
 04  2 27  3 15 30.0000000  0 10G25G22G 3G14G15G 9G21G31G18G11
  23991242.745    -7224157.55243  -5605956.39742  23991245.362    23991241.973
  21298870.320   -19798430.24844 -15403445.03242  21298871.224    21298864.367
  22653165.706   -14319527.65743 -11144793.57242  22653167.753    22653164.519
  20232332.325   -30137562.13343 -23281593.50742  20232334.851    20232329.303
  20626787.465   -27825643.42944 -21633443.10542  20626789.173    20626785.362
  24258063.181    -1188861.97443   -910373.61342  24258065.420    24258061.878
  24417860.094    -9929106.79443  -7675370.08542  24417862.103    24417857.162
  22600827.417   -14343218.40043 -11113243.74742  22600829.404    22600825.397
  23402117.051   -13266722.65043 -10313935.57542  23402119.335    23402113.881
  24630890.959    -6394577.29753  -4933555.08452  24630893.396    24630889.467
 04  2 27  3 16  0.0000000  0 10G25G22G 3G14G15G 9G21G31G18G11
  23972434.881    -7322993.84243  -5682971.60342  23972437.427    23972433.957
  21305639.598   -19762857.38644 -15375725.91142  21305640.502    21305633.647
  22666346.361   -14250263.12543 -11090821.22042  22666348.387    22666345.169
  20230809.942   -30145562.24043 -23287827.34342  20230812.458    20230806.925
  20636790.492   -27773077.24844 -21592482.45642  20636792.193    20636788.403
  24270207.265    -1125044.25243   -860645.48742  24270209.579    24270206.012
  24437673.505    -9824986.54543  -7594237.41042  24437675.476    24437670.512
  22603891.098   -14327118.60543 -11100698.44342  22603893.054    22603889.074
  23415366.928   -13197094.06643 -10259679.54242  23415369.244    23415363.717
  24611908.561    -6494329.81043  -5011284.24542  24611910.968    24611907.172
 04  2 27  3 16 30.0000000  0 10G25G22G 3G14G15G 9G21G31G18G11
  23953629.605    -7421815.69643  -5759975.56742  23953632.177    23953628.622
  21312436.035   -19727141.83944 -15347895.60942  21312436.930    21312430.087
  22679584.300   -14180697.09543 -11036613.93142  22679586.322    22679583.135
  20229384.512   -30153052.86643 -23293664.17842  20229387.033    20229381.491
  20646880.423   -27720054.33044 -21551165.90342  20646882.105    20646878.333
  24282446.670    -1060725.74843   -810527.17442  24282448.929    24282445.284
  24457517.387    -9720706.28143  -7512980.06542  24457519.090    24457514.266
  22607057.370   -14310479.41343 -11087732.82342  22607059.355    22607055.393
  23428628.856   -13127402.30543 -10205374.28542  23428631.177    23428625.647
  24592939.039    -6594015.09843  -5088961.01942  24592941.455    24592937.745
 04  2 27  3 17  0.0000000  0 10G25G22G 3G14G15G 9G21G31G18G11
  23934828.100    -7520618.20143  -5836964.47042  23934830.612    23934827.032
  21319259.965   -19691281.90444 -15319952.80042  21319260.854    21319254.010
  22692879.460   -14110830.62943 -10982172.53342  22692881.466    22692878.274
  20228056.379   -30160032.33143 -23299102.70942  20228058.856    20228053.308
  20657057.526   -27666573.29344 -21509492.37942  20657059.217    20657055.461
  24294781.283     -995906.53343   -760018.68942  24294783.697    24294780.061
  24477391.788    -9616265.60343  -7431597.74342  24477393.613    24477388.762
  22610326.432   -14293300.17243 -11074346.38942  22610328.496    22610324.536
  23441903.135   -13057645.21443 -10151018.08442  23441905.491    23441900.023
  24573983.022    -6693629.11243  -5166582.27242  24573985.448    24573981.629
 04  2 27  3 17 30.0000000  0  9G25G22G 3G14G15G 9G31G18G11
  23916031.746    -7619393.34543  -5913932.04042  23916034.251    23916030.678
  21326112.357   -19655272.39744 -15291893.43642  21326113.252    21326106.394
  22706232.275   -14040661.04243 -10927494.93942  22706234.326    22706231.128
  20226826.306   -30166496.24243 -23304139.51042  20226828.793    20226823.247
  20667322.741   -27612629.27844 -21467458.08642  20667324.415    20667320.656
  24307212.017     -930583.14643   -709117.34742  24307214.289    24307210.626
  22613699.106   -14275576.73543 -11060535.91942  22613701.103    22613697.161
  23455190.898   -12987817.54143 -10096606.93542  23455193.281    23455187.756
  24555042.007    -6793164.62743  -5244142.34642  24555044.602    24555040.542
 04  2 27  3 18  0.0000000  0  8G25G22G 3G14G15G31G18G11
  23897239.781    -7718145.37843  -5990881.61042  23897242.297    23897238.731
  21332991.800   -19619120.57644 -15263723.17642  21332992.720    21332985.847
  22719640.938   -13970198.15043 -10872588.79642  22719642.973    22719639.787
  20225692.889   -30172452.43644 -23308780.68742  20225695.358    20225689.805
  20677674.588   -27558229.87644 -21425068.94642  20677676.284    20677672.526
  22617173.706   -14257317.38043 -11046307.84442  22617175.748    22617171.787
  23468490.673   -12917926.80743 -10042146.60142  23468493.051    23468487.570
  24536115.077    -6892626.64343  -5321645.17042  24536117.715    24536113.343
 04  2 27  3 18 30.0000000  0  8G25G22G 3G14G15G31G18G11
  23878452.354    -7816873.61243  -6067812.64742  23878454.888    23878451.308
  21339897.878   -19582828.93844 -15235443.97242  21339898.774    21339891.918
  22733104.452   -13899447.00243 -10817458.02942  22733106.484    22733103.267
  20224655.571   -30177903.63643 -23313028.36042  20224658.036    20224652.445
  20688112.590   -27503377.75844 -21382327.03442  20688114.289    20688110.553
  22620749.661   -14238525.69943 -11031664.97542  22620751.696    22620747.700
  23481802.058   -12847975.08843  -9987638.77442  23481804.336    23481798.881
  24517201.973    -6992015.31543  -5399090.82942  24517204.646    24517200.124
 04  2 27  3 19  0.0000000  0  8G25G22G 3G14G15G31G18G11
  23859670.921    -7915569.91443  -6144718.78242  23859673.517    23859669.971
  21346831.551   -19546392.15144 -15207051.66642  21346832.450    21346825.573
  22746623.228   -13828405.16643 -10762100.75942  22746625.320    22746622.089
  20223715.187   -30182845.18943 -23316878.90742  20223717.697    20223712.083
  20698637.618   -27448068.15844 -21339228.64242  20698639.353    20698635.595
  22624427.677   -14219197.55643 -11016604.07442  22624429.731    22624425.699
  23495126.114   -12777956.65543  -9933078.94342  23495128.426    23495122.994
  24498304.267    -7091323.18743  -5476473.53142  24498307.032    24498302.371
 04  2 27  3 19 30.0000000  0  8G25G22G 3G14G15G31G18G11
  23840895.444    -8014235.73543  -6221601.19042  23840898.019    23840894.357
  21353792.011   -19509814.76344 -15178549.79742  21353792.899    21353785.998
  22760196.060   -13757079.41343 -10706522.27142  22760198.159    22760194.963
  20222870.808   -30187282.21844 -23320336.32042  20222873.327    20222867.737
  20709248.841   -27392305.78744 -21295777.44842  20709250.564    20709246.830
  22628206.711   -14199338.44343 -11001129.43842  22628208.816    22628204.773
  23508462.047   -12707876.03243  -9878470.65642  23508464.332    23508458.886
  24479421.630    -7190552.13643  -5553794.75242  24479424.430    24479419.614
 04  2 27  3 20  0.0000000  0  8G25G22G 3G14G15G31G18G11
  23822126.985    -8112863.98243  -6298454.29242  23822129.615    23822125.995
  21360779.954   -19473092.76344 -15149935.24242  21360780.876    21360773.950
  22773823.215   -13685468.32143 -10650721.41342  22773825.355    22773822.103
  20222123.100   -30191211.33543 -23323397.95442  20222125.640    20222120.045
  20719946.943   -27336087.01444 -21251970.62342  20719948.661    20719944.909
  22632087.344   -14178945.55843 -10985238.88542  22632089.461    22632085.413
  23521810.575   -12637728.85943  -9823810.52142  23521812.882    23521807.383
  24460555.033    -7289696.42943  -5631049.98942  24460557.866    24460553.082
 04  2 27  3 20 30.0000000  0  8G25G22G 3G14G15G31G18G11
  23803366.085    -8211453.41243  -6375277.18342  23803368.675    23803364.900
  21367795.182   -19436227.48144 -15121209.04042  21367796.100    21367789.151
  22787503.803   -13613576.06643 -10594701.46842  22787505.987    22787502.712
  20221471.678   -30194634.41043 -23326065.27342  20221474.226    20221468.645
  20730731.468   -27279413.87544 -21207809.74442  20730733.200    20730729.456
  22636069.058   -14158021.56543 -10968934.47542  22636071.155    22636067.086
  23535171.493   -12567516.41543  -9769099.51742  23535173.797    23535168.408
  24441704.783    -7388755.20843  -5708238.60242  24441707.586    24441702.699
 04  2 27  3 21  0.0000000  0  8G25G22G 3G14G15G31G18G11
  23784612.833    -8310002.07543  -6452068.28942  23784615.385    23784611.610
  21374837.453   -19399219.99444 -15092372.03342  21374838.378    21374831.415
  22801237.286   -13541406.13143 -10538465.17042  22801239.437    22801236.195
  20220916.255   -30197553.09443 -23328339.55842  20220918.798    20220913.231
  20741602.233   -27222287.72244 -21163295.86342  20741603.954    20741600.186
  22640151.380   -14136568.57443 -10952217.85242  22640153.499    22640149.404
  23548544.767   -12497239.63543  -9714338.37942  23548546.995    23548541.606
  24422871.026    -7487727.03543  -5785359.45442  24422873.846    24422868.877
 04  2 27  3 21 30.0000000  0  8G25G22G 3G14G15G31G18G11
  23765867.827    -8408507.97143  -6528826.06442  23765870.311    23765866.539
  21381906.508   -19362071.87544 -15063425.44142  21381907.430    21381900.469
  22815022.828   -13468962.68643 -10482015.72542  22815024.962    22815021.733
  20220456.370   -30199969.68443 -23330222.60142  20220458.931    20220453.370
  20752558.881   -27164710.28744 -21118430.33642  20752560.585    20752556.813
  22644333.854   -14114589.43443 -10935091.25442  22644335.967    22644331.917
  23561930.008   -12426899.86943  -9659528.17542  23561932.170    23561926.795
  24404054.021    -7586611.25843  -5862412.06042  24404056.727    24404051.777
 04  2 27  3 22  0.0000000  0  8G25G22G 3G14G15G31G18G11
  23747131.619    -8506967.02543  -6605547.35142  23747134.071    23747130.292
  21389002.574   -19324781.93044 -15034368.33542  21389003.471    21388996.500
  22828860.041   -13396247.43243 -10425354.49942  22828862.194    22828858.999
  20220092.140   -30201883.73043 -23331714.05142  20220094.682    20220089.137
  20763601.484   -27106680.85344 -21073212.60142  20763603.236    20763599.443
  22648616.507   -14092084.14743 -10917554.66242  22648618.576    22648614.568
  23575327.459   -12356495.93243  -9604667.96642  23575329.603    23575324.175
  24385254.289    -7685404.51443  -5939393.75742  24385257.048    24385252.121
 04  2 27  3 22 30.0000000  0  8G25G22G 3G14G15G31G18G11
  23728404.808    -8605377.37643  -6682230.70842  23728407.259    23728403.375
  21396125.470   -19287350.85944 -15005201.25942  21396126.382    21396119.357
  22842748.426   -13323263.55143 -10368483.94342  22842750.536    22842747.414
  20219823.257   -30203296.78843 -23332815.12142  20219825.767    20219820.241
  20774729.833   -27048201.02744 -21027643.91042  20774731.586    20774727.791
  22652998.832   -14069054.96043 -10899609.84042  22653000.923    22652996.879
  23588736.984   -12286028.14243  -9549757.98842  23588739.111    23588733.829
  24366472.163    -7784105.21243  -6016303.34142  24366474.837    24366469.880
 04  2 27  3 23  0.0000000  0  8G25G22G 3G14G15G31G18G11
  23709688.582    -8703731.43143  -6758870.15342  23709691.064    23709687.204
  21403276.081   -19249774.17644 -14975920.71842  21403276.986    21403269.958
  22856688.359   -13250009.17543 -10311402.60542  22856690.436    22856687.299
  20219650.450   -30204204.79043 -23333522.64042  20219652.968    20219647.432
  20785944.685   -26989266.57544 -20981720.96142  20785946.445    20785942.657
  22657481.466   -14045498.53743 -10881254.18242  22657483.520    22657479.476
  23602159.510   -12215492.13543  -9494794.86642  23602161.778    23602156.456
  24347708.888    -7882706.68143  -6093135.59642  24347711.653    24347706.648
 04  2 27  3 23 30.0000000  0  8G25G22G 3G14G15G31G18G11
  23690982.164    -8802034.12943  -6835469.62342  23690984.626    23690980.705
  21410452.857   -19212059.91544 -14946532.98142  21410453.791    21410446.739
  22870677.604   -13176495.14943 -10254118.96242  22870679.656    22870676.571
  20219572.086   -30204616.60543 -23333843.52342  20219574.584    20219569.044
  20797244.397   -26929886.16344 -20935450.51142  20797246.171    20797242.374
  22662062.614   -14021424.30543 -10862495.03542  22662064.684    22662060.608
  23615593.609   -12144895.43543  -9439784.46342  23615595.784    23615590.584
  24328963.417    -7981214.74743  -6169895.08642  24328966.197    24328961.095
 04  2 27  3 24  0.0000000  0  8G25G22G 3G14G15G31G18G11
  23672286.704    -8900279.29343  -6912024.23842  23672289.096    23672285.282
  21417656.481   -19174204.64544 -14917035.36142  21417657.389    21417650.342
  22884716.413   -13102720.79743 -10196632.45042  22884718.464    22884715.346
  20219588.632   -30204529.69043 -23333775.78042  20219591.123    20219585.588
  20808629.527   -26870056.88344 -20888830.29342  20808631.304    20808627.520
  22666742.719   -13996830.21543 -10843330.79842  22666744.791    22666740.707
  23629039.869   -12074234.65343  -9384724.10842  23629042.142    23629036.901
  24310236.764    -8079623.70443  -6246577.31042  24310239.437    24310234.410
